[[{"header":{"parameterUnit":"m.s-1","parameterCategory":1,"la1":30.6,"la2":29.2853,"lo1":-89.7004,"lo2":-87.6739,"dy":0.0162,"dx":0.0183,"nx":112,"ny":82,"refTime":"2026-03-21T12:00:00:Z","depth":0,"parameterNumber":2,"parameterNumberName":"U-component_of_WINDS"},"data":[0.0,0.0,0.0,0.0,0.0,0.0,0.0,0.0,0.0,0.0,0.0,0.0,0.0,0.0,0.0,0.0,0.0,0.0,0.0,0.0,0.0,0.0,0.0,0.0,0.0,0.0,0.0,0.0,0.0,0.0,0.0,0.0,0.0,0.0,0.0,0.0,0.0,0.0,0.0,0.0,0.0,0.0,0.0,0.0,0.0,0.0,0.0,0.0,0.0,0.0,0.0,0.0,0.0,0.0,0.0,0.0,0.0,0.0,0.0,0.0,0.0,0.0,0.0,0.0,0.0,0.0,0.0,0.0,0.0,0.0,0.0,0.0,0.0,0.0,0.0,0.0,0.0,0.0,0.0,0.0,0.0,0.0,0.0,0.0,0.0,0.0,0.0,0.0,0.0,0.0,-3.2461,-3.3672,-3.5117,-3.5996,-3.5996,-3.5879,-3.4824,-3.2539,0.0,0.0,0.0,0.0,0.0,0.0,0.0,0.0,0.0,0.0,0.0,0.0,0.0,0.0,0.0,0.0,0.0,0.0,0.0,0.0,0.0,0.0,0.0,0.0,0.0,0.0,0.0,0.0,0.0,0.0,0.0,0.0,0.0,0.0,0.0,0.0,0.0,0.0,0.0,0.0,0.0,0.0,0.0,0.0,0.0,0.0,0.0,0.0,0.0,0.0,0.0,0.0,0.0,0.0,0.0,0.0,0.0,0.0,0.0,0.0,0.0,0.0,0.0,0.0,0.0,0.0,0.0,0.0,0.0,0.0,0.0,0.0,0.0,0.0,0.0,0.0,0.0,0.0,0.0,0.0,0.0,0.0,0.0,0.0,0.0,0.0,0.0,0.0,0.0,0.0,0.0,0.0,0.0,0.0,0.0,0.0,0.0,0.0,0.0,0.0,0.0,0.0,0.0,0.0,-3.2266,-3.5273,-3.584,-3.5996,-3.5996,-3.5312,-3.4414,-3.328,0.0,0.0,0.0,0.0,0.0,0.0,0.0,0.0,0.0,0.0,0.0,0.0,0.0,0.0,0.0,0.0,0.0,0.0,0.0,0.0,0.0,0.0,0.0,0.0,0.0,0.0,0.0,0.0,0.0,0.0,0.0,0.0,0.0,0.0,0.0,0.0,0.0,0.0,0.0,0.0,0.0,0.0,0.0,0.0,0.0,0.0,0.0,0.0,0.0,0.0,0.0,0.0,0.0,0.0,0.0,0.0,0.0,0.0,0.0,0.0,0.0,0.0,0.0,0.0,0.0,0.0,0.0,0.0,0.0,0.0,0.0,0.0,0.0,0.0,0.0,0.0,0.0,0.0,0.0,0.0,0.0,0.0,0.0,0.0,0.0,0.0,0.0,0.0,0.0,0.0,0.0,0.0,0.0,0.0,0.0,0.0,0.0,0.0,0.0,0.0,0.0,0.0,0.0,-3.1621,-3.2734,-3.5684,-3.5996,-3.5996,-3.5996,-3.5625,-3.4823,-3.3475,-3.1809,0.0,0.0,0.0,0.0,0.0,0.0,0.0,0.0,0.0,0.0,0.0,0.0,0.0,0.0,0.0,0.0,0.0,0.0,0.0,0.0,0.0,0.0,0.0,0.0,0.0,0.0,0.0,0.0,0.0,0.0,0.0,0.0,0.0,0.0,0.0,0.0,0.0,0.0,0.0,0.0,0.0,0.0,0.0,0.0,0.0,0.0,0.0,0.0,0.0,0.0,0.0,0.0,0.0,0.0,0.0,0.0,0.0,0.0,0.0,0.0,0.0,0.0,0.0,0.0,0.0,0.0,0.0,0.0,0.0,0.0,0.0,0.0,0.0,0.0,0.0,0.0,0.0,0.0,0.0,0.0,0.0,0.0,0.0,0.0,0.0,0.0,0.0,0.0,0.0,0.0,0.0,0.0,0.0,0.0,0.0,0.0,0.0,0.0,0.0,0.0,0.0,0.0,-3.2988,-3.3848,-3.5781,-3.5996,-3.5996,-3.5996,-3.5625,-3.4725,-3.3182,-3.1322,0.0,0.0,0.0,0.0,0.0,0.0,0.0,0.0,0.0,0.0,0.0,0.0,0.0,0.0,0.0,0.0,0.0,0.0,0.0,0.0,0.0,0.0,0.0,0.0,0.0,0.0,0.0,0.0,0.0,0.0,0.0,0.0,0.0,0.0,0.0,0.0,0.0,0.0,0.0,0.0,0.0,0.0,0.0,0.0,0.0,0.0,0.0,0.0,0.0,0.0,0.0,0.0,0.0,0.0,0.0,0.0,0.0,0.0,0.0,0.0,0.0,0.0,0.0,0.0,0.0,0.0,0.0,0.0,0.0,0.0,0.0,0.0,0.0,0.0,0.0,0.0,0.0,0.0,0.0,0.0,0.0,0.0,0.0,0.0,0.0,0.0,0.0,0.0,0.0,0.0,0.0,0.0,0.0,0.0,0.0,0.0,0.0,0.0,0.0,0.0,0.0,0.0,-3.3809,-3.5801,-3.5976,-3.5996,-3.5996,-3.5996,-3.4511,-3.3182,-3.2242,-2.9856,0.0,0.0,0.0,0.0,0.0,0.0,0.0,0.0,0.0,0.0,0.0,0.0,0.0,0.0,0.0,0.0,0.0,0.0,0.0,0.0,0.0,0.0,0.0,0.0,0.0,0.0,0.0,0.0,0.0,0.0,0.0,0.0,0.0,0.0,0.0,0.0,0.0,0.0,0.0,0.0,0.0,0.0,0.0,0.0,0.0,0.0,0.0,0.0,0.0,0.0,0.0,0.0,0.0,0.0,0.0,0.0,0.0,0.0,0.0,0.0,0.0,0.0,0.0,0.0,0.0,0.0,0.0,0.0,0.0,0.0,0.0,0.0,0.0,0.0,0.0,0.0,0.0,0.0,0.0,0.0,0.0,0.0,0.0,0.0,0.0,0.0,0.0,0.0,0.0,0.0,0.0,0.0,0.0,0.0,0.0,0.0,0.0,0.0,0.0,0.0,0.0,0.0,-3.25,-3.4238,-3.582,-3.5996,-3.5996,-3.5996,-3.4899,-3.3607,-3.2199,0.0,0.0,0.0,0.0,0.0,0.0,0.0,0.0,0.0,0.0,0.0,0.0,0.0,0.0,0.0,0.0,0.0,0.0,0.0,0.0,0.0,0.0,0.0,0.0,0.0,0.0,0.0,0.0,0.0,0.0,0.0,0.0,0.0,0.0,0.0,0.0,0.0,0.0,0.0,0.0,0.0,0.0,0.0,0.0,0.0,0.0,0.0,0.0,0.0,0.0,0.0,0.0,0.0,0.0,0.0,0.0,0.0,0.0,0.0,0.0,0.0,0.0,0.0,0.0,0.0,0.0,0.0,0.0,0.0,0.0,0.0,0.0,0.0,0.0,0.0,0.0,0.0,0.0,0.0,0.0,0.0,0.0,0.0,0.0,0.0,0.0,0.0,0.0,0.0,0.0,0.0,0.0,0.0,0.0,0.0,0.0,0.0,0.0,0.0,0.0,0.0,0.0,-3.0625,-3.2129,-3.3652,-3.541,-3.5838,-3.5779,-3.5213,-3.4134,-3.286,-3.1397,0.0,0.0,0.0,0.0,0.0,0.0,0.0,0.0,0.0,0.0,0.0,0.0,0.0,0.0,0.0,0.0,0.0,0.0,0.0,0.0,0.0,0.0,0.0,0.0,0.0,0.0,0.0,0.0,0.0,0.0,0.0,0.0,0.0,0.0,0.0,0.0,0.0,0.0,0.0,0.0,0.0,0.0,0.0,0.0,0.0,0.0,0.0,0.0,0.0,0.0,0.0,0.0,0.0,0.0,0.0,0.0,0.0,0.0,0.0,0.0,0.0,0.0,0.0,0.0,0.0,0.0,0.0,0.0,0.0,0.0,0.0,0.0,0.0,0.0,0.0,0.0,0.0,0.0,0.0,0.0,0.0,0.0,0.0,0.0,0.0,0.0,0.0,0.0,0.0,0.0,0.0,0.0,0.0,0.0,0.0,0.0,0.0,0.0,0.0,0.0,0.0,0.0,-3.08,-3.3102,-3.4682,-3.4702,-3.5463,-3.5269,-3.3551,-3.1867,-3.0517,0.0,0.0,0.0,0.0,0.0,0.0,0.0,0.0,0.0,0.0,0.0,0.0,0.0,0.0,0.0,0.0,0.0,0.0,0.0,0.0,0.0,0.0,0.0,0.0,0.0,0.0,0.0,0.0,0.0,0.0,0.0,0.0,0.0,0.0,0.0,0.0,0.0,0.0,0.0,0.0,0.0,0.0,0.0,0.0,0.0,0.0,0.0,0.0,0.0,0.0,0.0,0.0,0.0,0.0,0.0,0.0,0.0,0.0,0.0,0.0,0.0,0.0,0.0,0.0,0.0,0.0,0.0,0.0,0.0,0.0,0.0,0.0,0.0,0.0,0.0,0.0,0.0,0.0,0.0,0.0,0.0,0.0,0.0,0.0,0.0,0.0,0.0,0.0,0.0,0.0,0.0,0.0,0.0,0.0,0.0,0.0,0.0,0.0,0.0,0.0,0.0,0.0,0.0,-3.0621,-3.2047,-3.3335,-3.4565,-3.4386,-3.3955,-3.3447,-3.1823,-3.0218,-2.8774,0.0,0.0,0.0,0.0,0.0,0.0,0.0,0.0,0.0,0.0,0.0,0.0,0.0,0.0,0.0,0.0,0.0,0.0,0.0,0.0,0.0,0.0,0.0,0.0,0.0,0.0,0.0,0.0,0.0,0.0,0.0,0.0,0.0,0.0,0.0,0.0,0.0,0.0,0.0,0.0,0.0,0.0,0.0,0.0,0.0,0.0,0.0,0.0,0.0,0.0,0.0,0.0,0.0,0.0,0.0,0.0,0.0,0.0,0.0,0.0,0.0,0.0,0.0,0.0,0.0,0.0,0.0,0.0,0.0,0.0,0.0,0.0,0.0,0.0,0.0,0.0,0.0,0.0,0.0,0.0,0.0,0.0,0.0,0.0,0.0,0.0,0.0,0.0,0.0,0.0,0.0,0.0,0.0,0.0,0.0,0.0,0.0,0.0,0.0,0.0,0.0,0.0,-3.0092,-3.1399,-3.2373,-3.3076,-3.2994,-3.2602,-3.1938,-3.0609,-2.9377,-2.8362,0.0,0.0,0.0,0.0,0.0,0.0,0.0,0.0,0.0,0.0,0.0,0.0,0.0,0.0,0.0,0.0,0.0,0.0,0.0,0.0,0.0,0.0,0.0,0.0,0.0,0.0,0.0,0.0,0.0,0.0,0.0,0.0,0.0,0.0,0.0,0.0,0.0,0.0,0.0,0.0,0.0,0.0,0.0,0.0,0.0,0.0,0.0,0.0,0.0,0.0,0.0,0.0,0.0,0.0,0.0,0.0,0.0,0.0,0.0,0.0,0.0,0.0,0.0,0.0,0.0,0.0,0.0,0.0,0.0,0.0,0.0,0.0,0.0,0.0,0.0,0.0,0.0,0.0,0.0,0.0,0.0,0.0,0.0,0.0,0.0,0.0,0.0,0.0,0.0,0.0,0.0,0.0,0.0,0.0,0.0,0.0,0.0,0.0,0.0,0.0,0.0,0.0,-2.9363,-3.0862,-3.1504,-3.088,-3.1368,-3.1153,-2.973,-2.8732,-2.8186,-2.8186,0.0,0.0,0.0,0.0,0.0,0.0,0.0,0.0,0.0,0.0,0.0,0.0,0.0,0.0,0.0,0.0,0.0,0.0,0.0,0.0,0.0,0.0,0.0,0.0,0.0,0.0,0.0,0.0,0.0,0.0,0.0,0.0,0.0,0.0,0.0,0.0,0.0,0.0,0.0,0.0,0.0,0.0,0.0,0.0,0.0,0.0,0.0,0.0,0.0,0.0,0.0,0.0,0.0,0.0,0.0,0.0,0.0,0.0,0.0,0.0,-3.1178,-3.0598,0.0,0.0,0.0,0.0,0.0,0.0,0.0,0.0,0.0,0.0,0.0,0.0,0.0,0.0,0.0,0.0,0.0,0.0,0.0,0.0,0.0,0.0,0.0,0.0,0.0,0.0,0.0,0.0,0.0,0.0,0.0,0.0,0.0,0.0,0.0,0.0,0.0,0.0,0.0,0.0,-2.9281,-2.9318,-2.9533,-3.0684,-2.9786,-2.924,-2.9572,-2.8168,-2.729,-2.729,-2.5473,0.0,0.0,0.0,0.0,0.0,0.0,0.0,0.0,0.0,0.0,0.0,0.0,0.0,0.0,0.0,0.0,0.0,0.0,0.0,0.0,0.0,0.0,0.0,0.0,0.0,0.0,0.0,0.0,0.0,0.0,0.0,0.0,0.0,0.0,0.0,0.0,0.0,0.0,0.0,0.0,0.0,0.0,0.0,0.0,0.0,0.0,0.0,0.0,0.0,0.0,0.0,0.0,0.0,0.0,0.0,0.0,0.0,0.0,0.0,-3.2193,-3.1797,0.0,0.0,0.0,0.0,0.0,0.0,0.0,0.0,0.0,0.0,0.0,0.0,0.0,0.0,0.0,0.0,0.0,0.0,0.0,0.0,0.0,0.0,0.0,0.0,0.0,0.0,0.0,0.0,0.0,0.0,0.0,0.0,0.0,0.0,0.0,0.0,0.0,0.0,0.0,0.0,-2.8693,-2.8947,-2.9259,-3.0138,-2.9435,-2.9103,-2.9552,-2.7993,-2.7173,-2.76,-2.5609,0.0,0.0,0.0,0.0,0.0,0.0,0.0,0.0,0.0,0.0,0.0,0.0,0.0,0.0,0.0,0.0,0.0,0.0,0.0,0.0,0.0,0.0,0.0,0.0,0.0,0.0,0.0,0.0,0.0,0.0,0.0,0.0,0.0,0.0,0.0,0.0,0.0,0.0,0.0,0.0,0.0,0.0,0.0,0.0,0.0,0.0,0.0,0.0,0.0,0.0,0.0,0.0,0.0,-3.3961,-3.3993,-3.3238,-3.4121,-3.416,-3.3539,-3.3555,-3.3372,-3.3024,-3.2164,0.0,0.0,0.0,0.0,0.0,0.0,0.0,0.0,0.0,0.0,0.0,0.0,0.0,0.0,0.0,0.0,0.0,0.0,0.0,0.0,0.0,0.0,-3.023,-2.8799,-2.9436,-2.9801,-2.7691,0.0,0.0,0.0,0.0,0.0,0.0,0.0,0.0,0.0,0.0,0.0,-2.8108,-2.8928,-2.9435,-2.9574,-2.9455,-2.9377,-2.9377,-2.7915,-2.731,-2.803,-2.5763,-2.4399,0.0,0.0,0.0,0.0,0.0,0.0,0.0,0.0,0.0,0.0,0.0,0.0,0.0,0.0,0.0,0.0,0.0,0.0,0.0,0.0,0.0,0.0,0.0,0.0,0.0,0.0,0.0,0.0,0.0,0.0,0.0,0.0,-2.9578,-3.006,0.0,0.0,0.0,0.0,0.0,0.0,0.0,0.0,0.0,0.0,0.0,0.0,0.0,-3.1929,-3.2737,-3.3487,-3.3545,-3.2942,-3.4546,-3.4879,-3.407,-3.4998,-3.5369,-3.5272,-3.5325,0.0,-3.3024,-3.2164,0.0,0.0,0.0,0.0,0.0,0.0,0.0,0.0,0.0,0.0,0.0,0.0,0.0,0.0,0.0,0.0,0.0,0.0,0.0,0.0,0.0,0.0,-3.054,-3.0308,-2.9843,-2.9388,-2.904,-2.7826,-2.652,-2.5609,-2.4904,-2.4413,0.0,0.0,0.0,0.0,0.0,0.0,-2.8168,-2.8401,-2.8752,-2.9513,-2.8928,-2.8479,-2.8479,-2.7561,-2.7056,-2.7153,-2.5434,-2.4404,-2.4392,-2.3456,0.0,0.0,0.0,0.0,0.0,0.0,0.0,0.0,0.0,0.0,0.0,0.0,0.0,0.0,0.0,0.0,0.0,0.0,0.0,0.0,0.0,0.0,0.0,0.0,0.0,0.0,0.0,0.0,0.0,-2.9061,-3.0315,-2.9975,-3.0769,-3.1097,0.0,0.0,0.0,0.0,0.0,0.0,0.0,0.0,0.0,-3.2352,-3.2372,-3.2776,-3.3622,-3.4007,-3.4468,-3.5045,-3.5347,-3.5553,-3.5611,-3.5566,-3.5565,-3.5596,-3.5631,-3.5229,-3.4485,-3.3615,-3.3267,-3.3131,0.0,0.0,0.0,0.0,-3.0598,-3.0617,-3.0675,-3.0714,-3.0578,-2.9727,0.0,0.0,0.0,0.0,0.0,0.0,0.0,-3.0037,-3.0037,-3.0656,-3.1159,-3.0713,-3.0673,-3.0643,-3.0175,-2.9133,-2.8002,-2.7168,-2.6722,-2.6348,-2.589,-2.5425,0.0,0.0,0.0,-2.7305,-2.8183,-2.8691,-2.9316,-3.0175,-2.9491,-2.8964,-2.8964,-2.7753,-2.6992,-2.6992,-2.582,-2.5137,-2.5136,-2.4296,-2.3648,0.0,0.0,0.0,0.0,0.0,0.0,0.0,0.0,0.0,0.0,0.0,0.0,0.0,0.0,0.0,0.0,0.0,0.0,0.0,0.0,0.0,0.0,0.0,0.0,0.0,0.0,0.0,0.0,-3.0132,-3.0866,-3.0111,-3.1137,-3.1562,0.0,0.0,0.0,0.0,0.0,0.0,-3.2006,-3.2564,-3.3103,-3.3545,-3.3353,-3.3853,-3.5161,-3.4949,-3.5584,-3.7026,-3.643,-3.6353,-3.668,-3.6105,-3.5727,-3.5591,-3.5589,-3.5631,-3.5615,-3.4756,-3.4389,-3.4253,-3.2725,-3.2126,-3.2068,-3.1468,-3.1236,-3.1333,-3.1932,-3.199,-3.17,-3.1101,-3.0617,-3.0075,-2.8992,0.0,0.0,0.0,0.0,-3.0598,-3.0598,-3.1043,-3.1333,-3.0741,-3.1088,-3.1405,-3.0801,-2.9989,-2.9156,-2.8295,-2.8178,-2.7915,-2.7045,-2.6584,0.0,-2.6339,-2.7075,-2.7863,-2.851,-2.9311,-2.9995,-3.0426,-2.9899,-2.9333,-2.8904,-2.7712,-2.6891,-2.6677,-2.6052,-2.5699,-2.5697,-2.5071,-2.4614,-2.4381,0.0,0.0,0.0,0.0,0.0,0.0,0.0,0.0,0.0,0.0,0.0,0.0,0.0,0.0,0.0,0.0,0.0,0.0,0.0,0.0,0.0,0.0,0.0,0.0,0.0,0.0,0.0,0.0,0.0,-3.0728,-3.2158,0.0,0.0,0.0,0.0,-3.2763,-3.2814,-3.2833,-3.2833,-3.2872,-3.366,-3.5334,-3.4564,-3.5315,-3.7777,-3.6988,-3.7026,-3.793,-3.7892,-3.7469,-3.6699,-3.6708,-3.6273,-3.5515,-3.5577,-3.5601,-3.5535,-3.4726,-3.4389,-3.4311,-3.3402,-3.3024,-3.3024,-3.2986,-3.2966,-3.2966,-3.3024,-3.2483,-3.1797,-3.1758,-3.0656,-2.9495,-3.023,-2.9921,0.0,0.0,-3.0578,-3.0598,-3.0598,-3.0636,-3.0656,-3.0617,-3.0616,-3.0643,-3.0602,-2.9962,-2.9162,-2.8357,-2.8207,-2.7926,-2.7059,0.0,-2.8065,-2.8073,-2.882,-2.9394,-2.9427,-3.0191,-3.0426,-2.9646,-2.9529,-2.8865,-2.7262,-2.7048,-2.6657,-2.5817,-2.572,-2.5696,-2.5701,-2.5661,-2.5213,-2.4321,-2.4224,0.0,0.0,0.0,0.0,0.0,0.0,0.0,0.0,0.0,0.0,0.0,0.0,0.0,0.0,0.0,0.0,0.0,0.0,0.0,0.0,0.0,0.0,0.0,0.0,0.0,0.0,0.0,0.0,-3.1551,-3.2587,0.0,-3.206,-3.2362,-3.2856,-3.3489,-3.4183,-3.4795,-3.5315,-3.5872,-3.6469,-3.7084,-3.6815,-3.7084,-3.7988,-3.77,-3.7969,-3.8834,-3.8277,-3.7834,-3.7526,-3.6983,-3.6285,-3.5496,-3.5528,-3.5553,-3.5577,-3.5303,-3.5209,-3.5143,-3.4272,-3.3944,-3.3866,-3.3305,-3.3102,-3.3102,-3.3102,-3.2889,-3.2541,-3.199,-3.1043,-3.0192,-3.0501,-3.0385,-3.0192,-3.0501,-3.0598,-3.0598,-3.0598,-3.0598,-3.0598,-3.0597,-3.0595,-3.0604,-3.0602,-2.9967,-2.9142,-2.83,-2.8174,-2.8097,-2.7799,-2.753,-2.7359,-2.7367,-2.7624,-2.7823,-2.7833,-2.8597,-2.9006,-2.8694,-2.8168,-2.7582,-2.6997,-2.6451,-2.6022,-2.5729,-2.571,-2.5681,-2.564,-2.564,-2.5488,-2.5146,-2.4585,-2.3714,0.0,0.0,0.0,0.0,0.0,0.0,0.0,0.0,0.0,0.0,0.0,0.0,0.0,0.0,0.0,0.0,0.0,0.0,0.0,0.0,0.0,0.0,0.0,0.0,0.0,-3.1769,-3.2595,-3.2695,-3.3732,-3.418,-3.3543,-3.3901,-3.444,-3.5098,-3.5902,-3.6584,-3.7123,-3.77,-3.8123,-3.843,-3.8142,-3.8277,-3.8834,-3.8565,-3.8854,-3.97,-3.9123,-3.87,-3.8411,-3.7546,-3.6694,-3.5894,-3.5618,-3.5528,-3.556,-3.5596,-3.5631,-3.5615,-3.5065,-3.4833,-3.4775,-3.4195,-3.3982,-3.3944,-3.3634,-3.3538,-3.3344,-3.2184,-3.1449,-3.0946,-3.0675,-3.0598,-3.0598,-3.0598,-3.0598,-3.0598,-3.0598,-3.0598,-3.0607,-3.0597,-3.0595,-3.0527,-3.0214,-2.954,-2.8708,-2.7867,-2.7974,-2.8116,-2.7818,-2.753,-2.7433,-2.7725,-2.753,-2.7433,-2.7745,-2.8017,-2.8095,-2.7784,-2.7238,-2.679,-2.6517,-2.5983,-2.5671,-2.5671,-2.5663,-2.5654,-2.5595,-2.5595,-2.5585,-2.557,-2.471,-2.3974,-2.3405,0.0,0.0,0.0,0.0,0.0,0.0,0.0,0.0,0.0,0.0,0.0,0.0,0.0,0.0,0.0,0.0,0.0,0.0,0.0,0.0,0.0,0.0,0.0,-3.1468,-3.3148,-3.4216,-3.4173,-3.5676,-3.6472,-3.5871,-3.6715,-3.7375,-3.7602,-3.7865,-3.8031,-3.807,-3.805,-3.8454,-3.9296,-3.8493,-3.8839,-4.0469,-3.9719,-3.9719,-4.0489,-4.0489,-4.0065,-3.9258,-3.843,-3.7546,-3.6661,-3.5874,-3.5522,-3.5515,-3.556,-3.5596,-3.5601,-3.5673,-3.5704,-3.5704,-3.5704,-3.5704,-3.5568,-3.4717,-3.4408,-3.4118,-3.2435,-3.1835,-3.1661,-3.0868,-3.0617,-3.0598,-3.0598,-3.0598,-3.0598,-3.0598,-3.0598,-3.0598,-3.0598,-3.0577,-3.0333,-2.9478,-2.8648,-2.7835,-2.7051,-2.7554,-2.7868,-2.7035,-2.7604,-2.8442,-2.9279,-2.8675,0.0,-2.926,-2.8641,-2.7803,-2.6946,-2.6868,-2.6537,-2.5757,-2.5639,-2.5605,-2.561,-2.559,-2.5593,-2.5601,-2.5593,-2.5582,-2.5492,-2.4643,-2.4196,-2.4196,0.0,0.0,0.0,0.0,0.0,0.0,0.0,0.0,0.0,0.0,0.0,0.0,0.0,0.0,0.0,0.0,0.0,0.0,0.0,0.0,0.0,-3.1214,-3.2988,-3.3408,-3.3883,-3.4637,-3.5843,-3.6408,-3.6619,-3.6472,-3.6846,-3.7363,-3.8074,-3.8303,-3.8785,-3.9541,-3.9414,-3.949,-3.9942,-3.9528,-3.9624,-4.0286,-3.9872,-3.9947,-4.0489,-4.0356,-3.9934,-3.9277,-3.9046,-3.8123,-3.6699,-3.6483,-3.604,-3.5501,-3.5522,-3.5528,-3.5521,-3.5601,-3.5673,-3.5704,-3.5704,-3.5704,-3.5665,-3.5433,-3.493,-3.4311,-3.3828,-3.2822,-3.1758,-3.1545,-3.1062,-3.0598,-3.0598,-3.0598,-3.0598,-3.0598,-3.0598,-3.0598,-3.0598,-3.0123,-2.959,-2.9339,-2.8183,-2.7101,-2.687,-2.6515,-2.639,-2.6817,-2.7099,-2.7333,-2.7576,-2.6903,-2.6478,-2.6712,-2.6537,-2.6303,-2.6069,-2.5998,-2.5872,-2.5648,-2.562,-2.5599,-2.5609,-2.5593,-2.5576,-2.5531,-2.5531,-2.5518,-2.5507,-2.4648,-2.4196,0.0,0.0,0.0,0.0,0.0,0.0,0.0,0.0,0.0,0.0,0.0,0.0,0.0,0.0,0.0,0.0,0.0,0.0,0.0,0.0,0.0,0.0,-3.257,-3.4568,-3.5595,-3.5751,-3.611,-3.7076,-3.7503,-3.7708,-3.7708,-3.7904,-3.8263,-3.8775,-3.8984,-3.9387,-3.9984,-3.9882,-3.9861,-4.0022,-3.9882,-3.9861,-4.0042,-3.988,-3.9944,-4.0212,-4.0101,-3.991,-3.9651,-3.9301,-3.8431,-3.7224,-3.6761,-3.6117,-3.5369,-3.5285,-3.5247,-3.5277,0.0,0.0,0.0,0.0,-3.5704,-3.5704,-3.5704,-3.5375,-3.4872,-3.4524,-3.3439,-3.224,-3.1903,-3.1187,-3.054,-3.0588,-3.0598,-3.0598,-3.0598,-3.055,-3.0433,-3.0095,-2.9583,-2.8984,-2.8309,-2.7373,-2.659,-2.6316,-2.5793,0.0,-2.6203,-2.6343,-2.647,-2.6806,-2.617,-2.5785,-2.6116,-2.5863,-2.5654,-2.5658,-2.5294,-2.5056,-2.5065,-2.5024,0.0,0.0,0.0,-2.5538,-2.5498,-2.549,0.0,0.0,0.0,0.0,0.0,0.0,0.0,0.0,-2.3127,-2.3203,0.0,0.0,0.0,0.0,0.0,0.0,0.0,0.0,0.0,0.0,0.0,0.0,0.0,0.0,0.0,0.0,-3.3603,-3.5295,-3.7524,-3.7941,-3.8042,-3.8042,-3.8674,-3.9101,-3.9101,-3.9324,-3.9433,-3.9433,-3.9614,-3.9731,-3.9754,-3.9731,0.0,0.0,0.0,-3.9731,-3.9754,-3.9731,-3.9754,-3.9797,-3.9775,-3.9861,-4.0005,-3.9204,-3.8452,-3.7736,-3.6769,-3.59,-3.5141,-3.4963,-3.4889,-3.4943,-3.5388,-3.5572,-3.5577,-3.5662,-3.5684,-3.5684,-3.5704,0.0,0.0,-3.4784,-3.382,-3.2837,-3.2132,-3.1193,-3.0417,-3.053,-3.0569,-3.0569,-3.0569,-3.0479,-3.0175,-2.9377,-2.9002,-2.8437,-2.6929,-2.6476,-2.6187,-2.5592,-2.5393,-2.5329,-2.5464,-2.5531,-2.5828,-2.6553,-2.6048,-2.5854,-2.6572,-2.6048,-2.5607,-2.5599,-2.4907,0.0,-2.4321,-2.4238,-2.4167,-2.407,-2.4883,-2.5398,-2.5495,-2.5499,-2.5484,-2.5476,-2.5387,-2.5316,-2.5283,-2.5206,-2.4839,-2.4237,-2.3461,-2.356,0.0,0.0,0.0,0.0,0.0,0.0,0.0,0.0,0.0,0.0,0.0,0.0,0.0,0.0,0.0,-3.2745,-3.5005,-3.6824,-3.7419,-3.8294,-3.8859,-3.8859,-3.9008,-3.9101,-3.9101,-3.9156,-3.9183,-3.9183,-3.92,-3.9331,-3.9556,-3.9357,-3.9331,-3.9556,-3.9357,-3.9357,-3.9556,-3.9357,-3.9421,-3.9797,-3.9632,0.0,-3.8899,-3.8727,-3.7852,-3.646,-3.625,-3.5701,-3.4964,-3.4927,-3.4889,-3.4926,-3.5235,-3.536,-3.5388,-3.5546,-3.5612,-3.5631,-3.5673,-3.562,-3.5521,-3.5348,-3.4173,-3.2807,-3.2647,-3.154,0.0,-3.0343,-3.0374,-3.0374,-3.0374,-3.033,-3.0087,-2.9236,-2.8483,-2.7685,-2.6741,-2.5995,-2.5495,-2.5359,-2.533,-2.5302,-2.5329,-2.543,-2.557,-2.5738,-2.5673,-2.5659,-2.5815,-2.5698,-2.5601,-2.5601,-2.5408,-2.5008,-2.4366,-2.4245,-2.392,-2.3263,-2.3997,-2.4764,-2.5472,-2.5492,-2.5448,-2.5339,-2.4711,-2.4657,-2.5214,-2.4571,-2.4562,-2.5125,-2.4277,-2.4051,0.0,0.0,0.0,0.0,0.0,0.0,0.0,0.0,0.0,0.0,0.0,-2.89,-3.0521,0.0,-3.3234,-3.4467,-3.6027,-3.7239,-3.7721,-3.8358,-3.8826,-3.9073,-3.9101,-3.9101,-3.9101,-3.9101,-3.9101,-3.9101,-3.9101,-3.9156,-3.9298,-3.9165,-3.9156,-3.9298,-3.9183,-3.9165,-3.9298,-3.9183,-3.92,-3.9445,-3.8945,-3.8615,-3.8442,-3.8002,-3.7173,-3.6088,-3.5985,-3.5493,-3.4751,-3.4607,-3.4545,-3.4567,-3.4851,-3.5016,-3.5117,-3.5359,-3.5418,-3.5378,-3.554,-3.5245,-3.4801,-3.4801,-3.3566,-3.2101,-3.2138,-3.123,-3.0207,-3.0279,-3.0292,-3.0292,-3.0292,-3.0253,-2.9983,-2.9142,-2.8261,-2.7376,-2.6567,-2.5738,-2.5179,-2.5244,-2.5224,-2.5203,-2.5235,-2.5312,-2.5365,-2.5395,-2.5422,-2.5464,-2.5543,-2.555,-2.5543,-2.5503,-2.4687,-2.3968,-2.3535,-2.3072,-2.2805,-2.2852,-2.3229,-2.3645,-2.4077,-2.4097,-2.4263,-2.463,-2.3832,-2.3976,-2.5145,-2.4304,-2.4377,-2.5303,-2.4887,-2.4798,0.0,0.0,0.0,0.0,0.0,0.0,0.0,-2.6619,-2.76,-2.9022,-3.0012,-3.1198,-3.3125,-3.3969,-3.4779,-3.5972,-3.6714,-3.7377,-3.8059,-3.83,-3.8541,-3.8931,-3.9017,-3.9045,-3.9101,-3.9101,-3.9101,-3.9101,-3.9101,-3.9101,-3.9101,-3.9101,-3.9101,-3.9101,-3.9101,-3.9101,-3.9101,-3.8934,-3.8859,-3.8859,-3.8042,-3.77,-3.7719,-3.7025,-3.6349,-3.572,-3.5552,-3.5127,-3.4517,-3.4293,-3.4197,-3.4221,-3.445,-3.463,-3.4794,-3.5111,-3.5143,-3.5098,-3.5321,-3.4899,-3.4221,-3.4083,-3.2917,-3.1581,-3.1475,-3.0801,-3.0094,-3.018,-3.0226,-3.0226,-3.0226,-3.0138,-2.9855,-2.9051,-2.816,-2.7281,-2.6472,-2.5627,-2.5038,-2.5157,-2.5141,-2.5118,-2.5168,-2.5168,-2.5201,-2.5265,-2.5274,-2.5312,-2.5423,-2.5432,-2.5423,-2.5369,-2.3955,-2.287,-2.2488,-2.1664,-2.152,-2.2393,-2.245,-2.2527,-2.2681,-2.27,-2.3017,-2.3706,-2.3045,-2.3397,-2.4828,-2.4124,-2.4266,-2.5176,-2.5244,-2.539,-2.4149,-2.4193,-2.4575,-2.59,-2.6319,-2.6908,0.0,-2.9536,-3.0046,-3.0994,-3.2044,-3.2852,-3.3241,-3.4504,-3.5618,-3.5982,-3.6934,-3.7702,-3.7966,-3.8252,-3.8415,-3.8478,-3.8683,-3.8892,-3.9073,-3.9101,-3.9101,-3.9101,-3.9101,-3.9101,-3.9101,-3.9101,-3.9101,-3.9101,-3.9101,-3.9101,-3.9101,-3.8395,-3.8024,-3.8024,-3.7206,-3.6493,-3.5803,-3.5725,-3.5194,-3.4407,-3.4394,-3.432,-3.4245,-3.4221,-3.4197,-3.4197,-3.4221,-3.4269,-3.4325,-3.4775,-3.4943,-3.4943,-3.5009,-3.4954,-3.4696,-3.4044,-3.3137,-3.2158,-3.1455,-3.062,-2.994,-2.9937,-2.9937,-2.9937,-2.9937,-2.9921,-2.9731,-2.8916,-2.8101,-2.7266,-2.6408,-2.5627,-2.5101,-2.5113,-2.5113,-2.5113,-2.5106,-2.5051,-2.5063,-2.5182,-2.5203,-2.5214,-2.5243,-2.5243,-2.5233,-2.5214,-2.4408,-2.3237,-2.1683,-2.0792,-2.0677,-2.1482,-2.154,-2.1894,-2.2662,-2.27,-2.2729,-2.2772,-2.2647,-2.3023,-2.3866,-2.3759,-2.4189,-2.5106,-2.5176,-2.5312,-2.4007,-2.4664,-2.5591,-2.6706,-2.7297,-2.7901,-2.8934,-2.9623,-3.0298,-3.1043,-3.2119,-3.3175,-3.3974,-3.4789,-3.5561,-3.619,-3.6781,-3.7281,-3.754,-3.738,-3.728,-3.7446,-3.7158,-3.7467,-3.8799,-3.9017,-3.9101,-3.9101,-3.9101,-3.9101,-3.9101,-3.9101,-3.8897,-3.8414,-3.8395,-3.8172,-3.7708,-3.7355,-3.7188,-3.7188,-3.6389,-3.5843,-3.5488,-3.4958,-3.4544,-3.4197,-3.4197,-3.4197,-3.4197,-3.4197,-3.4197,-3.4197,-3.4197,-3.4197,-3.4227,-3.4593,-3.4694,-3.4632,-3.4813,-3.451,-3.3904,-3.3185,-3.2333,-3.1482,-3.0684,-3.0191,-2.9888,-2.9888,-2.9888,-2.9888,-2.9888,-2.9888,-2.9813,-2.9472,-2.8787,-2.7972,-2.7153,-2.6327,-2.5595,-2.512,-2.5044,-2.5044,-2.5044,-2.5018,-2.5018,-2.5076,-2.5118,-2.5164,-2.5182,-2.5192,-2.4979,-2.4427,-2.4057,-2.3138,-2.1431,-2.0974,-2.0726,-2.0603,-2.0584,-2.0755,-2.1098,-2.1128,-2.1336,-2.1787,-2.1331,-2.1726,-2.3007,-2.3007,-2.3461,-2.4364,-2.4924,-2.5264,-2.3774,-2.4641,-2.5616,-2.6661,-2.7564,-2.8273,-2.8572,-2.961,-3.0645,-3.116,-3.2207,-3.33,-3.4252,-3.4631,-3.5059,-3.5953,-3.6319,-3.6667,-3.7129,-3.6717,-3.6469,-3.6658,-3.6038,-3.6195,-3.7772,-3.8306,-3.8672,-3.8894,-3.8989,-3.8906,-3.8683,-3.8739,-3.8395,-3.7578,-3.7559,-3.7281,-3.6705,-3.6482,-3.637,-3.6352,-3.5516,-3.5138,-3.5125,-3.4488,-3.4197,-3.4197,-3.4197,-3.4197,-3.4197,-3.4197,-3.4197,-3.4197,-3.4197,-3.4197,-3.4221,-3.4416,-3.4435,-3.4386,-3.4588,-3.4083,-3.3214,-3.2485,-3.1695,-3.0937,-3.0137,-2.9907,-2.9888,-2.9888,-2.9888,-2.9888,-2.9888,-2.9888,-2.9888,-2.9888,-2.9282,-2.854,-2.7953,-2.6967,-2.6034,-2.5446,-2.5162,-2.501,-2.501,-2.501,-2.501,-2.501,-2.5044,-2.5101,-2.5134,-2.5134,-2.4786,-2.3876,-2.3727,-2.312,-2.168,-2.1339,-2.096,-2.0372,-2.0126,-2.0012,-2.0012,-2.0012,-2.0278,-2.0865,-2.0505,-2.1055,-2.2495,-2.2722,-2.3278,-2.4144,-2.4851,-2.5217,-2.3297,-2.3554,-2.3896,-2.5316,-2.654,-2.7618,-2.8265,-3.014,-3.1792,-3.1951,-3.2831,-3.3622,-3.3813,-3.3882,-3.4186,-3.4902,-3.5422,-3.6015,-3.6812,-3.6551,-3.6346,-3.6399,-3.5906,-3.5634,-3.5688,-3.6648,-3.7575,-3.836,-3.8652,-3.8453,-3.7595,-3.7803,-3.7559,-3.676,-3.6723,-3.6705,-3.6686,-3.5925,-3.5535,-3.5516,-3.4643,-3.4234,-3.4234,-3.4216,-3.4197,-3.4197,-3.4197,-3.4197,-3.4197,-3.4197,-3.4197,-3.4197,-3.4197,-3.4197,-3.4197,-3.4221,-3.4221,-3.4221,-3.4293,-3.384,-3.3085,-3.2364,-3.16,-3.0882,-3.0122,-2.991,-2.9888,-2.9888,-2.9888,-2.9888,-2.9888,-2.9888,-2.9888,-2.9888,-2.9282,-2.8676,-2.8657,-2.7365,-2.6205,-2.6186,-2.5541,-2.501,-2.501,-2.501,-2.501,-2.501,-2.501,-2.4991,-2.501,-2.501,-2.4669,-2.3796,-2.3689,-2.3367,-2.2533,-2.1699,-2.1187,-2.1168,-2.0429,-2.0012,-2.0012,-2.0012,-2.0012,-2.005,-2.0789,-2.1604,-2.2495,-2.3272,-2.4106,-2.4972,-2.5057,-2.5144,-2.1527,-2.2491,-2.3728,-2.5068,-2.6282,-2.7322,-2.7933,-2.9295,-3.0457,-3.043,-3.1183,-3.1989,-3.227,-3.2546,-3.31,-3.4338,-3.4729,-3.5256,-3.6229,-3.5601,-3.5078,-3.5169,-3.4319,-3.3981,-3.4551,-3.5706,-3.6517,-3.679,-3.69,-3.6802,-3.6527,-3.6777,-3.6518,-3.566,-3.5818,-3.5627,-3.5052,-3.4773,-3.4624,-3.4624,-3.4327,-3.4197,-3.4197,-3.4197,-3.4197,-3.4197,-3.4197,-3.4197,-3.4197,-3.4197,-3.4197,-3.4197,-3.4197,-3.4197,-3.4197,-3.4197,-3.3863,-3.3398,-3.3422,-3.2947,-3.2123,-3.0803,-2.9889,-2.9231,-2.9036,-2.8995,-2.916,-2.9742,-2.9891,-2.9888,-2.9888,-2.9888,-2.9888,-2.9888,-2.968,-2.9339,-2.8809,-2.8275,-2.7706,-2.7172,-2.6394,-2.5806,-2.5806,-2.5351,-2.501,-2.501,-2.501,-2.501,-2.501,-2.501,-2.4896,-2.458,-2.4561,-2.3992,-2.2609,-2.2722,-2.2381,-2.1282,-2.096,-2.0808,-2.0808,-2.0278,-2.0012,-2.0012,-2.0278,-2.0808,-2.1642,-2.2495,-2.3341,-2.422,-2.481,-2.5107,-2.0288,-2.1427,-2.2864,-2.4179,-2.5314,-2.6293,-2.6946,-2.8189,-2.9079,-2.8794,-2.9499,-3.0162,-3.0185,-3.051,-3.134,-3.3064,-3.3304,-3.3914,-3.5659,-3.4938,-3.4349,-3.4739,-3.3933,-3.351,-3.3808,-3.4702,-3.5372,-3.5693,-3.6077,-3.6048,-3.5454,-3.5674,-3.5422,-3.4596,-3.4731,-3.4552,-3.3998,-3.4049,-3.4124,-3.4197,-3.4197,-3.4197,-3.4197,-3.4197,-3.4197,-3.4197,-3.4197,-3.4197,-3.4197,-3.4197,-3.4197,-3.4197,-3.4197,-3.4197,-3.4197,-3.4197,-3.3863,-3.3343,-3.2767,-3.2087,-3.1182,-2.9565,-2.8727,-2.839,-2.8441,-2.8529,-2.8768,-2.9649,-2.991,-2.9888,-2.9888,-2.9888,-2.9888,-2.9888,-2.9888,-2.9756,-2.9225,-2.8836,-2.8445,-2.7916,-2.683,-2.5992,-2.5992,-2.5359,-2.4861,-2.4875,-2.4936,-2.4977,-2.4996,-2.501,-2.501,-2.501,-2.501,-2.4574,-2.348,-2.3575,-2.3234,-2.2154,-2.1528,-2.1339,-2.1642,-2.0865,-2.0429,-2.0429,-2.0429,-2.0846,-2.168,-2.223,-2.3095,-2.4239,-2.4797,-2.5082,-1.9645,-2.0484,-2.1356,-2.2656,-2.3792,-2.4702,-2.5362,-2.6779,-2.7794,-2.7189,-2.7913,-2.8408,-2.7786,-2.8083,-2.9079,-3.1179,-3.1316,-3.2191,-3.5115,-3.4542,-3.4099,-3.4926,-3.4601,-3.4065,-3.3387,-3.3635,-3.416,-3.5009,-3.6014,-3.5945,-3.4398,-3.457,-3.4371,-3.3595,-3.3605,-3.3605,-3.3605,-3.3807,-3.3972,-3.4173,-3.4173,-3.4173,-3.4173,-3.4179,-3.4179,-3.4197,-3.4197,-3.4179,-3.4179,-3.4197,-3.4197,-3.4179,-3.4179,-3.4197,-3.4197,-3.4197,-3.4141,-3.3844,-3.2228,-3.1169,-3.0281,-2.8666,-2.8128,-2.8129,-2.8276,-2.842,-2.8711,-2.9633,-2.9891,-2.9907,-2.9888,-2.9888,-2.9872,-2.9872,-2.9872,-2.9872,-2.9872,-2.9132,-2.8445,-2.8445,-2.6953,-2.5653,-2.5634,-2.5067,-2.4623,-2.4692,-2.4813,-2.4917,-2.4996,-2.501,-2.501,-2.501,-2.501,-2.4991,-2.4953,-2.4219,-2.3746,-2.3689,-2.2211,-2.1699,-2.2533,-2.168,-2.1225,-2.1282,-2.1225,-2.1642,-2.2552,-2.2552,-2.3405,-2.501,-2.4999,-2.5025,-1.9473,-2.0482,-2.139,-2.1753,-2.2656,-2.3645,-2.4209,-2.53,-2.6291,-2.6528,-2.7001,-2.7322,-2.7132,-2.7911,-2.8932,-3.0022,-3.1347,-3.2757,-3.4056,-3.4219,-3.4066,-3.3786,-3.3374,-3.2852,-3.2187,-3.2748,-3.3085,-3.2967,-3.3535,-3.3727,-3.3283,-3.3496,-3.3508,-3.3327,-3.3502,-3.3605,-3.3605,-3.3643,-3.3698,-3.3753,-3.3753,-3.3815,-3.3972,-3.3975,-3.4067,-3.4197,-3.4197,-3.4123,-3.3987,-3.3972,-3.3986,-3.3987,-3.3968,-3.4074,-3.4197,-3.4197,-3.3364,-3.1967,-3.0341,-2.9746,-2.9444,-2.7771,-2.6433,-2.5706,-2.6971,-2.7417,-2.7804,-2.9322,-2.9823,-2.9876,-2.9717,-2.9681,-2.9644,-2.9494,-2.9455,-2.9455,-2.9455,-2.9247,-2.9077,-2.9077,-2.7793,-2.6558,-2.6059,-2.5299,-2.4719,-2.4639,-2.4734,-2.4856,-2.4977,-2.501,-2.501,-2.501,-2.501,-2.4745,-2.4087,-2.4409,-2.439,-2.3746,-2.3291,-2.3158,-2.3386,-2.1983,-2.1509,-2.2154,-2.1528,-2.1926,-2.3386,-2.3386,-2.3954,-2.501,-2.4999,-2.5012,-1.9117,-2.0191,-2.1082,-2.1082,-2.1751,-2.2422,-2.271,-2.3688,-2.4538,-2.4747,-2.5302,-2.5703,-2.5598,-2.6524,-2.7758,-2.9,-3.0207,-3.16,-3.3541,-3.3423,-3.3222,-3.3483,-3.3169,-3.2667,-3.1995,-3.2441,-3.2579,-3.2001,-3.2703,-3.3077,-3.2888,-3.2993,-3.3086,-3.3086,-3.3208,-3.3327,-3.3415,-3.3426,-3.3473,-3.3605,-3.324,-3.3342,-3.3762,-3.339,-3.3497,-3.3947,-3.3947,-3.3663,-3.3276,-3.3615,-3.355,-3.3294,-3.3623,-3.386,-3.391,-3.3541,-3.2764,-3.1598,-2.9641,-2.8809,-2.8289,-2.6355,-2.5338,-2.5153,-2.6563,-2.6766,-2.6892,-2.8576,-2.8856,-2.8703,-2.8896,-2.8952,-2.8988,-2.9241,-2.9293,-2.9293,-2.9293,-2.923,-2.903,-2.8552,-2.7509,-2.6465,-2.5727,-2.4982,-2.4459,-2.4389,-2.4491,-2.4623,-2.4719,-2.4875,-2.4964,-2.4996,-2.501,-2.4801,-2.4314,-2.4712,-2.4801,-2.4295,-2.3916,-2.3859,-2.4238,-2.3007,-2.2533,-2.3026,-2.2552,-2.276,-2.3689,-2.3689,-2.4144,-2.501,-2.5004,-2.5031,-1.8821,-1.9848,-2.0599,-2.0699,-2.0997,-2.1326,-2.1375,-2.2228,-2.2918,-2.2764,-2.3523,-2.4134,-2.39,-2.4837,-2.6215,-2.7998,-2.8555,-2.9848,-3.2991,-3.2491,-3.221,-3.3375,-3.3305,-3.2807,-3.2066,-3.2145,-3.2072,-3.1654,-3.2402,-3.2844,-3.2725,-3.282,-3.2884,-3.2916,-3.2916,-3.2939,-3.2997,-3.2997,-3.3063,-3.3174,-3.2483,-3.2529,-3.3231,-3.252,-3.263,-3.3423,-3.3332,-3.2985,-3.2548,-3.3049,-3.2948,-3.2556,-3.3047,-3.3312,-3.3332,-3.2557,-3.2165,-3.17,-2.9411,-2.8057,-2.7018,-2.4996,-2.4724,-2.5407,-2.6451,-2.6284,-2.604,-2.7549,-2.7531,-2.7177,-2.7734,-2.79,-2.8084,-2.886,-2.9042,-2.9079,-2.9191,-2.9075,-2.8686,-2.7761,-2.6861,-2.6032,-2.5346,-2.4618,-2.4114,-2.4097,-2.4211,-2.4301,-2.4355,-2.4639,-2.4856,-2.4903,-2.4922,-2.4922,-2.4922,-2.4922,-2.4922,-2.4922,-2.4204,-2.4128,-2.4884,-2.4104,-2.3706,-2.3833,-2.372,-2.372,-2.3859,-2.3833,-2.4225,-2.4996,-2.4996,-2.5037,-1.9224,-1.9813,-2.0207,-2.0599,-2.0749,-2.0947,-2.1326,-2.1848,0.0,0.0,-2.3304,-2.3628,-2.3568,-2.4498,-2.5592,-2.6468,-2.8007,-2.9646,-3.1196,-3.2232,-3.2632,-3.2073,-3.2442,-3.2237,-3.0908,-3.0309,-3.0302,-3.1044,-3.0241,-3.0471,-3.2299,-3.2657,-3.2838,-3.2884,-3.2916,-3.2594,-3.1964,-3.1946,-3.1655,-3.104,-3.0897,-3.1013,-3.1355,-3.121,-3.1701,-3.2566,-3.19,-3.2173,-3.2966,-3.1846,-3.2054,-3.2965,-3.1828,-3.1885,-3.2493,-3.1681,-3.0891,-2.9934,-2.8232,-2.697,-2.5991,-2.5266,-2.4677,-2.4403,-2.5248,-2.5438,-2.561,-2.6608,-2.6836,-2.6783,-2.6767,-2.6822,-2.7022,-2.7588,-2.7718,-2.79,-2.8573,-2.8694,-2.8658,-2.8633,-2.7447,-2.6432,-2.6418,-2.5224,-2.4247,-2.4133,-2.421,-2.4266,-2.4155,-2.4355,-2.4491,-2.4491,-2.4491,-2.4491,-2.4491,-2.4491,-2.4491,-2.4491,-2.436,-2.436,-2.4491,-2.3824,-2.3787,-2.4512,-2.3825,-2.385,-2.469,-2.4572,-2.4647,-2.4917,-2.4977,-2.501,-1.8667,-1.9423,-1.9952,-2.0271,-2.0536,-2.067,-2.0611,0.0,0.0,0.0,-2.2388,-2.2859,-2.3319,-2.4178,-2.5046,-2.5601,-2.6851,-2.8243,-2.9806,-3.0497,-3.0949,-3.1209,-3.1396,-3.1288,-3.0593,-2.9847,-2.9606,-3.0116,-2.9345,-2.9583,-3.1271,-3.1301,-3.132,-3.1384,-3.1511,-3.1426,-3.1082,-3.1082,-3.0886,-3.0511,-3.0118,-3.0194,-3.0668,-3.0273,-3.0815,-3.1993,-3.1181,-3.1199,-3.1748,-3.1002,-3.0897,-3.1183,-3.085,-3.0987,-3.1325,-3.0559,-2.9953,-2.9251,-2.7266,-2.624,-2.5629,-2.4635,-2.41,-2.4003,-2.4926,-2.4931,-2.4787,-2.5588,-2.5521,-2.5264,-2.5634,-2.5739,-2.594,-2.6607,-2.6783,-2.6892,-2.7272,-2.7363,-2.7514,-2.8027,-2.6809,-2.5867,-2.6359,-2.5098,-2.4018,-2.3958,-2.3998,-2.4018,-2.3959,-2.402,-2.4174,-2.4372,-2.4389,-2.4389,-2.4389,-2.4389,-2.4389,-2.4389,-2.4389,-2.4389,-2.4389,-2.4104,-2.4118,-2.4543,-2.4201,-2.4264,-2.4749,-2.4779,-2.4842,-2.4898,-2.4964,-2.4991,-1.8001,-1.8857,-1.9592,-1.994,-2.0181,-2.025,-1.9856,-2.0145,0.0,-2.0877,-2.1439,-2.2154,-2.3068,-2.3717,-2.4343,0.0,-2.5588,-2.667,-2.8526,-2.8602,-2.8978,-3.0354,-3.0413,-3.0276,-3.0112,-2.9534,-2.9201,-2.9201,-2.8736,-2.9008,-3.0192,-2.9987,-2.9854,-2.9887,-3.011,-3.0194,-3.0142,-3.0142,-3.0083,-2.9982,-2.9423,-2.9458,-2.9993,-2.9423,-2.9904,-3.1153,-3.0368,-3.019,-3.0457,-3.0136,-2.9851,-2.9665,-2.9904,-3.0118,-3.0172,-2.9423,-2.903,-2.8584,-2.6532,-2.5711,-2.5337,-2.3963,-2.3571,-2.3797,-2.4599,-2.4384,-2.4,-2.4588,-2.4277,-2.3894,-2.4536,-2.4721,-2.4942,-2.5746,-2.6077,-2.6204,-2.6204,-2.6204,-2.6439,-2.7254,-2.6113,-2.5262,-2.6059,-2.4864,-2.3795,-2.3795,-2.3795,-2.3795,-2.3795,-2.3795,-2.3921,-2.4247,-2.4284,-2.4284,-2.4284,-2.4284,-2.4284,-2.4284,-2.4284,-2.4284,-2.4284,-2.4301,-2.4337,-2.4389,-2.4493,-2.4575,-2.4639,-2.4779,-2.4856,-2.4898,-2.4917,-2.4945,-1.7776,-1.8344,-1.8922,-1.9786,-1.9573,-1.9255,-1.9716,0.0,-1.9768,-2.0424,-2.0986,-2.1707,-2.2743,-2.2992,0.0,0.0,0.0,-2.5395,-2.7196,-2.7519,-2.7952,-2.9136,-2.9665,-2.968,-2.8929,-2.8631,-2.8472,-2.8472,-2.7831,-2.8031,-2.9437,-2.9506,-2.9522,-2.9573,-2.9555,-2.9393,-2.8969,-2.9013,-2.8812,-2.8312,-2.8297,-2.8342,-2.8396,-2.8324,-2.8798,-2.9565,-2.878,-2.9219,-3.0384,-2.8976,-2.9201,-3.0277,-2.8923,-2.8869,-2.9405,-2.862,-2.7852,-2.7067,-2.6139,-2.5354,-2.4659,-2.3761,-2.3517,-2.3539,-2.3634,-2.3598,-2.3562,-2.3629,-2.3638,-2.3625,-2.3697,-2.3826,-2.4093,-2.4914,-2.5679,-2.6204,-2.6204,-2.6204,-2.6439,-2.7254,-2.6113,-2.5262,-2.6059,-2.4864,-2.3795,-2.3795,-2.3795,-2.3795,-2.3795,-2.3795,-2.3816,-2.3858,-2.3858,-2.3858,-2.3858,-2.3858,-2.3858,-2.3858,-2.3858,-2.3858,-2.3858,-2.4018,-2.4192,-2.4318,-2.432,-2.4478,-2.4779,-2.467,-2.4734,-2.4898,-2.4783,-2.4798,-1.7071,-1.7831,-1.8429,-1.8939,-1.8824,-1.8598,-1.8773,-1.8951,-1.9274,-1.9804,-2.068,-2.1676,-2.2711,-2.2889,0.0,0.0,0.0,0.0,-2.5531,-2.5984,-2.6638,-2.7844,-2.8487,-2.8862,-2.8917,-2.8336,-2.7689,-2.711,-2.68,-2.6895,-2.7448,-2.7657,-2.7777,-2.7827,-2.7961,-2.8004,-2.7837,-2.7851,-2.7774,-2.7569,-2.7748,-2.7617,-2.7187,-2.7343,-2.7602,-2.7906,-2.7103,-2.7371,-2.8317,-2.721,-2.7103,-2.7594,-2.6996,-2.696,-2.7192,-2.6871,-2.655,-2.6175,-2.5408,-2.4944,-2.4569,-2.3743,-2.3494,-2.3494,-2.3494,-2.3494,-2.3494,-2.3494,-2.3517,-2.3539,-2.3585,-2.3696,-2.3876,-2.4205,-2.4516,-2.4755,-2.4755,-2.4755,-2.5135,-2.6439,-2.5389,-2.4683,-2.5986,-2.4864,-2.3795,-2.3795,-2.3795,-2.3795,-2.3795,-2.3795,-2.3795,-2.3795,-2.3795,-2.3795,-2.3795,-2.3795,-2.3795,-2.3795,-2.3795,-2.3795,-2.3795,-2.3876,-2.3939,-2.4001,-2.4115,-2.4247,-2.4374,-2.4407,-2.4456,-2.454,-2.4526,-2.4543,-1.6684,-1.7401,-1.7952,-1.8267,-1.8253,-1.815,-1.7993,-1.8419,-1.8885,-1.9218,-2.0167,-2.1254,-2.2267,-2.2558,-2.283,0.0,0.0,-2.3834,-2.4492,-2.4758,-2.5328,-2.6658,-2.7114,-2.7504,-2.7931,-2.728,-2.6581,-2.602,-2.599,-2.6043,-2.6168,-2.638,-2.6503,-2.6538,-2.6742,-2.6908,-2.7038,-2.7021,-2.7085,-2.7181,-2.7369,-2.7121,-2.6382,-2.6571,-2.6559,-2.6393,-2.6047,-2.6109,-2.6473,-2.6153,-2.5913,-2.5793,-2.5818,-2.58,-2.58,-2.58,-2.5658,-2.5408,-2.4873,-2.4551,-2.4248,-2.3672,-2.3494,-2.3494,-2.3494,-2.3494,-2.3494,-2.3494,-2.3494,-2.3517,-2.3585,-2.3674,-2.3761,-2.3783,-2.3789,-2.3792,-2.3795,-2.3795,-2.4212,-2.5588,-2.4737,-2.423,-2.5606,-2.4701,-2.3795,-2.3795,-2.3795,-2.3795,-2.3795,-2.3795,-2.3795,-2.3795,-2.3795,-2.3795,-2.3795,-2.3795,-2.3795,-2.3795,-2.3795,-2.3795,-2.3795,-2.3795,-2.3816,-2.3896,-2.4016,-2.4133,-2.4154,-2.4247,-2.4318,-2.4336,-2.4319,-2.4301,-1.6623,-1.7043,-1.7379,-1.7799,-1.7896,-1.7897,-1.7751,-1.8191,-1.8652,-1.8779,-1.9373,-2.0127,-2.1218,-2.1827,-2.2267,0.0,0.0,0.0,-2.4492,-2.4044,-2.4103,-2.5465,-2.5499,-2.5392,-2.5349,-2.5076,-2.5114,-2.5465,-2.5503,-2.5721,-2.6184,-2.622,-2.6203,-2.622,-2.6203,-2.6345,-2.6606,-2.6674,-2.6825,-2.7103,-2.7181,-2.6816,-2.6087,-2.6105,-2.572,-2.5057,-2.5789,-2.5802,-2.5382,-2.6181,-2.6214,-2.5796,-2.5793,-2.58,-2.58,-2.58,-2.5337,-2.4712,-2.4694,-2.4177,-2.3494,-2.3494,-2.3494,-2.3494,-2.3494,-2.3494,-2.3494,-2.3494,-2.3494,-2.3517,-2.3585,-2.3585,-2.3629,-2.3761,-2.3804,-2.3807,-2.3813,-2.3795,-2.4031,-2.4846,-2.4357,-2.4049,-2.4864,-2.4339,-2.3795,-2.3795,-2.3795,-2.3795,-2.3795,-2.3795,-2.3795,-2.3795,-2.3795,-2.3795,-2.3795,-2.3795,-2.3795,-2.3795,-2.3795,-2.3795,-2.3795,-2.3795,-2.3896,-2.4094,-2.4094,-2.4173,-2.4301,-2.4301,-2.4336,-2.4389,-2.4192,-2.4098,-1.645,-1.6959,-1.7266,-1.7329,-1.7102,-1.6908,-1.7117,-1.7656,-1.8213,-1.8601,-1.9612,-2.0637,-2.1286,-2.1506,-2.1779,-2.2267,0.0,0.0,-2.3361,-2.3671,-2.4233,-2.5463,-2.5965,-2.6153,-2.5922,-2.545,-2.5155,-2.5091,-2.5098,-2.5291,-2.5684,-2.5721,-2.5864,-2.6168,-2.622,-2.6239,-2.631,-2.5863,-2.5881,-2.6486,-2.5676,-2.5176,-2.4951,-2.5133,-2.4809,-2.416,-2.489,-2.5126,-2.4953,-2.4878,-2.4671,-2.4321,-2.4015,-2.3804,-2.3702,-2.3847,-2.3756,-2.3612,-2.3562,-2.3386,-2.3193,-2.301,-2.3052,-2.3168,-2.3217,-2.336,-2.3494,-2.3494,-2.3494,-2.3517,-2.3517,-2.3562,-2.3607,-2.3652,-2.3739,-2.3804,-2.3807,-2.3792,-2.4031,-2.4846,-2.4339,-2.4049,-2.4864,-2.432,-2.3795,-2.3795,-2.3795,-2.3795,-2.3795,-2.3795,-2.3795,-2.3795,-2.3795,-2.3795,-2.3795,-2.3795,-2.3795,-2.3795,-2.3795,-2.3795,-2.3795,-2.3795,-2.3816,-2.3896,-2.3896,-2.3919,-2.3961,-2.3961,-2.3981,-2.3981,-2.3921,-2.419,0.0,-1.6854,-1.7002,-1.693,-1.7037,-1.7135,-1.7119,-1.7979,-1.8816,-1.8947,-1.9898,-2.0799,-2.1082,-2.1277,-2.1506,-2.1779,-2.1988,-2.2221,-2.2558,-2.3334,-2.4227,-2.5135,-2.56,-2.5663,-2.5271,-2.4889,-2.4648,-2.467,-2.4679,-2.4823,-2.5237,-2.5018,-2.504,-2.531,-2.5911,-2.6071,-2.5806,-2.5342,-2.5193,-2.5359,-2.488,-2.451,-2.4257,-2.47,-2.4489,-2.3854,-2.4588,-2.4788,0.0,-2.4316,-2.4012,-2.3639,-2.3102,-2.2807,-2.273,-2.285,-2.2927,-2.2952,-2.2902,-2.291,-2.291,-2.2833,-2.2902,-2.302,-2.3045,-2.3265,-2.3494,-2.3383,-2.3336,-2.3336,-2.3313,-2.336,-2.3448,-2.3539,-2.3674,-2.3783,-2.3804,-2.381,-2.394,-2.4447,-2.4139,-2.3937,-2.4356,-2.4078,-2.3774,-2.3689,-2.3753,-2.3774,-2.3707,-2.3753,-2.3774,-2.3689,-2.3753,-2.3795,-2.3795,-2.3795,-2.3795,-2.3795,-2.3795,-2.3795,-2.3795,-2.3795,-2.3795,-2.3795,-2.3795,-2.3795,-2.3795,-2.3795,-2.3795,-2.3795,-2.3795,-2.423,0.0,-1.691,-1.6796,-1.6738,-1.7549,-1.8239,-1.7666,-1.892,0.0,-1.9684,-2.0195,-2.0699,-2.0699,-2.1033,-2.1375,-2.1375,-2.1732,-2.1988,-2.2035,-2.313,-2.4075,-2.4565,-2.4641,-2.4328,-2.3686,-2.3581,-2.3724,-2.4219,-2.4173,-2.4333,-2.4745,-2.4137,-2.3796,-2.3834,-2.5212,-2.5669,-2.5076,-2.506,-2.4729,-2.4166,-2.4746,-2.4696,-2.41,-2.4795,-2.4729,-2.4116,-2.4862,-2.4913,-2.4423,-2.4399,-2.4143,-2.3648,-2.2934,-2.2651,-2.2651,-2.2634,-2.2677,-2.266,-2.2677,-2.266,-2.2686,-2.2876,-2.2927,-2.2952,-2.297,-2.3193,-2.3383,-2.3126,-2.3052,-2.3052,-2.3003,-2.3045,-2.3168,-2.3424,-2.3567,-2.3678,-2.3721,-2.3728,-2.3735,-2.3774,-2.3774,-2.371,-2.3553,-2.3646,-2.371,-2.3553,-2.3685,-2.371,-2.3531,-2.3667,-2.3732,-2.3531,-2.3707,-2.3795,-2.3795,-2.3795,-2.3795,-2.3795,-2.3795,-2.3795,-2.3795,-2.3795,-2.3795,-2.3795,-2.3795,-2.3795,-2.3795,-2.3795,-2.3795,-2.3795,-2.385,-2.432,-1.8414,0.0,-1.8179,-1.8028,-1.8172,-1.8377,0.0,-1.8887,-1.9554,0.0,0.0,0.0,-2.0699,-2.0799,-2.0848,-2.0848,-2.0934,-2.1166,-2.1506,-2.2951,-2.422,-2.4855,-2.4765,-2.4455,-2.3858,-2.3361,-2.3246,-2.3724,-2.2961,-2.2832,-2.3646,-2.3033,-2.2811,-2.3127,-2.3503,-2.4007,-2.4694,-2.4396,-2.4746,-2.5673,-2.4713,-2.4464,-2.4862,-2.5027,-2.5011,-2.4878,-2.5624,-2.5891,-2.5695,-2.4726,-2.4188,-2.3825,-2.2676,-2.2141,-2.2044,-2.2181,-2.2265,-2.232,-2.2265,-2.2265,-2.232,-2.232,-2.2347,-2.2429,-2.2624,-2.2782,-2.2884,-2.2807,-2.2782,-2.2833,-2.2952,-2.3045,-2.3102,-2.3102,-2.3223,-2.3277,-2.314,-2.3105,-2.3206,-2.3513,-2.3576,-2.3598,-2.371,-2.3642,-2.3598,-2.371,-2.3642,-2.362,-2.3728,-2.3774,-2.3774,-2.3732,-2.3774,-2.3795,-2.3795,-2.3795,-2.3795,-2.3795,-2.3795,-2.3795,-2.3795,-2.3795,-2.3795,-2.3795,-2.3795,-2.3795,-2.3795,-2.3795,-2.3795,-2.3813,-2.4429,-2.5153,-1.9625,-1.9156,-1.8627,-1.8597,-1.8712,-1.8891,-1.8939,0.0,0.0,0.0,0.0,0.0,0.0,-2.0699,-2.0699,-2.0699,-2.0699,-2.1083,-2.2079,-2.3059,-2.3854,-2.446,-2.4461,-2.404,-2.3159,-2.2758,-2.274,-2.3246,-2.2425,-2.223,-2.2991,-2.2117,-2.1659,-2.1889,-2.1744,-2.2343,-2.3767,-2.3573,-2.3958,-2.4914,-2.4474,-2.4526,-2.5127,-2.5458,-2.5607,-2.564,-2.6038,-2.6021,-2.5624,-2.458,-2.3914,-2.3371,-2.2362,-2.1899,-2.1811,-2.1911,-2.1998,-2.2027,-2.1969,-2.2039,-2.2136,-2.2124,-2.2108,-2.2164,-2.2337,-2.2337,-2.2309,-2.2446,-2.2456,-2.2483,-2.2581,-2.2634,-2.2712,-2.2799,-2.2892,-2.2975,-2.2917,-2.3007,-2.3159,-2.344,-2.3576,-2.3642,-2.3664,-2.3664,-2.3642,-2.3664,-2.3664,-2.3642,-2.3664,-2.3732,-2.3753,-2.3667,-2.3732,-2.3795,-2.3795,-2.3795,-2.3795,-2.3795,-2.3795,-2.3795,-2.3795,-2.3795,-2.3795,-2.3795,-2.3795,-2.3795,-2.3795,-2.4157,-2.4339,-2.4375,-2.5172,-2.5986,-2.0562,-1.9814,-1.9068,-1.905,-1.9278,-1.9564,-1.971,0.0,0.0,0.0,0.0,0.0,0.0,-2.0777,-2.083,-2.083,-2.0908,-2.1442,-2.2854,-2.3094,-2.3264,-2.3705,-2.3724,-2.3272,-2.2113,-2.1988,-2.2235,-2.274,-2.2032,-2.1758,-2.2295,-2.1248,-2.0593,-2.0593,-2.0379,-2.1034,-2.2635,-2.2744,-2.3088,-2.3629,-2.4245,-2.4704,-2.5023,-2.565,-2.59,-2.5872,-2.5872,-2.5524,-2.4878,-2.4149,-2.3454,-2.2824,-2.2079,-2.1797,-2.1797,-2.1797,-2.1797,-2.1797,-2.1797,-2.1911,-2.2039,-2.2039,-2.2039,-2.2039,-2.2039,-2.194,-2.184,-2.2068,-2.2136,-2.2136,-2.2124,-2.2136,-2.2248,-2.2473,-2.2573,-2.266,-2.2798,-2.3007,-2.323,-2.3463,-2.3642,-2.371,-2.3576,-2.3664,-2.3728,-2.3553,-2.3646,-2.3689,-2.3553,-2.3689,-2.3732,-2.3553,-2.3689,-2.3795,-2.3795,-2.3795,-2.3795,-2.3795,-2.3795,-2.3795,-2.3795,-2.3795,-2.3795,-2.3795,-2.3922,-2.3976,-2.3976,-2.4791,-2.519,-2.5208,-2.6023,-2.6765,-2.0749,-2.0884,-2.09,-2.0369,-2.0154,-2.0105,-2.0332,0.0,0.0,0.0,0.0,0.0,0.0,-2.1054,-2.1381,-2.1381,-2.1786,-2.2205,-2.2484,-2.251,-2.2577,-2.2657,-2.2612,-2.2269,-2.1574,-2.1506,-2.1732,-2.2189,-2.0789,-2.0152,-2.0656,-2.037,-2.0177,-2.0177,-2.0474,-2.1016,-2.1862,-2.2502,-2.3417,-2.4664,-2.4775,-2.475,-2.4606,-2.472,-2.462,-2.4348,-2.4348,-2.4265,-2.4116,-2.3371,-2.299,-2.2824,-2.2079,-2.1797,-2.1797,-2.1797,-2.1797,-2.1797,-2.1797,-2.1811,-2.184,-2.184,-2.184,-2.184,-2.184,-2.1811,-2.1811,-2.184,-2.1869,-2.1899,-2.2068,-2.2136,-2.2192,-2.2181,-2.222,-2.2313,-2.2449,-2.2502,-2.2738,-2.3353,-2.3508,-2.3598,-2.3732,-2.3642,-2.3598,-2.3732,-2.3642,-2.3598,-2.3732,-2.3774,-2.3795,-2.3753,-2.3774,-2.3795,-2.3795,-2.3795,-2.3795,-2.3795,-2.3795,-2.3795,-2.3795,-2.3795,-2.3795,-2.3795,-2.4465,-2.4809,-2.4809,-2.5624,-2.6023,-2.6041,-2.6856,-2.729,-2.0542,-2.074,-2.0868,-2.0649,-2.0783,-2.0875,-2.0627,0.0,0.0,0.0,0.0,0.0,0.0,-2.1119,-2.1616,-2.1917,-2.193,-2.2008,-2.2363,-2.2415,-2.231,-2.1956,-2.1877,-2.1621,-2.1099,-2.0704,-2.0745,-2.1222,-1.9942,-1.9316,-1.981,-2.0005,-1.9938,-1.9589,-2.0286,-2.0857,-2.1171,-2.1508,-2.2454,-2.4037,-2.4037,-2.4099,-2.4159,-2.3795,-2.3549,-2.3398,-2.3398,-2.3289,-2.3096,-2.2769,-2.2486,-2.2261,-2.1913,-2.1797,-2.1797,-2.1797,-2.1797,-2.1797,-2.1797,-2.1797,-2.1797,-2.1797,-2.1797,-2.1797,-2.1797,-2.1797,-2.1797,-2.1797,-2.1797,-2.1811,-2.1911,-2.1969,-2.1969,-2.194,-2.2039,-2.2192,-2.2368,-2.2634,-2.2958,-2.3417,-2.3576,-2.3689,-2.3774,-2.371,-2.3689,-2.3795,-2.371,-2.3707,-2.3795,-2.3795,-2.3795,-2.3795,-2.3795,-2.3795,-2.3795,-2.3795,-2.3795,-2.3795,-2.3795,-2.3795,-2.3795,-2.3795,-2.3994,-2.4429,-2.4809,-2.5208,-2.566,-2.6475,-2.6856,-2.6874,-2.7689,-2.8051,-2.0415,-2.0487,-2.057,-2.0483,0.0,-2.1198,-2.0804,0.0,0.0,0.0,0.0,0.0,-2.0675,-2.1119,-2.1655,-2.2086,-2.2021,-2.1969,-2.2139,-2.2336,-2.2152,-2.1577,-2.1276,-2.0936,-2.0555,-1.993,-1.9719,-2.0099,-1.9145,-1.8737,-1.9059,-1.9551,-1.9609,-1.9241,-2.0002,-2.0445,-2.0607,-2.059,-2.1353,-2.2906,-2.2906,-2.3049,-2.3242,-2.2728,-2.2469,-2.2397,-2.2397,-2.2269,-2.2037,-2.2037,-2.1842,-2.157,-2.157,-2.1601,-2.1678,-2.1678,-2.1738,-2.1797,-2.1797,-2.1797,-2.1797,-2.1797,-2.1797,-2.1797,-2.1797,-2.1797,-2.1797,-2.1797,-2.1797,-2.1797,-2.1797,-2.1797,-2.1797,-2.1797,-2.1911,-2.2096,-2.2313,-2.2704,-2.3074,-2.3307,-2.3513,-2.3646,-2.3646,-2.3646,-2.3667,-2.371,-2.3732,-2.3753,-2.3795,-2.3795,-2.3795,-2.3795,-2.3795,-2.3795,-2.3795,-2.3795,-2.3795,-2.3795,-2.3795,-2.3795,-2.3795,-2.3795,-2.4085,-2.4701,-2.49,-2.5407,-2.6204,-2.7019,-2.7508,-2.7707,-2.8297,-2.8637,-2.0512,-2.0717,-2.1002,-1.9948,-2.0226,0.0,-2.0712,-2.1067,0.0,-2.0817,0.0,0.0,-2.0804,-2.1119,-2.1525,-2.1564,-2.2426,-2.274,-2.1721,-2.2034,-2.2152,-2.1577,-2.0584,-1.9917,-1.9865,-1.9316,-1.8976,-1.9009,-1.8472,-1.8175,-1.8175,-1.8652,-1.9138,-1.9628,-1.9545,-1.9738,-2.0316,-2.0215,-2.0725,-2.1794,-2.1794,-2.1682,-2.1399,-2.1353,-2.1175,-2.0936,-2.0936,-2.0954,-2.0939,-2.0939,-2.0907,-2.086,-2.086,-2.1055,-2.134,-2.134,-2.1526,-2.1797,-2.1797,-2.1797,-2.1797,-2.1797,-2.1797,-2.1797,-2.1797,-2.1797,-2.1797,-2.1797,-2.1797,-2.1797,-2.1797,-2.1797,-2.1797,-2.1797,-2.1811,-2.1911,-2.2248,-2.2395,-2.2556,-2.2873,-2.3074,-2.314,-2.314,-2.314,-2.3236,-2.3486,-2.3508,-2.3598,-2.3774,-2.3795,-2.3795,-2.3795,-2.3795,-2.3795,-2.3795,-2.3795,-2.3795,-2.3795,-2.3795,-2.3795,-2.3795,-2.3795,-2.3831,-2.3886,-2.461,-2.5407,-2.6204,-2.7019,-2.7773,-2.8515,-2.8569,-2.8612,-2.012,-2.0524,-2.0964,-2.0283,0.0,0.0,0.0,-2.0794,-2.1355,-2.1237,-2.1355,0.0,-2.1224,-2.1067,-2.1211,-2.1956,-2.2126,-2.1877,-2.1093,-2.121,-2.1,-2.0009,-1.9512,-1.9251,-1.9251,-1.8728,-1.8401,-1.8401,-1.7865,-1.7539,-1.7539,-1.8352,-1.8726,-1.8507,-1.9085,-1.9317,-1.9204,-1.9137,-1.9416,-2.0079,-2.0774,-2.1023,-2.0887,-2.0464,-2.0188,-2.01,-2.01,-2.0239,-2.0429,-2.0429,-2.0563,-2.0794,-2.0794,-2.099,-2.1277,-2.1055,-2.1214,-2.1495,-2.1495,-2.1495,-2.1526,-2.1738,-2.1797,-2.1797,-2.1797,-2.1797,-2.1797,-2.1797,-2.1797,-2.1797,-2.1797,-2.1797,-2.1797,-2.1797,-2.1899,-2.2039,-2.2231,-2.2625,-2.2933,-2.3074,-2.3153,-2.32,-2.3164,-2.3157,-2.3212,-2.3359,-2.3531,-2.366,-2.3774,-2.3795,-2.3795,-2.3795,-2.3795,-2.3795,-2.3795,-2.3795,-2.3795,-2.3795,-2.3795,-2.3795,-2.3795,-2.3795,-2.4031,-2.4538,-2.5335,-2.6149,-2.6964,-2.7737,-2.8297,-2.8587,-2.8587,-2.8612,-2.0191,-2.0612,-2.0948,0.0,0.0,0.0,-2.0022,-2.0601,-2.1407,-2.1459,-2.1511,-2.1459,-2.1276,-2.0974,-2.0974,-2.1734,-2.1668,-2.1315,-2.0791,-2.0699,-2.0345,-1.9303,-1.8872,-1.8649,-1.8649,-1.814,-1.7891,-1.8087,-1.7721,-1.7568,-1.7728,-1.8428,-1.8628,-1.8167,-1.8713,-1.8796,-1.8399,-1.8314,-1.8397,-1.8717,-1.9569,-2.0152,-2.0378,-1.9789,-1.9581,-1.969,-1.969,-1.9818,-2.005,-2.005,-2.0189,-2.0444,-2.0444,-2.0646,-2.0926,-2.0712,-2.0844,-2.1151,-2.1246,-2.1309,-2.134,-2.1587,-2.1691,-2.1781,-2.1661,-2.1738,-2.1797,-2.1797,-2.1797,-2.1797,-2.1797,-2.1797,-2.1797,-2.1797,-2.1928,-2.201,-2.2124,-2.2466,-2.2798,-2.2798,-2.2908,-2.3,-2.296,-2.301,-2.3091,-2.3265,-2.3463,-2.3638,-2.3774,-2.3795,-2.3795,-2.3795,-2.3795,-2.3795,-2.3795,-2.3795,-2.3795,-2.3795,-2.3795,-2.3795,-2.3795,-2.3795,-2.4049,-2.461,-2.5153,-2.5968,-2.7037,-2.758,-2.808,-2.8587,-2.8587,-2.8612,-2.0963,-2.0961,-2.1058,0.0,0.0,0.0,-1.9956,-2.0701,-2.1511,-2.1511,-2.1511,-2.1342,-2.0804,-2.0699,-2.0699,-2.0699,-2.1132,-2.1302,-2.0777,-2.0699,-2.0489,-1.9865,-1.8793,-1.81,-1.81,-1.7565,-1.746,-1.8061,-1.81,-1.8346,-1.8866,-1.8879,-1.89,-1.8906,-1.8383,-1.8133,-1.8091,-1.7925,-1.7822,-1.7809,-1.8271,-1.8936,-1.969,-1.9288,-1.9325,-1.969,-1.969,-1.969,-1.969,-1.969,-1.969,-1.969,-1.969,-1.9909,-2.0208,-2.0208,-2.0462,-2.0827,-2.1183,-2.1277,-2.1277,-2.1309,-2.1526,-2.1738,-2.1402,-2.1556,-2.1797,-2.1797,-2.1797,-2.1797,-2.1797,-2.1797,-2.1797,-2.1797,-2.1797,-2.1797,-2.1797,-2.184,-2.1882,-2.1899,-2.2175,-2.2405,-2.2405,-2.2552,-2.2842,-2.3241,-2.3289,-2.3412,-2.3753,-2.3795,-2.3795,-2.3795,-2.3795,-2.3795,-2.3795,-2.3795,-2.3795,-2.3795,-2.3795,-2.3795,-2.3795,-2.3795,-2.3795,-2.3795,-2.3795,-2.4592,-2.6204,-2.6204,-2.7037,-2.8587,-2.8587,-2.8587,-2.0865,-2.1152,0.0,-2.2031,0.0,0.0,0.0,-2.1519,0.0,0.0,-2.1511,-2.1342,-2.0804,-2.0699,-2.0699,-2.0699,-2.0843,-2.0714,-2.0139,-1.9804,-1.9438,-1.8814,-1.8053,-1.7619,-1.7619,-1.7743,-1.7904,-1.8087,-1.8453,-1.8715,-1.8897,-1.891,-1.8923,-1.8917,-1.864,-1.8537,-1.8503,-1.8351,-1.8231,-1.816,-1.8393,-1.8735,-1.9132,-1.902,-1.9147,-1.9487,-1.9258,-1.9332,-1.9632,-1.969,-1.969,-1.969,-1.969,-1.9909,-2.0174,-1.9945,-2.0085,-2.0395,-2.0481,-2.0514,-2.063,-2.1135,-2.1371,-2.1464,-2.1617,-2.1738,-2.1797,-2.1797,-2.1797,-2.1797,-2.1797,-2.1797,-2.1797,-2.1797,-2.1797,-2.1797,-2.1797,-2.1998,-2.2136,-2.2068,-2.2181,-2.2309,-2.2215,-2.2226,-2.2364,-2.2625,-2.2993,-2.3371,-2.3753,-2.3795,-2.3795,-2.3795,-2.3795,-2.3795,-2.3795,-2.3795,-2.3795,-2.3795,-2.3795,-2.3795,-2.3795,-2.3795,-2.3795,-2.3795,-2.4357,-2.4882,-2.5353,-2.6493,-2.729,-2.7779,-2.8334,-2.8587,-2.1705,-2.1972,0.0,-2.2593,-2.2295,-2.1903,-2.1766,0.0,-2.1342,-2.1211,-2.1355,-2.1342,-2.0804,-2.0699,-2.0699,-2.0699,-2.0536,-2.0256,-1.9771,-1.9183,-1.8561,-1.8105,-1.7696,-1.7421,-1.7164,-1.7618,-1.7949,-1.7919,-1.8434,-1.8865,-1.9089,-1.9274,-1.9317,-1.909,-1.9028,-1.8785,-1.8308,-1.8236,-1.8042,-1.7745,-1.7837,-1.8013,-1.8277,-1.8751,-1.8976,-1.8974,-1.8959,-1.9035,-1.9176,-1.9545,-1.9617,-1.9472,-1.9654,-1.9818,-1.998,-1.9782,-1.9818,-2.0015,-2.0139,-2.0208,-2.0311,-2.0909,-2.1183,-2.134,-2.1556,-2.1691,-2.1797,-2.1797,-2.1797,-2.1797,-2.1797,-2.1566,-2.1433,-2.1715,-2.1797,-2.1797,-2.1797,-2.1969,-2.2068,-2.1998,-2.2124,-2.2192,-2.2108,-2.2237,-2.2473,-2.2678,-2.3129,-2.3535,-2.3774,-2.3795,-2.3795,-2.3795,-2.3795,-2.3795,-2.3795,-2.3795,-2.3795,-2.3795,-2.3795,-2.3795,-2.3795,-2.3795,-2.3795,-2.3795,-2.4284,-2.4683,-2.5009,-2.6294,-2.7091,-2.7435,-2.825,-2.8587,-2.2985,-2.3026,-2.2965,-2.2569,-2.1944,-2.1345,-2.0812,-2.1054,-2.1289,-2.0817,-2.1067,-2.1276,-2.0804,-2.0649,-2.0649,-2.0699,-2.0271,-1.9888,-1.967,-1.8736,-1.8025,-1.7693,-1.7649,-1.7436,-1.6872,-1.7338,-1.7689,-1.7576,-1.8145,-1.8746,-1.9283,-1.98,-1.985,-1.9321,-1.9321,-1.8784,-1.7793,-1.7752,-1.7467,-1.6961,-1.6987,-1.708,-1.7269,-1.8394,-1.862,-1.8182,-1.8698,-1.8669,-1.8345,-1.9156,-1.9295,-1.9051,-1.9479,-1.969,-1.969,-1.969,-1.969,-1.9747,-2.005,-2.0174,-2.0243,-2.0646,-2.099,-2.1246,-2.1246,-2.1495,-2.1751,-2.1751,-2.1797,-2.1797,-2.1797,-2.1284,-2.0981,-2.1632,-2.1748,-2.1715,-2.1781,-2.1797,-2.1797,-2.1797,-2.1969,-2.2096,-2.2096,-2.249,-2.2876,-2.3157,-2.3535,-2.3774,-2.3795,-2.3795,-2.3795,-2.3795,-2.3795,-2.3795,-2.3795,-2.3795,-2.3795,-2.3795,-2.3795,-2.3795,-2.3795,-2.3795,-2.3795,-2.3795,-2.3795,-2.4157,-2.49,-2.5769,-2.6584,-2.7327,-2.8171,-2.8587,-2.2705,-2.2797,0.0,-2.3626,-2.2921,-2.1943,-2.0954,-2.0804,-2.0856,-2.0725,-2.0804,-2.0856,-2.0725,-2.0385,-2.0271,-2.0649,-2.0029,-1.9552,-1.9747,-1.8919,-1.8212,-1.8028,-1.7484,-1.7111,-1.6956,-1.7357,-1.7608,-1.7611,-1.8184,-1.856,-1.8684,-1.8852,-1.8887,-1.8801,-1.8659,-1.851,-1.8248,-1.8138,-1.7823,-1.7301,-1.7731,-1.7465,-1.668,-1.7366,-1.7381,-1.6914,-1.7467,-1.7255,-1.6633,-1.7622,-1.8187,-1.8447,-1.9009,-1.942,-1.969,-1.969,-1.969,-1.9726,-1.9782,-1.998,-2.0208,-2.0311,-2.0597,-2.0893,-2.0893,-2.1151,-2.1402,-2.1402,-2.1617,-2.1797,-2.1797,-2.1665,-2.1582,-2.1748,-2.135,-2.1114,-2.1665,-2.1797,-2.1797,-2.1797,-2.1969,-2.2096,-2.2096,-2.2354,-2.2712,-2.3133,-2.3417,-2.362,-2.3774,-2.3795,-2.3795,-2.3795,-2.3795,-2.3795,-2.3795,-2.3795,-2.3795,-2.3795,-2.3795,-2.3795,-2.3795,-2.3795,-2.3795,-2.3795,-2.3795,-2.3886,-2.4049,-2.5497,-2.6294,-2.6493,-2.7918,-2.8587,-2.3164,0.0,0.0,-2.3407,0.0,-2.1803,-2.1014,-2.0749,-2.0633,-2.0309,-2.0515,-2.0699,-2.0699,-2.0485,-2.0321,-2.0372,-1.9823,-1.9303,-1.9121,-1.8429,-1.7843,-1.7611,-1.7176,-1.6868,-1.683,-1.6796,-1.6762,-1.6693,-1.7054,-1.7373,-1.7561,-1.7921,-1.8179,-1.838,-1.8333,-1.816,-1.7941,-1.7861,-1.7526,-1.6974,-1.7262,-1.7087,-1.6522,-1.685,-1.685,-1.6593,-1.6913,-1.6694,-1.6186,-1.7393,-1.8071,-1.8424,-1.9104,-1.9508,-1.969,-1.9457,-1.953,-1.969,-1.9472,-1.9639,-1.998,-2.0139,-2.0345,-2.0579,-2.0909,-2.1151,-2.134,-2.1495,-2.1678,-2.1797,-2.1797,-2.1532,-2.135,-2.1715,-2.1499,-2.1317,-2.1715,-2.1797,-2.1797,-2.1797,-2.1882,-2.1969,-2.1969,-2.2226,-2.2634,-2.3157,-2.3389,-2.3576,-2.3774,-2.3795,-2.3795,-2.3795,-2.3795,-2.3795,-2.3795,-2.3795,-2.3795,-2.3795,-2.3795,-2.3795,-2.3795,-2.4157,-2.4194,-2.3795,-2.4176,-2.4375,-2.4375,-2.5986,-2.6783,-2.6819,-2.8131,-2.8687,-2.3613,0.0,-2.317,-2.2673,-2.2002,-2.1383,-2.1068,-2.0848,-2.0542,-1.9917,-2.0178,-2.0529,-2.0424,-2.0312,-2.0101,-1.9775,-1.9354,-1.8819,-1.8183,-1.7662,-1.728,-1.6993,-1.6742,-1.659,-1.6525,-1.6074,-1.573,-1.5589,-1.5708,-1.5925,-1.6303,-1.6822,-1.7278,-1.7669,-1.7716,-1.7597,-1.7147,-1.718,-1.6986,-1.6522,-1.6522,-1.6522,-1.6522,-1.662,-1.6612,-1.6541,-1.6625,-1.6402,-1.6127,-1.7367,-1.8016,-1.8321,-1.9066,-1.942,-1.9457,-1.9124,-1.9236,-1.9545,-1.9213,-1.9384,-1.9818,-2.005,-2.0208,-2.0379,-2.0942,-2.1214,-2.134,-2.1648,-2.1768,-2.1797,-2.1797,-2.1334,-2.1036,-2.1648,-2.1797,-2.1797,-2.1797,-2.1797,-2.1797,-2.1797,-2.184,-2.1869,-2.1899,-2.2237,-2.2678,-2.3199,-2.3435,-2.3598,-2.3774,-2.3795,-2.3795,-2.3795,-2.3795,-2.3795,-2.3795,-2.3795,-2.3795,-2.3795,-2.3837,-2.3837,-2.3837,-2.466,-2.4769,-2.4073,-2.4813,-2.5208,-2.5208,-2.6693,-2.7417,-2.7435,-2.8403,-2.8761,-2.3257,0.0,-2.2112,0.0,-2.1459,-2.0926,-2.0975,-2.0911,-2.0667,-1.993,-1.9865,-1.976,-1.9237,-1.863,-1.8261,-1.8595,-1.8101,-1.7571,-1.7193,-1.706,-1.6933,-1.673,-1.6155,-1.589,-1.6321,-1.5733,-1.53,-1.5258,-1.5164,-1.517,-1.5219,-1.5345,-1.5452,-1.5486,-1.5927,-1.6114,-1.5997,-1.6405,-1.6597,-1.6522,-1.6522,-1.6522,-1.6522,-1.6522,-1.6258,-1.5847,-1.6028,-1.58,-1.5389,-1.6283,-1.6873,-1.7276,-1.7822,-1.8305,-1.8655,-1.8592,-1.8822,-1.9176,-1.9101,-1.9551,-2.007,-1.9854,-2.0204,-2.0679,-2.0429,-2.0795,-2.1325,-2.134,-2.1587,-2.1797,-2.1797,-2.1715,-2.1665,-2.1764,-2.1797,-2.1797,-2.1797,-2.1797,-2.1797,-2.1797,-2.194,-2.2141,-2.236,-2.2694,-2.3003,-2.3182,-2.3481,-2.3703,-2.3795,-2.3795,-2.3795,-2.3795,-2.3795,-2.3795,-2.3795,-2.3795,-2.3795,-2.3795,-2.3958,-2.4074,-2.4074,-2.4945,-2.5331,-2.5095,-2.571,-2.6041,-2.6041,-2.6964,-2.7417,-2.7435,-2.8257,-2.8637,-2.2784,-2.2543,-2.2394,0.0,-2.1613,-2.0908,-2.1098,-2.0536,-1.9774,-1.9074,-1.8878,-1.8813,-1.8634,-1.8367,-1.8049,-1.7798,-1.7745,-1.7494,-1.688,-1.6945,-1.6954,-1.6569,-1.5515,-1.5153,-1.592,-1.4768,-1.4213,-1.4898,-1.4475,-1.4345,-1.4726,-1.4716,-1.4834,-1.5108,-1.5579,-1.5788,-1.5788,-1.625,-1.6522,-1.6522,-1.6522,-1.6522,-1.6522,-1.6522,-1.6045,-1.5268,-1.5399,-1.5337,-1.5209,-1.5557,-1.62,-1.7049,-1.7501,-1.7803,-1.8035,-1.8387,-1.8745,-1.9101,-1.9101,-1.9457,-1.9909,-1.998,-2.0189,-2.0496,-2.073,-2.0909,-2.1119,-2.1448,-2.1556,-2.1556,-2.1768,-2.1797,-2.1797,-2.1797,-2.1797,-2.1797,-2.1797,-2.1797,-2.184,-2.194,-2.2039,-2.2198,-2.2497,-2.2738,-2.2952,-2.3223,-2.3458,-2.3682,-2.3935,-2.3976,-2.4016,-2.4077,-2.4077,-2.4077,-2.4077,-2.4077,-2.4077,-2.4077,-2.4172,-2.4431,-2.493,-2.5782,-2.641,-2.6811,-2.6966,-2.6991,-2.6874,-2.7664,-2.8062,-2.8087,-2.8548,-2.8712,0.0,0.0,-2.2461,-2.2638,-2.1802,-2.1037,-2.1478,-2.0635,-1.9573,-1.8693,-1.8446,-1.8293,-1.7903,-1.7857,-1.7626,-1.6967,-1.7203,-1.7158,-1.6362,-1.658,-1.6712,-1.6325,-1.5126,-1.4657,-1.5488,-1.3978,-1.3355,-1.427,-1.3784,-1.3674,-1.4258,-1.4233,-1.4373,-1.4686,-1.5175,-1.5478,-1.5611,-1.6207,-1.6522,-1.6522,-1.6522,-1.6446,-1.6308,-1.6308,-1.5706,-1.4714,-1.5081,-1.5273,-1.5389,-1.5346,-1.5912,-1.6831,-1.7136,-1.7153,-1.7135,-1.7859,-1.8389,-1.8772,-1.9006,-1.9347,-1.9747,-1.998,-2.0139,-2.0311,-2.0861,-2.0974,-2.1023,-2.154,-2.154,-2.1495,-2.1738,-2.1797,-2.1797,-2.1797,-2.1797,-2.1797,-2.1797,-2.184,-2.1911,-2.2068,-2.2153,-2.2326,-2.2579,-2.2747,-2.2952,-2.3247,-2.3435,-2.3682,-2.4054,-2.4113,-2.4153,-2.4284,-2.4321,-2.4339,-2.4339,-2.4339,-2.4339,-2.4339,-2.4579,-2.4985,-2.5652,-2.6693,-2.7512,-2.8068,-2.8128,-2.8062,-2.7833,-2.8433,-2.8743,-2.8743,-2.8839,-2.8834,0.0,-2.1784,0.0,-2.2185,-2.1659,-2.1222,-2.2033,-2.1758,-2.0907,-1.9533,-1.9316,-1.8729,-1.669,-1.633,-1.6186,-1.5763,-1.5858,-1.5797,-1.5269,-1.5624,-1.5946,-1.5946,-1.5242,-1.4787,-1.4856,-1.3924,-1.3329,-1.3382,-1.3115,-1.3155,-1.3637,-1.3658,-1.3668,-1.3668,-1.4186,-1.4697,-1.5153,-1.6032,-1.6522,-1.6522,-1.6522,-1.6245,-1.5731,-1.5731,-1.518,-1.4222,-1.5334,-1.5843,-1.5883,-1.594,-1.6073,-1.623,-1.627,-1.6009,-1.5717,-1.6694,-1.7329,-1.7786,-1.8772,-1.9347,-1.969,-1.9711,-1.9945,-2.0208,-2.0243,-2.073,-2.1277,-2.1309,-2.1556,-2.1797,-2.1797,-2.1797,-2.1797,-2.1797,-2.1797,-2.1797,-2.1797,-2.194,-2.2096,-2.2096,-2.2354,-2.2579,-2.2598,-2.2876,-2.3126,-2.3277,-2.3526,-2.3786,-2.4054,-2.4096,-2.4155,-2.4283,-2.4372,-2.4389,-2.4389,-2.4389,-2.4389,-2.4389,-2.529,-2.5843,-2.5881,-2.7573,-2.8438,-2.8278,-2.9026,-2.9282,-2.9008,-2.9045,-2.9064,-2.9064,-2.8938,-2.8887,-2.1233,0.0,0.0,-2.1381,-2.1057,-2.0991,-2.1467,-2.102,-2.0298,-1.9562,-1.8916,-1.8093,-1.6925,-1.6499,-1.6085,-1.538,-1.5637,-1.5693,-1.5188,-1.5556,-1.5762,-1.5441,-1.4778,-1.4508,-1.4835,-1.4015,-1.3464,-1.3564,-1.3252,-1.2965,-1.2895,-1.2796,-1.2751,-1.2751,-1.3828,-1.4896,-1.5988,-1.6001,-1.617,-1.6509,-1.6158,-1.5881,-1.568,-1.5329,-1.479,-1.411,-1.455,-1.4765,-1.4765,-1.447,-1.4657,-1.5116,-1.5116,-1.5144,-1.5336,-1.6122,-1.7065,-1.7993,-1.839,-1.903,-1.9762,-1.9945,-2.0104,-2.0277,-2.0763,-2.0942,-2.1087,-2.1495,-2.1556,-2.1526,-2.1721,-2.1797,-2.184,-2.1969,-2.1982,-2.2039,-2.2275,-2.2337,-2.2426,-2.2571,-2.2721,-2.285,-2.3077,-2.3289,-2.3453,-2.3549,-2.3682,-2.3852,-2.4074,-2.4095,-2.4135,-2.4284,-2.4321,-2.4374,-2.4459,-2.4512,-2.458,-2.4645,-2.4986,-2.569,-2.683,-2.7484,-2.8296,-2.9319,-2.9603,-2.957,-2.9212,-2.9212,-2.9212,-2.923,-2.9123,-2.9097,-2.0955,-2.1103,0.0,-2.158,-2.1051,-2.0782,-2.16,-2.1125,-2.0321,-1.9731,-1.9171,-1.8428,-1.7277,-1.6878,-1.6362,-1.5257,-1.5383,-1.5487,-1.5154,-1.5418,-1.5463,-1.4925,-1.4564,-1.4384,-1.4418,-1.3916,-1.3532,-1.3423,-1.329,-1.307,-1.2731,-1.2623,-1.255,-1.2468,-1.3535,-1.4712,-1.5966,-1.5786,-1.5881,-1.6233,-1.5869,-1.5492,-1.5167,-1.4802,-1.4337,-1.3808,-1.3808,-1.3957,-1.412,-1.3823,-1.397,-1.4423,-1.4472,-1.4577,-1.4755,-1.5688,-1.6544,-1.7424,-1.8124,-1.8797,-1.9426,-1.9884,-2.012,-2.0277,-2.0795,-2.0942,-2.1055,-2.1526,-2.1556,-2.1526,-2.1721,-2.1882,-2.1998,-2.2153,-2.233,-2.252,-2.2738,-2.2712,-2.2738,-2.2952,-2.3077,-2.3217,-2.3448,-2.3585,-2.3674,-2.3739,-2.3771,-2.3876,-2.4074,-2.4095,-2.4172,-2.4375,-2.441,-2.4444,-2.4528,-2.4561,-2.4645,-2.4742,-2.4998,-2.5718,-2.6911,-2.7528,-2.8361,-2.9477,-2.9761,-2.9771,-2.9513,-2.9474,-2.9474,-2.9474,-2.9355,-2.9272,0.0,0.0,0.0,-2.2789,-2.1585,-2.0599,-2.2376,-2.2125,-2.1122,-2.0064,-2.0201,-1.9863,-1.7647,-1.7264,-1.6812,-1.536,-1.5108,-1.5108,-1.5108,-1.5108,-1.4926,-1.4466,-1.4627,-1.4484,-1.3618,-1.3663,-1.3521,-1.2997,-1.3282,-1.3388,-1.3076,-1.3065,-1.2976,-1.2815,-1.3301,-1.4035,-1.4971,-1.5439,-1.5655,-1.5668,-1.5655,-1.513,-1.4085,-1.4072,-1.377,-1.3198,-1.3198,-1.3534,-1.4096,-1.4169,-1.4228,-1.43,-1.4433,-1.4215,-1.3987,-1.5272,-1.5773,-1.609,-1.7973,-1.8687,-1.8807,-1.9501,-1.9945,-2.0208,-2.0208,-2.073,-2.1309,-2.1309,-2.1556,-2.1797,-2.1811,-2.2068,-2.2313,-2.2313,-2.2755,-2.3188,-2.3212,-2.3126,-2.3052,-2.3182,-2.3412,-2.3585,-2.3625,-2.3718,-2.3804,-2.3804,-2.381,-2.3876,-2.4074,-2.4096,-2.4229,-2.4566,-2.4594,-2.4591,-2.4607,-2.4607,-2.4607,-2.4607,-2.5405,-2.5935,-2.6099,-2.7752,-2.8657,-2.8695,-2.9491,-2.9888,-2.9888,-2.9823,-2.9808,-2.9808,-2.9589,-2.9455,-2.204,0.0,0.0,0.0,0.0,0.0,-2.0782,-2.0475,-2.0162,-2.0232,-1.9686,-1.8915,-1.7956,-1.7268,-1.6618,-1.573,-1.5322,-1.5108,-1.5108,-1.5108,-1.4926,-1.4466,-1.4697,-1.4687,-1.4187,-1.437,-1.4317,-1.3814,-1.3441,-1.2986,-1.2431,-1.1908,-1.2041,-1.2862,-1.2636,-1.3288,-1.492,-1.4663,-1.4739,-1.513,-1.4739,-1.4387,-1.4072,-1.3647,-1.3405,-1.3323,-1.3323,-1.348,-1.3654,-1.362,-1.3654,-1.3723,-1.3826,-1.3973,-1.4216,-1.4574,-1.5342,-1.6308,-1.729,-1.8081,-1.8841,-1.9767,-2.0104,-2.0311,-2.0828,-2.1151,-2.134,-2.1587,-2.1738,-2.1869,-2.2096,-2.2341,-2.2608,-2.2883,-2.3091,-2.3277,-2.3504,-2.3526,-2.3504,-2.3499,-2.3562,-2.3629,-2.3739,-2.3783,-2.3807,-2.3792,-2.3795,-2.3876,-2.4074,-2.4113,-2.4172,-2.4357,-2.4391,-2.4424,-2.451,-2.4575,-2.4642,-2.4742,-2.5024,-2.546,-2.6061,-2.7218,-2.8042,-2.8476,-2.9427,-2.9823,-2.9681,-2.9805,-2.9874,-2.9874,-2.9806,-2.9664,-2.2426,-2.2374,-2.2482,-2.1369,0.0,0.0,-2.0496,-2.0181,-1.9878,-2.0189,-1.981,-1.9194,-1.8468,-1.7746,-1.7003,-1.6268,-1.5756,-1.5379,-1.5153,-1.5108,-1.4926,-1.4373,-1.4501,-1.4444,-1.4035,-1.428,-1.4268,-1.3872,-1.3617,-1.3156,-1.2468,-1.1833,-1.1927,-1.285,-1.2404,-1.2937,-1.4563,-1.4249,-1.4249,-1.4563,-1.4273,-1.4031,-1.3803,-1.3474,-1.3357,-1.3459,-1.3459,-1.3459,-1.3514,-1.3648,-1.3648,-1.3547,-1.3661,-1.3927,-1.4332,-1.4461,-1.5082,-1.6043,-1.7063,-1.7888,-1.8715,-1.9832,-2.0413,-2.073,-2.1183,-2.1402,-2.1556,-2.1768,-2.1899,-2.2068,-2.2286,-2.2617,-2.2947,-2.3194,-2.3335,-2.3491,-2.3685,-2.3747,-2.3725,-2.3682,-2.3682,-2.3703,-2.3789,-2.3789,-2.381,-2.3795,-2.3876,-2.3976,-2.4094,-2.4153,-2.4248,-2.441,-2.4425,-2.4458,-2.4545,-2.4575,-2.4623,-2.4707,-2.4783,-2.5049,-2.5584,-2.6479,-2.7112,-2.7422,-2.8372,-2.8804,-2.8681,-2.95,-2.9907,-2.9888,-2.9891,-2.9771,-2.3048,-2.2886,0.0,-2.2666,-2.1395,0.0,-2.0933,-2.0528,-1.9989,-1.9953,-2.0052,-1.9822,-1.8837,-1.8269,-1.7721,-1.6879,-1.6423,-1.5917,-1.5289,-1.5153,-1.4926,-1.4316,-1.4269,-1.4082,-1.3552,-1.3836,-1.3946,-1.3695,-1.385,-1.3638,-1.2995,-1.2327,-1.2291,-1.2939,-1.2514,-1.283,-1.402,-1.4033,-1.4033,-1.4033,-1.4092,-1.3874,-1.3425,-1.3459,-1.348,-1.3514,-1.3514,-1.3514,-1.356,-1.3967,-1.3934,-1.3682,-1.3841,-1.4105,-1.4397,-1.4732,-1.5027,-1.5534,-1.705,-1.7849,-1.8392,-1.9736,-2.0619,-2.1212,-2.1324,-2.1587,-2.1869,-2.1899,-2.2124,-2.2385,-2.2476,-2.2898,-2.33,-2.3346,-2.3588,-2.3795,-2.3795,-2.3816,-2.3837,-2.3837,-2.3837,-2.3837,-2.3858,-2.3858,-2.3858,-2.3858,-2.4016,-2.4133,-2.4152,-2.4266,-2.4407,-2.4596,-2.4626,-2.4623,-2.4623,-2.4623,-2.4623,-2.4623,-2.4689,-2.4783,-2.4903,-2.574,-2.6162,-2.6084,-2.6934,-2.7384,-2.7399,-2.8909,-2.9683,-2.9756,-2.968,-2.9578,-2.4632,-2.4079,-2.3458,-2.29,-2.2027,0.0,-2.047,-1.974,-1.9161,-1.9026,-1.8661,-1.8257,-1.7905,-1.7847,-1.7599,-1.6981,-1.7057,-1.6898,-1.5961,-1.5591,-1.5187,-1.4514,-1.4617,-1.4582,-1.4082,-1.4326,-1.4525,-1.4631,-1.3987,-1.3489,-1.3223,-1.249,-1.2436,-1.3193,-1.2938,-1.3025,-1.3612,-1.3612,-1.3612,-1.3612,-1.3612,-1.3595,-1.3493,-1.348,-1.3514,-1.3581,-1.3581,-1.3628,-1.3775,-1.4124,-1.4144,-1.4019,-1.4447,-1.4651,-1.4732,-1.5088,-1.5239,-1.5461,-1.653,-1.7121,-1.7683,-1.9343,-2.0129,-2.0594,-2.1437,-2.194,-2.2275,-2.2512,-2.2669,-2.2782,-2.3063,-2.3218,-2.3371,-2.3628,-2.3735,-2.3795,-2.3795,-2.3917,-2.4036,-2.4036,-2.4036,-2.4075,-2.4191,-2.421,-2.421,-2.421,-2.4229,-2.4321,-2.4479,-2.453,-2.4613,-2.4753,-2.4813,-2.4808,-2.4764,-2.4808,-2.4827,-2.4764,-2.4808,-2.487,-2.4898,-2.574,-2.6118,-2.5946,-2.6735,-2.7234,-2.7399,-2.7786,-2.8313,-2.8922,-2.8275,-2.8183,-2.5397,-2.483,-2.4224,-2.3484,-2.2439,0.0,0.0,-1.9732,-1.9072,-1.9519,-1.8924,-1.8377,-1.8609,-1.8406,-1.8039,-1.763,-1.7704,-1.7545,-1.6833,-1.6429,-1.597,-1.5371,-1.5005,-1.4663,-1.4387,-1.449,-1.4585,-1.4663,-1.3987,-1.347,-1.3358,-1.2666,-1.2576,-1.3319,-1.3106,-1.3173,-1.348,-1.348,-1.348,-1.348,-1.3514,-1.3547,-1.3547,-1.3628,-1.3674,-1.3695,-1.3894,-1.3993,-1.4105,-1.4592,-1.4766,-1.469,-1.4763,-1.4887,-1.5058,-1.5239,-1.5492,-1.5872,-1.6683,-1.7265,-1.7839,-1.906,-1.9661,-2.0122,-2.1036,-2.1714,-2.2248,-2.2721,-2.284,-2.2925,-2.3312,-2.3468,-2.3598,-2.3753,-2.3876,-2.3937,-2.3937,-2.4075,-2.4228,-2.4321,-2.4339,-2.4339,-2.4302,-2.432,-2.4356,-2.4356,-2.4409,-2.4495,-2.4578,-2.4692,-2.4798,-2.4893,-2.4966,-2.5006,-2.4994,-2.5019,-2.5038,-2.5006,-2.5019,-2.5025,-2.4993,-2.5457,-2.5653,-2.5546,-2.5911,-2.6152,-2.6252,-2.6284,-2.6916,-2.8085,-2.7702,-2.7576,-2.5706,-2.5305,-2.4896,-2.4028,-2.2908,-2.183,0.0,0.0,0.0,-2.0255,-1.959,-1.9014,-1.9683,-1.9202,-1.8606,-1.8302,-1.8309,-1.8171,-1.7707,-1.7308,-1.6848,-1.6196,-1.5395,-1.4801,-1.4652,-1.4652,-1.4598,-1.4557,-1.399,-1.365,-1.3599,-1.2887,-1.2794,-1.3444,-1.3408,-1.3437,-1.356,-1.3663,-1.3663,-1.356,-1.3682,-1.3749,-1.3749,-1.3841,-1.3921,-1.3921,-1.417,-1.43,-1.4351,-1.5013,-1.5315,-1.5344,-1.5149,-1.5209,-1.5418,-1.5521,-1.5839,-1.628,-1.6879,-1.746,-1.8032,-1.8718,-1.9427,-2.0183,-2.1012,-2.1735,-2.2368,-2.2923,-2.3063,-2.3087,-2.3468,-2.3685,-2.3795,-2.3855,-2.4016,-2.4152,-2.4134,-2.4247,-2.441,-2.4564,-2.4629,-2.4594,-2.4441,-2.4441,-2.4474,-2.4474,-2.4575,-2.4639,-2.4654,-2.4808,-2.4934,-2.5006,-2.5075,-2.5134,-2.5201,-2.5192,-2.5203,-2.5203,-2.5203,-2.519,-2.513,-2.519,-2.5212,-2.522,-2.5179,-2.5145,-2.513,-2.5144,-2.5876,-2.7262,-2.711,-2.7002,-2.5554,-2.5468,-2.5182,-2.4159,-2.3717,-2.3063,-2.1153,0.0,-2.0209,-2.0151,0.0,-1.9487,-2.004,0.0,0.0,-1.8468,-1.8933,-1.9022,-1.8173,-1.7922,-1.7472,-1.6318,-1.5727,-1.5379,-1.521,-1.521,-1.5142,-1.5028,-1.4228,-1.3935,-1.4281,-1.339,-1.3117,-1.3655,-1.4141,-1.4237,-1.3754,-1.4224,-1.4224,-1.3788,-1.4059,-1.4222,-1.4222,-1.4235,-1.4235,-1.4268,-1.4268,-1.43,-1.4351,-1.5013,-1.5433,-1.5681,-1.5938,-1.5911,-1.5784,-1.6301,-1.634,-1.6231,-1.6541,-1.6901,-1.7329,-1.8062,-1.9584,-2.1353,-2.2628,-2.3071,-2.3212,-2.3588,-2.358,-2.3486,-2.371,-2.3753,-2.3774,-2.4016,-2.4172,-2.4284,-2.4284,-2.4425,-2.4564,-2.461,-2.4734,-2.4842,-2.4764,-2.4749,-2.4749,-2.4749,-2.4764,-2.4794,-2.4856,-2.4947,-2.5013,-2.5082,-2.5149,-2.5184,-2.5192,-2.5194,-2.5205,-2.5205,-2.5205,-2.5215,-2.5283,-2.5274,-2.5293,-2.5293,-2.5274,-2.5283,-2.5283,-2.5283,-2.5677,-2.642,-2.5697,-2.5709,-2.5776,-2.5566,-2.5259,-2.4316,-2.3615,-2.2804,-2.1366,-2.0821,-2.0704,-2.096,0.0,0.0,0.0,0.0,0.0,0.0,-1.9158,-1.8868,-1.7917,-1.749,-1.7147,-1.6873,-1.6046,-1.5531,-1.5591,-1.5254,-1.5045,-1.499,-1.4452,-1.407,-1.3839,-1.3803,-1.3682,-1.3523,-1.3908,-1.4167,-1.4245,-1.4167,-1.4167,-1.4245,-1.4299,-1.43,-1.43,-1.4493,-1.4588,-1.462,-1.4811,-1.4873,-1.4921,-1.5565,-1.5896,-1.605,-1.6523,-1.6538,-1.6301,-1.6554,-1.6696,-1.6732,-1.6917,-1.7142,-1.7548,-1.8481,-2.0072,-2.177,-2.2491,-2.2939,-2.3265,-2.3671,-2.371,-2.3667,-2.3896,-2.4018,-2.4078,-2.4192,-2.4356,-2.4461,-2.4474,-2.4654,-2.4823,-2.4832,-2.4955,-2.5063,-2.5037,-2.4994,-2.4953,-2.4917,-2.4968,-2.5024,-2.5019,-2.5103,-2.5212,-2.5274,-2.5293,-2.5339,-2.5374,-2.5363,-2.5363,-2.5363,-2.5337,-2.5365,-2.5468,-2.5445,-2.5426,-2.5468,-2.5441,-2.5426,-2.5418,-2.5385,-2.5495,-2.5773,-2.5384,-2.539,-2.5153,-2.508,-2.4937,-2.3809,-2.3157,-2.2539,-2.1628,-2.1176,-2.1217,-2.2126,-2.2219,0.0,0.0,0.0,-2.0995,-2.0106,0.0,-1.9023,-1.7898,-1.7314,-1.7049,-1.7174,-1.6405,-1.5927,-1.6107,-1.5484,-1.5097,-1.5127,-1.4554,-1.4069,-1.38,-1.4033,-1.4079,-1.3919,-1.4141,-1.4432,-1.4726,-1.4501,-1.4491,-1.466,-1.4607,-1.456,-1.456,-1.4825,-1.4949,-1.4949,-1.5255,-1.5433,-1.5477,-1.6105,-1.6378,-1.6512,-1.6977,-1.7027,-1.6892,-1.6926,-1.7027,-1.7183,-1.7502,-1.7919,-1.8528,-1.9585,-2.0865,-2.2076,-2.2495,-2.2936,-2.3359,-2.3774,-2.3855,-2.3858,-2.4096,-2.4266,-2.4374,-2.4422,-2.4575,-2.4723,-2.476,-2.4921,-2.5057,-2.5056,-2.5126,-2.5201,-2.5205,-2.516,-2.5118,-2.5088,-2.5168,-2.5205,-2.5163,-2.5254,-2.535,-2.5398,-2.5441,-2.5471,-2.5525,-2.5531,-2.5538,-2.5538,-2.5473,-2.5506,-2.5593,-2.5556,-2.5556,-2.5593,-2.5543,-2.5537,-2.5525,-2.5479,-2.5439,-2.5459,-2.5365,-2.5331,-2.3182,-2.3808,-2.4023,-2.2318,-2.2447,-2.2758,-2.1891,-2.1533,-2.1845,-2.3486,-2.3667,-2.3709,-2.4229,-2.3598,-2.2551,0.0,-2.0678,0.0,0.0,-1.7961,-1.7632,-1.7009,-1.6874,-1.6863,-1.6876,-1.6074,-1.5624,-1.5774,-1.4484,-1.4013,-1.47,-1.406,-1.4098,-1.5107,-1.5384,-1.5379,-1.5107,-1.564,-1.5544,-1.4805,-1.5133,-1.5269,-1.5255,-1.5285,-1.5285,-1.5299,-1.5565,-1.5724,-1.5823,-1.6443,-1.6876,-1.7167,-1.7191,-1.7337,-1.7566,-1.7566,-1.7408,-1.7338,-1.8302,-1.9348,-2.0401,-2.147,-2.202,-2.2414,-2.3218,-2.3624,-2.3816,-2.4016,-2.4094,-2.4114,-2.4265,-2.4442,-2.4629,-2.4746,-2.4893,-2.5019,-2.5153,-2.5187,-2.5198,-2.5182,-2.5214,-2.5205,-2.5186,-2.5205,-2.5215,-2.5274,-2.5284,-2.5293,-2.5293,-2.5346,-2.5395,-2.5406,-2.5525,-2.5593,-2.5601,-2.5593,-2.5599,-2.5599,-2.5595,-2.5605,-2.5605,-2.5605,-2.5605,-2.5605,-2.5605,-2.5605,-2.5605,-2.5586,-2.5586,-2.5581,-2.5466,-2.5406,-2.3091,-2.3745,-2.412,-2.2949,-2.3299,-2.3695,-2.2764,-2.2925,-2.3252,-2.3236,-2.4057,-2.4649,-2.4162,-2.3835,-2.3373,0.0,0.0,-2.033,0.0,-1.8551,-1.7856,-1.7349,-1.6926,-1.6638,-1.6449,-1.6147,-1.5684,-1.4953,-1.5375,-1.5411,-1.4826,-1.5545,-1.5918,-1.5721,-1.61,-1.6363,-1.6542,-1.6194,-1.6301,-1.6821,-1.6082,-1.5832,-1.6095,-1.605,-1.6024,-1.6037,-1.612,-1.6285,-1.6496,-1.6876,-1.7117,-1.7216,-1.7455,-1.7873,-1.8329,-1.7849,-1.8036,-1.8659,-1.9734,-2.077,-2.168,-2.2052,-2.2694,-2.335,-2.3617,-2.3834,-2.4016,-2.4074,-2.4266,-2.4445,-2.4478,-2.4673,-2.4884,-2.4915,-2.5038,-2.5141,-2.519,-2.5224,-2.5274,-2.5313,-2.5359,-2.5406,-2.5467,-2.546,-2.542,-2.5321,-2.5398,-2.5478,-2.543,-2.5486,-2.5529,-2.5535,-2.5571,-2.56,-2.5595,-2.56,-2.5609,-2.5591,-2.5636,-2.5671,-2.5662,-2.5662,-2.5668,-2.5664,-2.5671,-2.5668,-2.5664,-2.5664,-2.5664,-2.5664,-2.5629,-2.5574,-2.2137,-2.2791,-2.3274,-2.2387,-2.2827,-2.332,-2.2712,-2.2979,-2.3281,-2.302,-2.4034,-2.4791,-2.4161,-2.4261,-2.4116,0.0,0.0,0.0,0.0,-1.8829,-1.8166,-1.7945,-1.7706,-1.7421,-1.7102,-1.6834,-1.6382,-1.5712,-1.6018,-1.6132,-1.5828,-1.6614,-1.707,-1.7047,-1.7056,-1.7284,-1.7681,-1.7116,-1.7271,-1.81,-1.697,-1.6615,-1.6998,-1.6678,-1.6543,-1.6543,-1.6649,-1.6789,-1.7002,-1.7288,-1.7384,-1.7432,-1.7715,-1.8308,-1.892,-1.845,-1.907,-2.0269,-2.1066,-2.1953,-2.274,-2.274,-2.3253,-2.3896,-2.3795,-2.3958,-2.419,-2.4266,-2.4444,-2.4657,-2.4719,-2.4907,-2.5075,-2.5126,-2.5212,-2.5274,-2.5303,-2.5354,-2.543,-2.5464,-2.5512,-2.5551,-2.5582,-2.5613,-2.5574,-2.5421,-2.5512,-2.5585,-2.5566,-2.5604,-2.564,-2.5636,-2.5644,-2.5644,-2.5636,-2.5648,-2.5634,-2.5645,-2.5687,-2.5694,-2.5709,-2.5709,-2.5693,-2.57,-2.5694,-2.5693,-2.57,-2.57,-2.57,-2.57,-2.57,-2.567]},{"header":{"parameterUnit":"m.s-1","parameterCategory":1,"la1":30.6,"la2":29.2853,"lo1":-89.7004,"lo2":-87.6739,"dy":0.0162,"dx":0.0183,"nx":112,"ny":82,"refTime":"2026-03-21T12:00:00:Z","depth":0,"parameterNumber":3,"parameterNumberName":"V-component_of_WINDS"},"data":[0.0,0.0,0.0,0.0,0.0,0.0,0.0,0.0,0.0,0.0,0.0,0.0,0.0,0.0,0.0,0.0,0.0,0.0,0.0,0.0,0.0,0.0,0.0,0.0,0.0,0.0,0.0,0.0,0.0,0.0,0.0,0.0,0.0,0.0,0.0,0.0,0.0,0.0,0.0,0.0,0.0,0.0,0.0,0.0,0.0,0.0,0.0,0.0,0.0,0.0,0.0,0.0,0.0,0.0,0.0,0.0,0.0,0.0,0.0,0.0,0.0,0.0,0.0,0.0,0.0,0.0,0.0,0.0,0.0,0.0,0.0,0.0,0.0,0.0,0.0,0.0,0.0,0.0,0.0,0.0,0.0,0.0,0.0,0.0,0.0,0.0,0.0,0.0,0.0,0.0,0.0,0.0,0.0,0.0,0.0,0.0,0.0,-0.0071,0.0,0.0,0.0,0.0,0.0,0.0,0.0,0.0,0.0,0.0,0.0,0.0,0.0,0.0,0.0,0.0,0.0,0.0,0.0,0.0,0.0,0.0,0.0,0.0,0.0,0.0,0.0,0.0,0.0,0.0,0.0,0.0,0.0,0.0,0.0,0.0,0.0,0.0,0.0,0.0,0.0,0.0,0.0,0.0,0.0,0.0,0.0,0.0,0.0,0.0,0.0,0.0,0.0,0.0,0.0,0.0,0.0,0.0,0.0,0.0,0.0,0.0,0.0,0.0,0.0,0.0,0.0,0.0,0.0,0.0,0.0,0.0,0.0,0.0,0.0,0.0,0.0,0.0,0.0,0.0,0.0,0.0,0.0,0.0,0.0,0.0,0.0,0.0,0.0,0.0,0.0,0.0,0.0,0.0,0.0,0.0,0.0,0.0,0.0,0.0,0.0,0.0,0.0,0.0,0.0,0.0,0.0,0.0,0.0,0.0,-0.0075,-0.0218,0.0,0.0,0.0,0.0,0.0,0.0,0.0,0.0,0.0,0.0,0.0,0.0,0.0,0.0,0.0,0.0,0.0,0.0,0.0,0.0,0.0,0.0,0.0,0.0,0.0,0.0,0.0,0.0,0.0,0.0,0.0,0.0,0.0,0.0,0.0,0.0,0.0,0.0,0.0,0.0,0.0,0.0,0.0,0.0,0.0,0.0,0.0,0.0,0.0,0.0,0.0,0.0,0.0,0.0,0.0,0.0,0.0,0.0,0.0,0.0,0.0,0.0,0.0,0.0,0.0,0.0,0.0,0.0,0.0,0.0,0.0,0.0,0.0,0.0,0.0,0.0,0.0,0.0,0.0,0.0,0.0,0.0,0.0,0.0,0.0,0.0,0.0,0.0,0.0,0.0,0.0,0.0,0.0,0.0,0.0,0.0,0.0,0.0,0.0,0.0,0.0,0.0,0.0,0.0,0.0,0.0,0.0,0.0,0.0,-0.0078,-0.0228,-0.0292,-0.0694,0.0,0.0,0.0,0.0,0.0,0.0,0.0,0.0,0.0,0.0,0.0,0.0,0.0,0.0,0.0,0.0,0.0,0.0,0.0,0.0,0.0,0.0,0.0,0.0,0.0,0.0,0.0,0.0,0.0,0.0,0.0,0.0,0.0,0.0,0.0,0.0,0.0,0.0,0.0,0.0,0.0,0.0,0.0,0.0,0.0,0.0,0.0,0.0,0.0,0.0,0.0,0.0,0.0,0.0,0.0,0.0,0.0,0.0,0.0,0.0,0.0,0.0,0.0,0.0,0.0,0.0,0.0,0.0,0.0,0.0,0.0,0.0,0.0,0.0,0.0,0.0,0.0,0.0,0.0,0.0,0.0,0.0,0.0,0.0,0.0,0.0,0.0,0.0,0.0,0.0,0.0,0.0,0.0,0.0,0.0,0.0,0.0,0.0,0.0,0.0,0.0,0.0,0.0,0.0,0.0,0.0,0.0,0.0,-0.0155,-0.0303,-0.0362,-0.0615,0.0,0.0,0.0,0.0,0.0,0.0,0.0,0.0,0.0,0.0,0.0,0.0,0.0,0.0,0.0,0.0,0.0,0.0,0.0,0.0,0.0,0.0,0.0,0.0,0.0,0.0,0.0,0.0,0.0,0.0,0.0,0.0,0.0,0.0,0.0,0.0,0.0,0.0,0.0,0.0,0.0,0.0,0.0,0.0,0.0,0.0,0.0,0.0,0.0,0.0,0.0,0.0,0.0,0.0,0.0,0.0,0.0,0.0,0.0,0.0,0.0,0.0,0.0,0.0,0.0,0.0,0.0,0.0,0.0,0.0,0.0,0.0,0.0,0.0,0.0,0.0,0.0,0.0,0.0,0.0,0.0,0.0,0.0,0.0,0.0,0.0,0.0,0.0,0.0,0.0,0.0,0.0,0.0,0.0,0.0,0.0,0.0,0.0,0.0,0.0,0.0,0.0,0.0,0.0,0.0,0.0,0.0,0.0,-0.0151,-0.029,-0.0492,-0.0651,0.0,0.0,0.0,0.0,0.0,0.0,0.0,0.0,0.0,0.0,0.0,0.0,0.0,0.0,0.0,0.0,0.0,0.0,0.0,0.0,0.0,0.0,0.0,0.0,0.0,0.0,0.0,0.0,0.0,0.0,0.0,0.0,0.0,0.0,0.0,0.0,0.0,0.0,0.0,0.0,0.0,0.0,0.0,0.0,0.0,0.0,0.0,0.0,0.0,0.0,0.0,0.0,0.0,0.0,0.0,0.0,0.0,0.0,0.0,0.0,0.0,0.0,0.0,0.0,0.0,0.0,0.0,0.0,0.0,0.0,0.0,0.0,0.0,0.0,0.0,0.0,0.0,0.0,0.0,0.0,0.0,0.0,0.0,0.0,0.0,0.0,0.0,0.0,0.0,0.0,0.0,0.0,0.0,0.0,0.0,0.0,0.0,0.0,0.0,0.0,0.0,0.0,0.0,0.0,0.0,-0.0079,-0.0157,-0.0157,-0.0457,-0.066,-0.0703,0.0,0.0,0.0,0.0,0.0,0.0,0.0,0.0,0.0,0.0,0.0,0.0,0.0,0.0,0.0,0.0,0.0,0.0,0.0,0.0,0.0,0.0,0.0,0.0,0.0,0.0,0.0,0.0,0.0,0.0,0.0,0.0,0.0,0.0,0.0,0.0,0.0,0.0,0.0,0.0,0.0,0.0,0.0,0.0,0.0,0.0,0.0,0.0,0.0,0.0,0.0,0.0,0.0,0.0,0.0,0.0,0.0,0.0,0.0,0.0,0.0,0.0,0.0,0.0,0.0,0.0,0.0,0.0,0.0,0.0,0.0,0.0,0.0,0.0,0.0,0.0,0.0,0.0,0.0,0.0,0.0,0.0,0.0,0.0,0.0,0.0,0.0,0.0,0.0,0.0,0.0,0.0,0.0,0.0,0.0,0.0,0.0,0.0,0.0,0.0,0.0,0.0,-0.0067,-0.014,-0.022,-0.0155,-0.0313,-0.039,-0.0384,-0.067,-0.086,-0.0754,0.0,0.0,0.0,0.0,0.0,0.0,0.0,0.0,0.0,0.0,0.0,0.0,0.0,0.0,0.0,0.0,0.0,0.0,0.0,0.0,0.0,0.0,0.0,0.0,0.0,0.0,0.0,0.0,0.0,0.0,0.0,0.0,0.0,0.0,0.0,0.0,0.0,0.0,0.0,0.0,0.0,0.0,0.0,0.0,0.0,0.0,0.0,0.0,0.0,0.0,0.0,0.0,0.0,0.0,0.0,0.0,0.0,0.0,0.0,0.0,0.0,0.0,0.0,0.0,0.0,0.0,0.0,0.0,0.0,0.0,0.0,0.0,0.0,0.0,0.0,0.0,0.0,0.0,0.0,0.0,0.0,0.0,0.0,0.0,0.0,0.0,0.0,0.0,0.0,0.0,0.0,0.0,0.0,0.0,0.0,0.0,0.0,0.0,0.0,0.0,0.0,0.0,-0.0269,-0.0506,-0.0605,-0.0606,-0.0619,-0.0539,-0.0512,-0.0695,-0.0799,0.0,0.0,0.0,0.0,0.0,0.0,0.0,0.0,0.0,0.0,0.0,0.0,0.0,0.0,0.0,0.0,0.0,0.0,0.0,0.0,0.0,0.0,0.0,0.0,0.0,0.0,0.0,0.0,0.0,0.0,0.0,0.0,0.0,0.0,0.0,0.0,0.0,0.0,0.0,0.0,0.0,0.0,0.0,0.0,0.0,0.0,0.0,0.0,0.0,0.0,0.0,0.0,0.0,0.0,0.0,0.0,0.0,0.0,0.0,0.0,0.0,0.0,0.0,0.0,0.0,0.0,0.0,0.0,0.0,0.0,0.0,0.0,0.0,0.0,0.0,0.0,0.0,0.0,0.0,0.0,0.0,0.0,0.0,0.0,0.0,0.0,0.0,0.0,0.0,0.0,0.0,0.0,0.0,0.0,0.0,0.0,0.0,0.0,0.0,0.0,0.0,0.0,0.0,-0.0468,-0.0489,-0.0582,-0.0603,-0.075,-0.0815,-0.0803,-0.0903,-0.0989,-0.0942,0.0,0.0,0.0,0.0,0.0,0.0,0.0,0.0,0.0,0.0,0.0,0.0,0.0,0.0,0.0,0.0,0.0,0.0,0.0,0.0,0.0,0.0,0.0,0.0,0.0,0.0,0.0,0.0,0.0,0.0,0.0,0.0,0.0,0.0,0.0,0.0,0.0,0.0,0.0,0.0,0.0,0.0,0.0,0.0,0.0,0.0,0.0,0.0,0.0,0.0,0.0,0.0,0.0,0.0,0.0,0.0,0.0,0.0,0.0,0.0,0.0,0.0,0.0,0.0,0.0,0.0,0.0,0.0,0.0,0.0,0.0,0.0,0.0,0.0,0.0,0.0,0.0,0.0,0.0,0.0,0.0,0.0,0.0,0.0,0.0,0.0,0.0,0.0,0.0,0.0,0.0,0.0,0.0,0.0,0.0,0.0,0.0,0.0,0.0,0.0,0.0,0.0,-0.0591,-0.0685,-0.0777,-0.0794,-0.0936,-0.0996,-0.0976,-0.1002,-0.1026,-0.099,0.0,0.0,0.0,0.0,0.0,0.0,0.0,0.0,0.0,0.0,0.0,0.0,0.0,0.0,0.0,0.0,0.0,0.0,0.0,0.0,0.0,0.0,0.0,0.0,0.0,0.0,0.0,0.0,0.0,0.0,0.0,0.0,0.0,0.0,0.0,0.0,0.0,0.0,0.0,0.0,0.0,0.0,0.0,0.0,0.0,0.0,0.0,0.0,0.0,0.0,0.0,0.0,0.0,0.0,0.0,0.0,0.0,0.0,0.0,0.0,0.0,0.0,0.0,0.0,0.0,0.0,0.0,0.0,0.0,0.0,0.0,0.0,0.0,0.0,0.0,0.0,0.0,0.0,0.0,0.0,0.0,0.0,0.0,0.0,0.0,0.0,0.0,0.0,0.0,0.0,0.0,0.0,0.0,0.0,0.0,0.0,0.0,0.0,0.0,0.0,0.0,0.0,-0.0833,-0.101,-0.11,-0.1078,-0.1095,-0.1088,-0.0973,-0.1003,-0.0984,-0.0984,0.0,0.0,0.0,0.0,0.0,0.0,0.0,0.0,0.0,0.0,0.0,0.0,0.0,0.0,0.0,0.0,0.0,0.0,0.0,0.0,0.0,0.0,0.0,0.0,0.0,0.0,0.0,0.0,0.0,0.0,0.0,0.0,0.0,0.0,0.0,0.0,0.0,0.0,0.0,0.0,0.0,0.0,0.0,0.0,0.0,0.0,0.0,0.0,0.0,0.0,0.0,0.0,0.0,0.0,0.0,0.0,0.0,0.0,0.0,0.0,0.4382,0.43,0.0,0.0,0.0,0.0,0.0,0.0,0.0,0.0,0.0,0.0,0.0,0.0,0.0,0.0,0.0,0.0,0.0,0.0,0.0,0.0,0.0,0.0,0.0,0.0,0.0,0.0,0.0,0.0,0.0,0.0,0.0,0.0,0.0,0.0,0.0,0.0,0.0,0.0,0.0,0.0,-0.0959,-0.1024,-0.1031,-0.1072,-0.104,-0.1021,-0.1033,-0.0922,-0.0893,-0.0893,-0.089,0.0,0.0,0.0,0.0,0.0,0.0,0.0,0.0,0.0,0.0,0.0,0.0,0.0,0.0,0.0,0.0,0.0,0.0,0.0,0.0,0.0,0.0,0.0,0.0,0.0,0.0,0.0,0.0,0.0,0.0,0.0,0.0,0.0,0.0,0.0,0.0,0.0,0.0,0.0,0.0,0.0,0.0,0.0,0.0,0.0,0.0,0.0,0.0,0.0,0.0,0.0,0.0,0.0,0.0,0.0,0.0,0.0,0.0,0.0,0.4596,0.4469,0.0,0.0,0.0,0.0,0.0,0.0,0.0,0.0,0.0,0.0,0.0,0.0,0.0,0.0,0.0,0.0,0.0,0.0,0.0,0.0,0.0,0.0,0.0,0.0,0.0,0.0,0.0,0.0,0.0,0.0,0.0,0.0,0.0,0.0,0.0,0.0,0.0,0.0,0.0,0.0,-0.1002,-0.1011,-0.1022,-0.1052,-0.1028,-0.1016,-0.1032,-0.0916,-0.089,-0.0964,-0.0894,0.0,0.0,0.0,0.0,0.0,0.0,0.0,0.0,0.0,0.0,0.0,0.0,0.0,0.0,0.0,0.0,0.0,0.0,0.0,0.0,0.0,0.0,0.0,0.0,0.0,0.0,0.0,0.0,0.0,0.0,0.0,0.0,0.0,0.0,0.0,0.0,0.0,0.0,0.0,0.0,0.0,0.0,0.0,0.0,0.0,0.0,0.0,0.0,0.0,0.0,0.0,0.0,0.0,0.5683,0.5612,0.5264,0.5176,0.5181,0.5237,0.4865,0.4764,0.4715,0.452,0.0,0.0,0.0,0.0,0.0,0.0,0.0,0.0,0.0,0.0,0.0,0.0,0.0,0.0,0.0,0.0,0.0,0.0,0.0,0.0,0.0,0.0,0.4249,0.4047,0.4006,0.3923,0.3646,0.0,0.0,0.0,0.0,0.0,0.0,0.0,0.0,0.0,0.0,0.0,-0.0982,-0.101,-0.1028,-0.0968,-0.1029,-0.1026,-0.1026,-0.0914,-0.0894,-0.0979,-0.0956,-0.0852,0.0,0.0,0.0,0.0,0.0,0.0,0.0,0.0,0.0,0.0,0.0,0.0,0.0,0.0,0.0,0.0,0.0,0.0,0.0,0.0,0.0,0.0,0.0,0.0,0.0,0.0,0.0,0.0,0.0,0.0,0.0,0.0,0.7787,0.6802,0.0,0.0,0.0,0.0,0.0,0.0,0.0,0.0,0.0,0.0,0.0,0.0,0.0,0.563,0.5772,0.5905,0.5915,0.5734,0.5858,0.5759,0.5625,0.5387,0.5286,0.5271,0.5043,0.0,0.4715,0.452,0.0,0.0,0.0,0.0,0.0,0.0,0.0,0.0,0.0,0.0,0.0,0.0,0.0,0.0,0.0,0.0,0.0,0.0,0.0,0.0,0.0,0.0,0.4292,0.4259,0.4194,0.4065,0.4017,0.3663,0.3256,0.2974,0.2782,0.2404,0.0,0.0,0.0,0.0,0.0,0.0,-0.0922,-0.0992,-0.1004,-0.1031,-0.101,-0.0994,-0.0994,-0.0962,-0.0886,-0.0889,-0.0888,-0.0692,-0.0319,-0.0205,0.0,0.0,0.0,0.0,0.0,0.0,0.0,0.0,0.0,0.0,0.0,0.0,0.0,0.0,0.0,0.0,0.0,0.0,0.0,0.0,0.0,0.0,0.0,0.0,0.0,0.0,0.0,0.0,0.0,0.8128,0.7981,0.7335,0.7033,0.6539,0.0,0.0,0.0,0.0,0.0,0.0,0.0,0.0,0.0,0.5705,0.5708,0.5779,0.5928,0.5996,0.6078,0.6179,0.6153,0.6109,0.6119,0.5792,0.5553,0.5479,0.5246,0.5029,0.4847,0.4724,0.4675,0.4656,0.0,0.0,0.0,0.0,0.43,0.4303,0.4311,0.4317,0.4298,0.4178,0.0,0.0,0.0,0.0,0.0,0.0,0.0,0.4221,0.4221,0.4308,0.4379,0.418,0.4038,0.3966,0.3772,0.3448,0.319,0.3095,0.2868,0.2479,0.1867,0.1499,0.0,0.0,0.0,0.006,-0.0123,-0.0125,-0.0128,-0.0132,-0.0193,-0.019,-0.019,-0.0182,-0.0177,-0.0177,-0.0169,-0.0055,0.011,0.0212,0.0464,0.0,0.0,0.0,0.0,0.0,0.0,0.0,0.0,0.0,0.0,0.0,0.0,0.0,0.0,0.0,0.0,0.0,0.0,0.0,0.0,0.0,0.0,0.0,0.0,0.0,0.0,0.0,0.0,0.8925,0.8633,0.8139,0.7763,0.7069,0.0,0.0,0.0,0.0,0.0,0.0,0.5644,0.5742,0.5837,0.5915,0.5881,0.5969,0.62,0.6162,0.6274,0.6529,0.6424,0.641,0.6468,0.6123,0.5899,0.5637,0.5398,0.5246,0.5085,0.4885,0.4833,0.4814,0.4599,0.4515,0.4507,0.4423,0.439,0.4404,0.4488,0.4496,0.4455,0.4371,0.4303,0.4227,0.4075,0.0,0.0,0.0,0.0,0.43,0.43,0.4363,0.4404,0.4115,0.4024,0.3856,0.3645,0.3351,0.3064,0.3036,0.2837,0.2504,0.2129,0.1742,0.0,0.1208,0.0886,0.0669,0.056,0.0576,0.0524,0.0465,0.0457,0.0384,0.0378,0.0423,0.0411,0.0407,0.0398,0.0449,0.0561,0.0602,0.086,0.1278,0.0,0.0,0.0,0.0,0.0,0.0,0.0,0.0,0.0,0.0,0.0,0.0,0.0,0.0,0.0,0.0,0.0,0.0,0.0,0.0,0.0,0.0,0.0,0.0,0.0,0.0,0.0,0.0,0.0,0.9248,0.9373,0.0,0.0,0.0,0.0,0.5851,0.5786,0.5789,0.5789,0.5796,0.5935,0.623,0.6095,0.6227,0.6661,0.6522,0.6529,0.6688,0.6681,0.6607,0.6471,0.6308,0.607,0.5864,0.5476,0.5321,0.5231,0.4958,0.4833,0.4822,0.4694,0.4715,0.4715,0.4709,0.4706,0.4706,0.4715,0.4637,0.4469,0.4463,0.4308,0.4145,0.4249,0.4205,0.0,0.0,0.4298,0.43,0.43,0.4306,0.4308,0.4303,0.4167,0.3966,0.3825,0.3414,0.3001,0.2606,0.253,0.2382,0.1951,0.0,0.1839,0.1348,0.1258,0.1091,0.0642,0.0527,0.0465,0.0388,0.0387,0.0378,0.0416,0.0413,0.0407,0.0394,0.0393,0.0617,0.1066,0.1064,0.1432,0.2128,0.2332,0.0,0.0,0.0,0.0,0.0,0.0,0.0,0.0,0.0,0.0,0.0,0.0,0.0,0.0,0.0,0.0,0.0,0.0,0.0,0.0,0.0,0.0,0.0,0.0,0.0,0.0,0.0,0.0,0.9496,0.9575,0.0,0.7771,0.7249,0.6909,0.6737,0.6336,0.6135,0.6227,0.6325,0.643,0.6539,0.6491,0.6539,0.6698,0.6647,0.6695,0.6848,0.6749,0.6671,0.6617,0.6438,0.6235,0.586,0.5786,0.5631,0.5476,0.5197,0.5027,0.4939,0.4817,0.477,0.476,0.4681,0.4726,0.4726,0.4726,0.4695,0.4646,0.4496,0.4363,0.4243,0.4287,0.427,0.4243,0.4287,0.43,0.43,0.43,0.43,0.43,0.4164,0.4028,0.3961,0.3825,0.3547,0.3192,0.2787,0.2465,0.2211,0.2005,0.1925,0.1853,0.1734,0.169,0.1641,0.1459,0.1436,0.1457,0.1441,0.1415,0.1385,0.1356,0.1328,0.1307,0.1292,0.1291,0.1458,0.1793,0.1793,0.2006,0.2532,0.2638,0.2702,0.0,0.0,0.0,0.0,0.0,0.0,0.0,0.0,0.0,0.0,0.0,0.0,0.0,0.0,0.0,0.0,0.0,0.0,0.0,0.0,0.0,0.0,0.0,0.0,0.0,1.0861,1.0669,1.023,1.0313,1.0043,0.8988,0.8217,0.7714,0.754,0.6816,0.6451,0.6546,0.6647,0.6722,0.6776,0.6725,0.6749,0.6848,0.68,0.6851,0.7,0.6898,0.6824,0.6773,0.662,0.6388,0.6087,0.596,0.5786,0.5712,0.5479,0.5246,0.5085,0.4928,0.4896,0.4887,0.4806,0.4776,0.477,0.4727,0.4713,0.4686,0.4523,0.442,0.4349,0.4311,0.43,0.43,0.43,0.43,0.43,0.43,0.43,0.4233,0.4164,0.4028,0.3951,0.3777,0.3496,0.3207,0.2806,0.2509,0.2213,0.2006,0.1925,0.1918,0.1939,0.1925,0.1918,0.194,0.1959,0.1965,0.1943,0.1905,0.1873,0.1854,0.1931,0.1908,0.1908,0.202,0.2132,0.2352,0.2352,0.2464,0.28,0.2925,0.2997,0.2977,0.0,0.0,0.0,0.0,0.0,0.0,0.0,0.0,0.0,0.0,0.0,0.0,0.0,0.0,0.0,0.0,0.0,0.0,0.0,0.0,0.0,0.0,0.0,1.0835,1.1172,1.1366,1.1434,1.1678,1.15,1.0455,0.9752,0.9059,0.825,0.736,0.6791,0.6798,0.6795,0.6867,0.6929,0.6874,0.6936,0.7136,0.7004,0.7004,0.7139,0.7139,0.7065,0.6922,0.6776,0.662,0.6464,0.6084,0.5944,0.5864,0.5712,0.5479,0.5321,0.5093,0.5018,0.5018,0.5018,0.5018,0.4999,0.4879,0.4836,0.4795,0.4558,0.4474,0.445,0.4338,0.4303,0.43,0.43,0.43,0.43,0.43,0.43,0.43,0.43,0.4161,0.3926,0.3685,0.3391,0.311,0.2724,0.2592,0.2377,0.2009,0.1991,0.2051,0.2112,0.2068,0.0,0.211,0.2003,0.1944,0.1884,0.1879,0.1856,0.1801,0.2074,0.224,0.2184,0.2408,0.2577,0.2691,0.2577,0.2689,0.313,0.3299,0.34,0.34,0.0,0.0,0.0,0.0,0.0,0.0,0.0,0.0,0.0,0.0,0.0,0.0,0.0,0.0,0.0,0.0,0.0,0.0,0.0,0.0,0.0,1.0672,1.1037,1.1259,1.1255,1.1338,1.1733,1.183,1.181,1.15,1.074,1.0274,1.0113,0.9373,0.8598,0.8045,0.8648,0.8755,0.8036,0.8673,0.8694,0.8105,0.8748,0.84,0.7139,0.7753,0.7672,0.6926,0.6885,0.6722,0.6471,0.6351,0.6274,0.618,0.5944,0.5786,0.5705,0.5321,0.5093,0.5018,0.5018,0.5018,0.5012,0.498,0.4909,0.4822,0.4754,0.4613,0.4463,0.4433,0.4365,0.43,0.43,0.43,0.43,0.43,0.43,0.43,0.43,0.4167,0.4027,0.3993,0.3648,0.3328,0.3121,0.2962,0.2657,0.2287,0.2192,0.2211,0.211,0.194,0.1852,0.1868,0.1856,0.1839,0.1823,0.1989,0.2093,0.1962,0.2298,0.2521,0.241,0.2577,0.2745,0.2965,0.2965,0.3077,0.3471,0.3409,0.34,0.0,0.0,0.0,0.0,0.0,0.0,0.0,0.0,0.0,0.0,0.0,0.0,0.0,0.0,0.0,0.0,0.0,0.0,0.0,0.0,0.0,0.0,1.1294,1.1483,1.1737,1.1702,1.1733,1.2047,1.2186,1.2252,1.2252,1.1498,1.0972,1.1027,1.0264,0.9547,0.9139,0.9575,0.9662,0.9148,0.9575,0.9662,0.9061,0.9666,0.9314,0.8273,0.8798,0.8665,0.7797,0.755,0.721,0.6647,0.6896,0.6939,0.6795,0.7019,0.7011,0.6857,0.0,0.0,0.0,0.0,0.5018,0.5018,0.5018,0.4972,0.4901,0.4852,0.4848,0.4818,0.4555,0.4591,0.4564,0.4367,0.43,0.43,0.43,0.4498,0.4616,0.4498,0.4619,0.4655,0.4294,0.4213,0.4033,0.3465,0.3396,0.0,0.2754,0.2537,0.2432,0.2404,0.229,0.2199,0.2227,0.2206,0.2132,0.2076,0.2213,0.2247,0.2138,0.2575,0.0,0.0,0.0,0.3079,0.3244,0.3299,0.0,0.0,0.0,0.0,0.0,0.0,0.0,0.0,0.2993,0.2695,0.0,0.0,0.0,0.0,0.0,0.0,0.0,0.0,0.0,0.0,0.0,0.0,0.0,0.0,0.0,0.0,1.2065,1.1895,1.2374,1.2419,1.2361,1.2361,1.2566,1.2705,1.2705,1.1929,1.1494,1.1494,1.0707,1.0183,1.0096,1.0183,0.0,0.0,0.0,1.0183,1.0096,1.0183,1.0096,0.9923,1.0009,0.9662,0.896,0.8602,0.7911,0.6994,0.7564,0.7713,0.771,0.8394,0.8618,0.8228,0.6479,0.5634,0.5476,0.5171,0.5015,0.5015,0.5018,0.0,0.0,0.4966,0.5205,0.5421,0.4874,0.4941,0.509,0.4631,0.45,0.45,0.45,0.4827,0.5117,0.4916,0.5244,0.5399,0.4627,0.4728,0.4676,0.3711,0.3852,0.4012,0.3352,0.2965,0.2772,0.2791,0.2738,0.2717,0.2793,0.2738,0.2635,0.2521,0.2563,0.0,0.2342,0.2762,0.3021,0.3009,0.3276,0.34,0.3413,0.3527,0.3638,0.3694,0.3624,0.384,0.4288,0.4275,0.4101,0.3785,0.3297,0.2841,0.0,0.0,0.0,0.0,0.0,0.0,0.0,0.0,0.0,0.0,0.0,0.0,0.0,0.0,0.0,1.3731,1.3613,1.3494,1.3343,1.2906,1.2626,1.2626,1.2674,1.2705,1.2705,1.2534,1.2448,1.2448,1.2266,1.1837,1.1063,1.1752,1.1837,1.1063,1.1752,1.1752,1.1063,1.1752,1.1397,0.9923,1.0712,0.0,0.898,0.8941,0.8652,0.8166,0.8119,0.8242,0.8475,0.8627,0.8699,0.8546,0.7169,0.6633,0.6479,0.555,0.5243,0.5246,0.5093,0.5323,0.5705,0.5678,0.5949,0.6154,0.6051,0.5917,0.0,0.5624,0.5561,0.5561,0.5561,0.569,0.5712,0.5485,0.5472,0.5381,0.5016,0.4642,0.4324,0.4073,0.4125,0.4177,0.4012,0.3461,0.297,0.2876,0.2755,0.2697,0.2713,0.2701,0.2691,0.2691,0.2839,0.2905,0.2669,0.3031,0.3255,0.3011,0.3266,0.3425,0.358,0.3583,0.3747,0.407,0.3914,0.4126,0.4787,0.4609,0.4331,0.3923,0.352,0.3006,0.0,0.0,0.0,0.0,0.0,0.0,0.0,0.0,0.0,0.0,0.0,1.363,1.4313,0.0,1.4623,1.5166,1.4739,1.4388,1.4385,1.3961,1.3464,1.279,1.2705,1.2705,1.2705,1.2705,1.2705,1.2705,1.2705,1.2534,1.2015,1.2443,1.2534,1.2015,1.2448,1.2443,1.2015,1.2448,1.2266,1.1311,1.1629,1.1438,1.0842,1.0005,0.97,0.9754,0.9223,0.9097,0.9311,0.976,0.9906,0.983,0.877,0.8084,0.7544,0.6314,0.6086,0.6318,0.5709,0.5819,0.6215,0.6215,0.6449,0.6604,0.632,0.6283,0.6214,0.5954,0.5888,0.5888,0.5888,0.6086,0.6237,0.6062,0.6072,0.6007,0.5587,0.5354,0.5066,0.4622,0.4732,0.4842,0.4563,0.4236,0.3904,0.3569,0.3516,0.3352,0.3193,0.3137,0.3193,0.3357,0.3415,0.3475,0.3465,0.3654,0.3714,0.367,0.3783,0.3904,0.3921,0.3924,0.4115,0.4398,0.4202,0.4498,0.523,0.5055,0.4794,0.4519,0.4053,0.332,0.0,0.0,0.0,0.0,0.0,0.0,0.0,1.4005,1.4063,1.4628,1.4963,1.5385,1.6156,1.584,1.5667,1.6393,1.5679,1.5101,1.5184,1.4894,1.4314,1.3215,1.296,1.2875,1.2705,1.2705,1.2705,1.2705,1.2705,1.2705,1.2705,1.2705,1.2705,1.2705,1.2705,1.2705,1.2705,1.265,1.2626,1.2626,1.2361,1.234,1.2529,1.1231,1.0767,1.1091,1.0362,1.0073,1.0143,1.0812,1.1111,1.1037,1.0368,0.9604,0.8756,0.7383,0.723,0.754,0.6626,0.6547,0.6962,0.6857,0.6997,0.7074,0.6547,0.6617,0.6741,0.6346,0.6218,0.6218,0.6218,0.6544,0.6824,0.6573,0.6696,0.6676,0.6111,0.6034,0.5896,0.5175,0.5344,0.5454,0.512,0.512,0.4956,0.4398,0.4343,0.4236,0.3913,0.3858,0.3913,0.4132,0.4062,0.4033,0.4168,0.4113,0.4134,0.4251,0.4262,0.4277,0.4306,0.431,0.4422,0.4662,0.448,0.4813,0.5675,0.5514,0.5324,0.5179,0.4622,0.3738,1.5017,1.4609,1.4693,1.5409,1.5658,1.5929,0.0,1.6967,1.674,1.7004,1.6948,1.692,1.6846,1.7203,1.7372,1.7066,1.6541,1.6101,1.5726,1.5068,1.465,1.4482,1.3984,1.3392,1.279,1.2705,1.2705,1.2705,1.2705,1.2705,1.2705,1.2705,1.2705,1.2705,1.2705,1.2705,1.2705,1.2475,1.2355,1.2355,1.2089,1.1945,1.1979,1.178,1.152,1.1097,1.101,1.0986,1.0962,1.1037,1.1111,1.1111,1.1037,1.0887,1.0576,0.8832,0.8228,0.8228,0.7761,0.7829,0.817,0.7781,0.7803,0.7944,0.7697,0.7493,0.7396,0.7326,0.7326,0.7326,0.7326,0.7391,0.7344,0.7143,0.6941,0.6735,0.6462,0.6034,0.5622,0.5567,0.5567,0.5567,0.5508,0.5841,0.5786,0.4952,0.4842,0.4787,0.4736,0.4736,0.4791,0.4787,0.4634,0.4412,0.4117,0.3994,0.3972,0.4127,0.4138,0.4157,0.4302,0.431,0.4469,0.484,0.4865,0.5157,0.584,0.5869,0.5751,0.5508,0.5179,0.4236,1.6345,1.6558,1.6858,1.6526,1.6646,1.6931,1.7299,1.7362,1.7405,1.7833,1.7713,1.7733,1.8351,1.84,1.8315,1.8241,1.784,1.7286,1.6812,1.606,1.5442,1.5034,1.4543,1.4008,1.336,1.296,1.2705,1.2705,1.2705,1.2705,1.2705,1.2705,1.2638,1.2481,1.2475,1.2403,1.2252,1.2137,1.2083,1.2083,1.1823,1.1733,1.1874,1.1612,1.1307,1.1111,1.1111,1.1111,1.1111,1.1111,1.1111,1.1111,1.1111,1.1111,1.0956,0.9593,0.9296,0.9523,0.8761,0.8684,0.8847,0.8428,0.8212,0.8069,0.7722,0.7598,0.7521,0.7521,0.7521,0.7521,0.7521,0.7521,0.7502,0.7416,0.7177,0.6974,0.6707,0.6381,0.6086,0.5973,0.5955,0.5955,0.5955,0.6064,0.6064,0.5732,0.5454,0.5234,0.4952,0.4897,0.4969,0.5136,0.5278,0.5182,0.4849,0.4746,0.469,0.4615,0.461,0.4649,0.4726,0.4684,0.4828,0.513,0.5023,0.5216,0.5736,0.5736,0.5687,0.5513,0.5241,0.4625,1.7353,1.7821,1.8272,1.7647,1.773,1.7925,1.7854,1.788,1.8051,1.8446,1.8315,1.8363,1.9182,1.8901,1.8641,1.8916,1.8505,1.7983,1.761,1.683,1.6047,1.5561,1.502,1.4532,1.4028,1.3471,1.3128,1.3203,1.3045,1.2923,1.2849,1.2681,1.2475,1.221,1.2204,1.2113,1.1926,1.1854,1.1817,1.1811,1.154,1.1502,1.1667,1.1289,1.1111,1.1111,1.1111,1.1111,1.1111,1.1111,1.1111,1.1111,1.1111,1.1111,1.1037,1.0276,1.0282,1.0513,0.9755,0.9532,0.9446,0.9009,0.8567,0.8073,0.7654,0.7526,0.7521,0.7521,0.7521,0.7521,0.7521,0.7521,0.7521,0.7521,0.7369,0.7116,0.6969,0.6724,0.6431,0.6285,0.6215,0.6178,0.6178,0.6178,0.6178,0.6178,0.5955,0.5622,0.5285,0.5285,0.5325,0.5457,0.5751,0.5765,0.5405,0.532,0.5226,0.5079,0.5018,0.499,0.499,0.499,0.5056,0.5202,0.5112,0.525,0.5609,0.5665,0.5696,0.5685,0.5396,0.5073,1.7796,1.7911,1.8171,1.9077,1.9194,1.9159,1.97,1.9573,1.9292,1.9103,1.8955,1.8829,1.8646,1.8397,1.8369,1.8852,1.8243,1.7761,1.7954,1.7141,1.6373,1.6206,1.5334,1.4669,1.4691,1.4344,1.433,1.4629,1.4068,1.3523,1.3313,1.2649,1.2204,1.1944,1.1932,1.1926,1.192,1.1673,1.1546,1.154,1.1256,1.1123,1.1123,1.1117,1.1111,1.1111,1.1111,1.1111,1.1111,1.1111,1.1111,1.1111,1.1111,1.1111,1.1111,1.1037,1.1037,1.1037,1.0812,1.0427,0.9957,0.9433,0.8838,0.8203,0.779,0.7596,0.7521,0.7521,0.7521,0.7521,0.7521,0.7521,0.7521,0.7521,0.7369,0.7216,0.7212,0.6823,0.6473,0.6468,0.6309,0.6178,0.6178,0.6178,0.6178,0.6178,0.6178,0.6173,0.6178,0.6178,0.6093,0.5878,0.5906,0.5826,0.5618,0.541,0.5283,0.5278,0.5094,0.499,0.499,0.499,0.499,0.4999,0.5183,0.5387,0.5609,0.5802,0.601,0.6168,0.59,0.5517,1.8879,1.8956,1.93,1.9497,1.9448,1.9579,2.0202,2.0134,1.9873,1.9951,1.9203,1.8655,1.9294,1.898,1.8918,1.9626,1.9449,1.9142,1.9061,1.7847,1.692,1.6775,1.564,1.4864,1.5023,1.4336,1.3926,1.403,1.3796,1.3668,1.3566,1.2933,1.2485,1.2279,1.1811,1.1576,1.1389,1.1298,1.125,1.125,1.1154,1.1111,1.1111,1.1111,1.1111,1.1111,1.1111,1.1111,1.1111,1.1111,1.1111,1.1111,1.1111,1.1111,1.1111,1.1111,1.1003,1.0852,1.0779,1.0467,0.9898,0.9271,0.8712,0.8244,0.7848,0.7701,0.7609,0.7623,0.7591,0.7521,0.7521,0.7521,0.7521,0.7521,0.7469,0.7383,0.725,0.705,0.6908,0.6712,0.652,0.6374,0.6374,0.6262,0.6178,0.6178,0.6178,0.6178,0.6178,0.6178,0.615,0.6128,0.6124,0.5982,0.5637,0.5665,0.558,0.5306,0.5226,0.5188,0.5188,0.5056,0.499,0.499,0.5056,0.5188,0.5396,0.5609,0.5766,0.5871,0.5842,0.5681,1.9591,1.9807,2.0228,2.0469,2.0226,2.0084,2.0676,2.0481,2.0172,2.0068,1.934,1.8847,1.9323,1.888,1.8831,1.9867,1.9618,1.9383,1.9868,1.8577,1.7596,1.7605,1.655,1.5715,1.5675,1.482,1.4381,1.4421,1.4302,1.4109,1.3966,1.3338,1.2893,1.2592,1.2214,1.1897,1.1706,1.1558,1.1335,1.1111,1.1111,1.1111,1.1111,1.1111,1.1111,1.1111,1.1111,1.1111,1.1111,1.1111,1.1111,1.1111,1.1111,1.1111,1.1111,1.1111,1.1003,1.0834,1.0647,1.0271,0.9832,0.918,0.8714,0.8342,0.8021,0.7778,0.7641,0.7668,0.7596,0.7521,0.7521,0.7521,0.7521,0.7521,0.7521,0.7488,0.7354,0.7458,0.7489,0.735,0.7252,0.7208,0.7208,0.6854,0.6603,0.6549,0.6391,0.6228,0.6232,0.6178,0.6178,0.6178,0.6178,0.607,0.5854,0.5878,0.5793,0.5524,0.5368,0.532,0.5396,0.5202,0.5094,0.5094,0.5094,0.5198,0.5405,0.5542,0.5705,0.5875,0.5896,0.5791,1.999,2.0395,2.0986,2.1975,2.1329,2.0636,2.1187,2.0828,2.0194,1.9664,1.9454,1.9251,1.8742,1.815,1.8259,1.9578,1.8909,1.8773,2.0273,1.9344,1.8611,1.8766,1.7916,1.7077,1.6465,1.5953,1.5658,1.5679,1.538,1.4889,1.4336,1.3705,1.3194,1.298,1.29,1.29,1.29,1.2305,1.1781,1.1186,1.1186,1.1186,1.1186,1.1105,1.1105,1.1111,1.1111,1.1105,1.1105,1.1111,1.1111,1.1105,1.1105,1.1111,1.1111,1.1111,1.1093,1.0997,1.0472,1.0128,0.9766,0.9107,0.8734,0.8533,0.8242,0.7881,0.7626,0.7733,0.7591,0.7526,0.7521,0.7521,0.7587,0.7587,0.7587,0.7587,0.7587,0.7942,0.8291,0.8291,0.8305,0.8397,0.8329,0.7724,0.7235,0.7139,0.6707,0.6386,0.6232,0.6178,0.6178,0.6178,0.6178,0.6173,0.6164,0.6039,0.592,0.5906,0.5538,0.541,0.5618,0.5405,0.5292,0.5306,0.5292,0.5396,0.5623,0.5623,0.5835,0.6178,0.6059,0.595,2.1627,2.1678,2.1862,2.2136,2.1975,2.1666,2.1419,2.123,2.0913,2.0355,1.9889,1.9579,1.9442,1.9183,1.9241,1.9965,1.997,2.0073,2.0869,2.0257,1.9668,1.9213,1.8309,1.7468,1.6845,1.6866,1.6676,1.599,1.5194,1.4665,1.4558,1.396,1.3623,1.355,1.3112,1.29,1.29,1.2746,1.2599,1.2452,1.2452,1.2224,1.1781,1.1286,1.1069,1.1111,1.1111,1.1087,1.1125,1.1781,1.162,1.1125,1.1613,1.1484,1.1111,1.1111,1.1082,1.1007,1.0447,0.9953,0.9496,0.8956,0.8461,0.8105,0.831,0.8186,0.7907,0.8063,0.7852,0.7727,0.8172,0.8231,0.8361,0.8877,0.9005,0.9005,0.9005,0.9082,0.9168,0.9168,0.863,0.7993,0.7472,0.7075,0.6972,0.7182,0.6918,0.6544,0.6228,0.6178,0.6178,0.6178,0.6178,0.6112,0.6006,0.6086,0.6081,0.592,0.5807,0.5774,0.5831,0.5481,0.5363,0.5524,0.5368,0.5467,0.5831,0.5831,0.5972,0.6178,0.6059,0.6005,2.2483,2.2425,2.2509,2.2509,2.2328,2.213,2.1835,2.1706,2.1519,2.0765,2.0398,2.0081,1.9642,1.9448,1.9437,1.9838,1.9899,2.0228,2.0959,2.0481,2.006,2.0119,1.915,1.8295,1.7735,1.7614,1.7232,1.6482,1.5774,1.5161,1.4729,1.4346,1.4129,1.4129,1.384,1.355,1.3331,1.3251,1.3185,1.29,1.276,1.2549,1.2372,1.1906,1.178,1.1855,1.1855,1.1838,1.1702,1.2318,1.2211,1.1708,1.2238,1.2157,1.1842,1.1713,1.1683,1.1579,1.0788,1.0273,0.981,0.8946,0.8539,0.8416,0.8503,0.8247,0.7966,0.8329,0.8206,0.8028,0.8559,0.8713,0.8862,0.936,0.9518,0.9518,0.9518,0.9709,0.9996,1.0181,0.9674,0.9048,0.8484,0.7997,0.7771,0.7925,0.7605,0.7235,0.6972,0.6549,0.6282,0.6232,0.6178,0.6126,0.6062,0.6161,0.6126,0.6057,0.5963,0.5949,0.6043,0.5736,0.5618,0.5741,0.5623,0.5675,0.5906,0.5906,0.602,0.6178,0.6119,0.6009,2.2934,2.2833,2.2978,2.2888,2.2615,2.2278,2.2231,2.2131,2.1843,2.0951,2.072,2.0431,1.9614,1.9318,1.9309,1.9605,1.9625,1.9944,2.0916,2.05,2.0323,2.0855,2.0111,1.9421,1.8794,1.8187,1.7596,1.7097,1.6599,1.5931,1.5086,1.4784,1.4641,1.4569,1.4569,1.4322,1.3837,1.3837,1.3526,1.2984,1.2714,1.265,1.2839,1.2565,1.2607,1.283,1.2795,1.2662,1.2494,1.2769,1.2813,1.2742,1.2934,1.2954,1.2795,1.2416,1.2347,1.2248,1.129,1.084,1.0439,0.9159,0.8877,0.8997,0.8722,0.835,0.8148,0.8752,0.8549,0.8374,0.8944,0.9065,0.9193,0.9586,0.9717,0.973,0.9767,1.0225,1.0725,1.1005,1.0785,1.0386,1.0048,0.9388,0.8896,0.883,0.8455,0.8131,0.8031,0.7182,0.6544,0.644,0.6445,0.6445,0.6445,0.6445,0.6445,0.6445,0.6259,0.624,0.6436,0.6178,0.6076,0.6053,0.6024,0.6024,0.5949,0.6053,0.6096,0.6232,0.6232,0.6069,2.3739,2.3404,2.3246,2.2978,2.2843,2.2661,2.2278,2.1848,0.0,0.0,2.0348,2.0091,1.9952,1.9838,1.9905,2.0401,2.063,2.0758,2.0845,2.1334,2.1293,2.0139,2.0174,1.9949,1.9127,1.8573,1.8207,1.8104,1.711,1.6287,1.5666,1.5141,1.4792,1.4641,1.4569,1.4427,1.4065,1.4057,1.3846,1.3497,1.3434,1.3164,1.2748,1.2689,1.2567,1.2501,1.2165,1.227,1.282,1.2786,1.3359,1.4163,1.3839,1.3207,1.2473,1.2082,1.2013,1.2094,1.1406,1.124,1.1099,0.9825,0.9288,0.9185,0.9377,0.9259,0.9069,0.9292,0.911,0.8961,0.9545,0.9564,0.9702,1.059,1.0849,1.092,1.1183,1.1303,1.1288,1.092,1.0467,0.9948,0.942,0.887,0.8586,0.8903,0.8633,0.8415,0.8613,0.8031,0.7605,0.7605,0.7605,0.7605,0.7605,0.7605,0.7605,0.7605,0.7564,0.7564,0.7605,0.7114,0.6821,0.6913,0.6832,0.667,0.6328,0.6699,0.672,0.6386,0.6228,0.6178,2.4327,2.3879,2.3465,2.3216,2.3008,2.2756,2.22,0.0,0.0,0.0,2.0695,2.0673,2.0182,2.0288,2.0372,2.0273,2.0511,2.0804,2.0871,2.0764,2.0582,2.0364,2.0002,1.9551,1.9116,1.8651,1.841,1.8365,1.7372,1.6567,1.6192,1.5351,1.4772,1.4635,1.436,1.4074,1.3839,1.3839,1.3751,1.3584,1.341,1.3286,1.3176,1.3006,1.308,1.3252,1.2916,1.2923,1.3231,1.324,1.3434,1.3802,1.3735,1.3473,1.2975,1.258,1.2561,1.2567,1.1644,1.1409,1.1344,1.0394,0.9798,0.9516,0.9568,0.9445,0.9329,0.9695,0.9542,0.9446,0.9904,1.0009,1.0087,1.0683,1.0821,1.0865,1.1019,1.1055,1.1046,1.097,1.0493,1.0059,0.9921,0.9446,0.9099,0.9256,0.9152,0.9099,0.9197,0.8981,0.856,0.7978,0.7925,0.7925,0.7925,0.7925,0.7925,0.7925,0.7925,0.7925,0.7925,0.76,0.7489,0.7503,0.7284,0.7072,0.6864,0.6756,0.6598,0.6381,0.6282,0.6173,2.4776,2.4354,2.3767,2.345,2.3113,2.2688,2.2149,2.2178,0.0,2.0969,2.1068,2.1116,2.0409,2.0617,2.0699,0.0,2.0353,2.065,2.1012,2.0308,2.0009,2.0765,1.994,1.9288,1.9183,1.8635,1.8247,1.8247,1.7438,1.6748,1.6393,1.5444,1.4885,1.482,1.4362,1.3999,1.3737,1.3737,1.3631,1.3427,1.31,1.3116,1.3354,1.31,1.3314,1.387,1.3521,1.3441,1.3561,1.3418,1.329,1.313,1.3314,1.341,1.3433,1.31,1.2925,1.2726,1.1813,1.1447,1.1281,1.0669,1.0249,0.9918,0.9814,0.9667,0.9575,0.9997,0.9932,0.9836,1.0226,1.024,1.0268,1.0468,1.0536,1.0587,1.0587,1.0587,1.0682,1.1011,1.055,1.0207,1.0528,1.0046,0.9614,0.9614,0.9614,0.9614,0.9614,0.9614,0.9242,0.8349,0.8243,0.8243,0.8243,0.8243,0.8243,0.8243,0.8243,0.8243,0.8243,0.819,0.8084,0.7925,0.7664,0.7396,0.7182,0.6756,0.6544,0.6381,0.6386,0.6277,2.5153,2.4791,2.4328,2.358,2.3018,2.2545,2.209,0.0,2.0741,2.1058,2.0804,2.0509,2.0568,2.0612,0.0,0.0,0.0,2.0841,2.1247,2.1116,2.1063,2.1071,2.0388,1.9738,1.9421,1.8416,1.7792,1.7792,1.7307,1.6677,1.59,1.5606,1.545,1.5395,1.5386,1.4976,1.4208,1.4072,1.3589,1.2902,1.2747,1.2693,1.2717,1.2685,1.2822,1.3163,1.2814,1.2933,1.329,1.2901,1.2925,1.3243,1.2877,1.2853,1.3092,1.2742,1.2401,1.2051,1.1638,1.1289,1.0979,1.0641,1.047,1.0419,1.0399,1.0383,1.0368,1.0458,1.034,1.0272,1.0304,1.0052,0.9918,1.0129,1.0375,1.0587,1.0587,1.0587,1.0682,1.1011,1.055,1.0207,1.0528,1.0046,0.9614,0.9614,0.9614,0.9614,0.9614,0.9614,0.9562,0.9458,0.9458,0.9458,0.9458,0.9458,0.9458,0.9458,0.9458,0.9458,0.9458,0.9099,0.8626,0.8078,0.8196,0.7777,0.6756,0.7074,0.6918,0.6381,0.6815,0.6761,2.5308,2.5114,2.4679,2.4241,2.3559,2.2763,2.198,2.1801,2.1595,2.0869,2.1136,2.1301,2.072,2.061,0.0,0.0,0.0,0.0,2.0859,2.0576,2.0532,2.1173,2.0602,2.021,2.0437,1.9113,1.7896,1.7023,1.6746,1.6481,1.6168,1.5807,1.5556,1.5425,1.5181,1.4812,1.4414,1.4344,1.4152,1.3821,1.3459,1.3099,1.2822,1.2533,1.2434,1.2425,1.2067,1.2186,1.246,1.2115,1.2067,1.2213,1.2019,1.2003,1.2107,1.1964,1.1821,1.1654,1.1312,1.1106,1.0939,1.0633,1.0522,1.0522,1.0522,1.0522,1.0522,1.0522,1.047,1.0419,1.0316,1.0058,0.9829,0.9903,0.9967,1.0002,1.0002,1.0002,1.0155,1.0682,1.0258,0.9972,1.0499,1.0046,0.9614,0.9614,0.9614,0.9614,0.9614,0.9614,0.9614,0.9614,0.9614,0.9614,0.9614,0.9614,0.9614,0.9614,0.9614,0.9614,0.9614,0.9465,0.9249,0.9033,0.8837,0.8527,0.8096,0.7871,0.7652,0.7444,0.7557,0.7503,2.5448,2.5438,2.5052,2.4799,2.4004,2.3023,2.2022,2.2049,2.2014,2.0881,2.1439,2.1913,2.1224,2.0944,2.0646,0.0,0.0,1.9999,2.0643,2.0138,2.0147,2.1204,2.0618,2.0259,2.0668,1.9369,1.8013,1.6736,1.6637,1.6591,1.6431,1.6087,1.5846,1.571,1.5362,1.5069,1.4834,1.4824,1.4706,1.4529,1.4172,1.367,1.3226,1.2888,1.2597,1.2307,1.2215,1.2175,1.2134,1.1988,1.1809,1.1551,1.1495,1.1487,1.1487,1.1487,1.1424,1.1312,1.1074,1.0931,1.0796,1.0601,1.0522,1.0522,1.0522,1.0522,1.0522,1.0522,1.0522,1.047,1.0316,1.011,0.9903,0.9851,0.9732,0.9673,0.9614,0.9614,0.9782,1.0338,0.9994,0.979,1.0346,0.998,0.9614,0.9614,0.9614,0.9614,0.9614,0.9614,0.9614,0.9614,0.9614,0.9614,0.9614,0.9614,0.9614,0.9614,0.9614,0.9614,0.9614,0.9614,0.9562,0.9413,0.9159,0.8903,0.8732,0.829,0.8078,0.8025,0.8137,0.819,2.5721,2.5749,2.5524,2.5185,2.4296,2.3219,2.2217,2.168,2.1362,2.1225,2.1611,2.2061,2.2165,2.1732,2.1224,0.0,0.0,0.0,2.0643,2.0175,2.0225,2.1368,2.0465,1.9749,1.9805,1.8811,1.7831,1.7257,1.7202,1.6944,1.6441,1.6384,1.6374,1.6384,1.6374,1.6144,1.5672,1.5478,1.5177,1.4715,1.4529,1.4258,1.3798,1.3807,1.3532,1.3113,1.3568,1.3289,1.2517,1.284,1.2503,1.1688,1.1551,1.1487,1.1487,1.1487,1.1281,1.1003,1.0995,1.0764,1.0522,1.0522,1.0522,1.0522,1.0522,1.0522,1.0522,1.0522,1.0522,1.047,1.0316,1.0316,1.0213,0.9903,0.9799,0.974,0.9621,0.9614,0.9709,1.0038,0.9841,0.9716,1.0046,0.9833,0.9614,0.9614,0.9614,0.9614,0.9614,0.9614,0.9614,0.9614,0.9614,0.9614,0.9614,0.9614,0.9614,0.9614,0.9614,0.9614,0.9614,0.9614,0.9413,0.9008,0.9008,0.8679,0.8131,0.8131,0.8025,0.7925,0.8508,0.8771,2.4736,2.4675,2.4318,2.3525,2.2696,2.1935,2.1423,2.1514,2.161,2.1304,2.1974,2.2521,2.2235,2.2077,2.1779,2.1224,0.0,0.0,2.0668,2.0759,2.1066,2.1461,2.1499,2.1178,2.0435,1.9706,1.8869,1.7897,1.782,1.7545,1.7,1.6944,1.6797,1.6431,1.6384,1.6316,1.6202,1.5772,1.5705,1.5836,1.4824,1.4244,1.4045,1.3717,1.3331,1.2846,1.3304,1.336,1.3059,1.2608,1.2368,1.2325,1.1713,1.161,1.1817,1.1567,1.1395,1.1199,1.1302,1.1217,1.1124,1.141,1.1368,1.1175,1.1074,1.0769,1.0522,1.0522,1.0522,1.047,1.047,1.0368,1.0265,1.0162,0.9955,0.9799,0.974,0.9673,0.9709,1.0038,0.9833,0.9716,1.0046,0.9826,0.9614,0.9614,0.9614,0.9614,0.9614,0.9614,0.9614,0.9614,0.9614,0.9614,0.9614,0.9614,0.9614,0.9614,0.9614,0.9614,0.9614,0.9614,0.9562,0.9413,0.9413,0.9302,0.9138,0.9138,0.9086,0.9086,0.9242,0.9468,0.0,2.3628,2.3401,2.2776,2.2304,2.1932,2.1522,2.1907,2.2226,2.1701,2.2294,2.2797,2.2509,2.2324,2.2077,2.1779,2.1513,2.1272,2.0944,2.1195,2.134,2.1184,2.1481,2.1344,2.0373,1.9976,1.9431,1.8506,1.8429,1.8201,1.7589,1.7356,1.7049,1.6752,1.6507,1.6291,1.6125,1.5835,1.5742,1.5846,1.5172,1.4727,1.4503,1.4405,1.4068,1.3565,1.4053,1.4096,0.0,1.3134,1.2834,1.2702,1.1962,1.181,1.1959,1.1769,1.1619,1.1569,1.1669,1.161,1.161,1.176,1.1669,1.1477,1.1427,1.0972,1.0522,1.0718,1.082,1.082,1.0871,1.0769,1.0624,1.0419,1.011,0.9851,0.9799,0.9681,0.9672,0.9877,0.9753,0.9732,1.0151,0.9851,0.9666,0.9873,0.9718,0.9666,0.988,0.9718,0.9666,0.9873,0.9718,0.9614,0.9614,0.9614,0.9614,0.9614,0.9614,0.9614,0.9614,0.9614,0.9614,0.9614,0.9614,0.9614,0.9614,0.9614,0.9614,0.9614,0.9614,0.979,0.0,2.2645,2.2802,2.2723,2.2871,2.2827,2.221,2.2649,0.0,2.2249,2.2527,2.2888,2.2888,2.2555,2.2231,2.2231,2.1827,2.1513,2.1465,2.1475,2.1394,2.098,2.086,2.0595,1.9963,1.9875,1.9643,1.9093,1.9056,1.8756,1.8143,1.7617,1.7289,1.7237,1.6687,1.6196,1.5745,1.5659,1.5452,1.5101,1.5463,1.5432,1.5059,1.5494,1.5452,1.507,1.5535,1.5267,1.453,1.4301,1.3729,1.2974,1.2323,1.2107,1.2107,1.2098,1.2058,1.2049,1.2058,1.2049,1.1999,1.1719,1.1619,1.1569,1.1578,1.1124,1.0718,1.1217,1.1368,1.1368,1.1469,1.1427,1.1175,1.0675,1.0308,1.0051,0.9947,0.9829,0.971,0.9666,0.9666,0.9821,1.0241,0.9976,0.9821,1.0241,0.9932,0.9821,1.0293,0.9925,0.9769,1.0293,0.988,0.9614,0.9614,0.9614,0.9614,0.9614,0.9614,0.9614,0.9614,0.9614,0.9614,0.9614,0.9614,0.9614,0.9614,0.9614,0.9614,0.9614,0.9636,0.9826,2.1465,0.0,2.265,2.1967,2.1849,2.1804,0.0,2.2114,2.2494,0.0,0.0,0.0,2.2888,2.2797,2.2752,2.2752,2.2646,2.2402,2.2077,2.2456,2.2883,2.3177,2.2495,2.1731,2.1108,2.0668,2.0207,1.9643,1.961,1.9158,1.8144,1.7594,1.7111,1.6649,1.6457,1.6345,1.6267,1.5542,1.5463,1.6042,1.5442,1.5287,1.5535,1.5639,1.5628,1.5546,1.6011,1.61,1.5823,1.4784,1.439,1.4387,1.3224,1.2977,1.318,1.2871,1.2725,1.2628,1.2725,1.2725,1.2628,1.2628,1.2579,1.2433,1.2157,1.1859,1.166,1.181,1.1859,1.176,1.1569,1.1427,1.1267,1.1267,1.1015,1.0854,1.1099,1.1082,1.0821,1.0285,1.019,1.0138,0.9821,1.0035,1.0138,0.9821,1.0035,1.0087,0.9829,0.9666,0.9666,0.9769,0.9666,0.9614,0.9614,0.9614,0.9614,0.9614,0.9614,0.9614,0.9614,0.9614,0.9614,0.9614,0.9614,0.9614,0.9614,0.9614,0.9614,0.9621,0.987,1.0163,2.1988,2.2037,2.2003,2.1488,2.1621,2.1828,2.1786,0.0,0.0,0.0,0.0,0.0,0.0,2.2888,2.2888,2.2888,2.2888,2.2908,2.2963,2.3261,2.3543,2.3621,2.3111,2.2418,2.1502,2.113,2.0746,2.0207,1.9928,1.941,1.8534,1.7751,1.7229,1.6872,1.6385,1.6233,1.6488,1.5975,1.5857,1.618,1.5818,1.57,1.5701,1.5908,1.6001,1.6022,1.627,1.626,1.6011,1.5063,1.4654,1.4604,1.3636,1.342,1.3563,1.3362,1.3218,1.317,1.3266,1.3112,1.2909,1.2967,1.2957,1.2861,1.2638,1.2638,1.2686,1.2442,1.2384,1.2335,1.2197,1.2098,1.195,1.1868,1.1601,1.1392,1.1551,1.1283,1.0922,1.0498,1.019,1.0035,0.9984,0.9984,1.0035,0.9984,0.9984,1.0035,0.9984,0.9769,0.9718,0.9925,0.9769,0.9614,0.9614,0.9614,0.9614,0.9614,0.9614,0.9614,0.9614,0.9614,0.9614,0.9614,0.9614,0.9614,0.9614,0.976,0.9833,0.9848,1.017,1.0499,2.3037,2.2395,2.1647,2.1532,2.1982,2.2407,2.2278,0.0,0.0,0.0,0.0,0.0,0.0,2.2975,2.3033,2.3033,2.312,2.34,2.3978,2.4019,2.3881,2.3499,2.3313,2.277,2.1636,2.1513,2.1286,2.0746,2.0188,1.9677,1.9126,1.8067,1.751,1.751,1.6576,1.6286,1.6825,1.6677,1.6468,1.624,1.6585,1.6429,1.5865,1.6262,1.6342,1.6167,1.6167,1.5949,1.5546,1.509,1.4656,1.4262,1.3796,1.3621,1.3621,1.3621,1.3621,1.3621,1.3621,1.3362,1.3112,1.3112,1.3112,1.3112,1.3112,1.3314,1.3515,1.3064,1.2909,1.2909,1.2967,1.2909,1.2716,1.2393,1.2129,1.1922,1.1742,1.1283,1.0771,1.0446,1.0035,0.9821,1.019,0.9984,0.9829,1.0241,0.9976,0.9873,1.0241,0.9873,0.9769,1.0241,0.9873,0.9614,0.9614,0.9614,0.9614,0.9614,0.9614,0.9614,0.9614,0.9614,0.9614,0.9614,0.9665,0.9687,0.9687,1.0016,1.0177,1.0185,1.0514,1.0814,2.2843,2.3194,2.3416,2.2922,2.2981,2.3128,2.2981,0.0,0.0,0.0,0.0,0.0,0.0,2.3383,2.3746,2.3746,2.4196,2.4554,2.4644,2.4673,2.4638,2.4618,2.3724,2.286,2.2147,2.2077,2.1827,2.1334,2.0698,2.0064,1.9517,1.8503,1.793,1.793,1.7409,1.7401,1.7941,1.7034,1.7014,1.7756,1.7836,1.733,1.6364,1.644,1.5988,1.5214,1.5214,1.5163,1.507,1.4604,1.4366,1.4262,1.3796,1.3621,1.3621,1.3621,1.3621,1.3621,1.3621,1.3563,1.3515,1.3515,1.3515,1.3515,1.3515,1.3563,1.3563,1.3515,1.3467,1.342,1.3064,1.2909,1.2812,1.2871,1.2764,1.256,1.2316,1.2218,1.1774,1.0643,1.0344,1.0138,0.9769,1.0035,1.0138,0.9769,1.0035,1.0138,0.9769,0.9666,0.9614,0.9718,0.9666,0.9614,0.9614,0.9614,0.9614,0.9614,0.9614,0.9614,0.9614,0.9614,0.9614,0.9614,0.9885,1.0024,1.0024,1.0353,1.0514,1.0521,1.085,1.1026,2.1837,2.2241,2.2575,2.2933,2.3285,2.3491,2.311,0.0,0.0,0.0,0.0,0.0,0.0,2.3455,2.4007,2.4341,2.4355,2.4442,2.4728,2.4785,2.467,2.4384,2.3875,2.3288,2.2626,2.23,2.186,2.1315,2.0382,1.9656,1.913,1.8411,1.7874,1.7561,1.7479,1.7501,1.7765,1.7262,1.7386,1.8113,1.8113,1.767,1.6916,1.6584,1.6185,1.5782,1.5782,1.5488,1.4999,1.4786,1.4395,1.391,1.3693,1.3621,1.3621,1.3621,1.3621,1.3621,1.3621,1.3621,1.3621,1.3621,1.3621,1.3621,1.3621,1.3621,1.3621,1.3621,1.3621,1.3563,1.3362,1.3266,1.3266,1.3314,1.3112,1.2812,1.2463,1.1972,1.1384,1.0549,1.019,0.9873,0.9666,0.9821,0.9873,0.9614,0.9821,0.988,0.9614,0.9614,0.9614,0.9614,0.9614,0.9614,0.9614,0.9614,0.9614,0.9614,0.9614,0.9614,0.9614,0.9614,0.9694,0.987,1.0024,1.0185,1.0368,1.0697,1.085,1.0858,1.1187,1.1333,2.0684,2.1215,2.1676,2.2159,0.0,2.3543,2.3004,0.0,0.0,0.0,0.0,0.0,2.2962,2.3455,2.4051,2.453,2.4457,2.4399,2.4588,2.4699,2.4602,2.3963,2.363,2.3252,2.2728,2.2135,2.1614,2.118,2.0174,1.9402,1.9059,1.8553,1.8206,1.7942,1.7774,1.7772,1.7913,1.7664,1.7759,1.8139,1.8139,1.7766,1.712,1.6665,1.6325,1.6124,1.6124,1.5665,1.5004,1.5004,1.4595,1.3941,1.3941,1.3894,1.381,1.381,1.3716,1.3621,1.3621,1.3621,1.3621,1.3621,1.3621,1.3621,1.3621,1.3621,1.3621,1.3621,1.3621,1.3621,1.3621,1.3621,1.3621,1.3621,1.3362,1.3016,1.256,1.1882,1.1191,1.0744,1.0285,0.9976,0.9976,0.9976,0.9925,0.9821,0.9769,0.9718,0.9614,0.9614,0.9614,0.9614,0.9614,0.9614,0.9614,0.9614,0.9614,0.9614,0.9614,0.9614,0.9614,0.9614,0.9731,0.998,1.006,1.0265,1.0587,1.0916,1.1114,1.1194,1.1505,1.1498,1.9809,2.099,2.1939,2.0838,2.1785,0.0,2.2902,2.3397,0.0,2.3018,0.0,0.0,2.3004,2.3455,2.3905,2.3949,2.4907,2.5255,2.4123,2.4471,2.4602,2.3963,2.286,2.212,2.2062,2.1452,2.1075,2.1019,2.0425,2.0009,2.0009,1.9484,1.9475,2.0061,1.9123,1.8895,1.9449,1.8442,1.8016,1.8207,1.8207,1.7636,1.6644,1.6608,1.6102,1.5211,1.5211,1.5154,1.5074,1.5074,1.5051,1.5017,1.5017,1.4743,1.4326,1.4326,1.4046,1.3621,1.3621,1.3621,1.3621,1.3621,1.3621,1.3621,1.3621,1.3621,1.3621,1.3621,1.3621,1.3621,1.3621,1.3621,1.3621,1.3621,1.3563,1.3362,1.2716,1.2414,1.212,1.1466,1.1191,1.1099,1.1099,1.1099,1.0897,1.0395,1.0344,1.0138,0.9666,0.9614,0.9614,0.9614,0.9614,0.9614,0.9614,0.9614,0.9614,0.9614,0.9614,0.9614,0.9614,0.9614,0.9629,0.965,0.9943,1.0265,1.0587,1.0916,1.1291,1.1593,1.1615,1.156,1.8517,1.9993,2.124,2.1004,0.0,0.0,0.0,2.3196,2.3926,2.3586,2.3717,0.0,2.3572,2.3397,2.3557,2.4384,2.4573,2.4297,2.3426,2.3453,2.3221,2.2222,2.167,2.138,2.138,2.0799,2.0436,2.0436,1.9841,1.9478,1.9478,1.9339,1.9223,1.9081,1.8755,1.8573,1.8464,1.8081,1.7636,1.7149,1.7509,1.7485,1.7066,1.672,1.6348,1.5988,1.5988,1.5812,1.5534,1.5534,1.5355,1.5108,1.5108,1.4834,1.4419,1.4743,1.4512,1.4093,1.4093,1.4093,1.4046,1.3716,1.3621,1.3621,1.3621,1.3621,1.3621,1.3621,1.3621,1.3621,1.3621,1.3621,1.3621,1.3621,1.342,1.3112,1.2706,1.203,1.1434,1.1191,1.0981,1.088,1.1049,1.1108,1.0947,1.0584,1.0293,1.0043,0.9666,0.9614,0.9614,0.9614,0.9614,0.9614,0.9614,0.9614,0.9614,0.9614,0.9614,0.9614,0.9614,0.9614,0.9709,0.9914,1.0236,1.0565,1.0894,1.1277,1.1505,1.1622,1.1622,1.156,1.7707,1.9221,2.0676,0.0,0.0,0.0,2.2236,2.3081,2.3985,2.3938,2.3891,2.3833,2.363,2.3192,2.3192,2.4138,2.4065,2.3673,2.2989,2.2888,2.2497,2.1438,2.0959,2.0712,2.0712,2.0146,1.987,2.0088,1.9682,1.9426,1.9517,1.9589,1.929,1.8567,1.8631,1.8714,1.8805,1.8394,1.7922,1.7301,1.7466,1.7364,1.7099,1.6827,1.665,1.6522,1.6522,1.6337,1.602,1.602,1.5844,1.5546,1.5546,1.5277,1.4858,1.5187,1.5006,1.4605,1.4466,1.4373,1.4326,1.3952,1.3752,1.361,1.38,1.3716,1.3621,1.3621,1.3621,1.3621,1.3621,1.3621,1.3621,1.3621,1.3372,1.316,1.2967,1.2325,1.1742,1.1742,1.1484,1.1342,1.151,1.141,1.12,1.0787,1.0446,1.0095,0.9666,0.9614,0.9614,0.9614,0.9614,0.9614,0.9614,0.9614,0.9614,0.9614,0.9614,0.9614,0.9614,0.9614,0.9716,0.9943,1.0163,1.0492,1.0924,1.1143,1.1417,1.1622,1.1622,1.156,1.7435,1.8957,2.0424,0.0,0.0,0.0,2.2164,2.2991,2.3891,2.3891,2.3891,2.3702,2.3004,2.2888,2.2888,2.2888,2.347,2.3659,2.2975,2.2888,2.2656,2.2062,2.0872,2.0103,2.0103,1.9508,1.9391,2.0059,2.0103,2.0197,2.0409,2.0423,2.0003,1.9155,1.9119,1.9703,2.0996,1.9734,1.9112,1.9098,1.8271,1.7352,1.6522,1.6989,1.6947,1.6522,1.6522,1.6522,1.6522,1.6522,1.6522,1.6522,1.6522,1.6194,1.5788,1.5788,1.549,1.5062,1.4558,1.4419,1.4419,1.4373,1.4046,1.3716,1.4233,1.3999,1.3621,1.3621,1.3621,1.3621,1.3621,1.3621,1.3621,1.3621,1.3621,1.3621,1.3621,1.3515,1.3409,1.342,1.2997,1.2676,1.2676,1.2372,1.1828,1.1023,1.0922,1.0608,0.9718,0.9614,0.9614,0.9614,0.9614,0.9614,0.9614,0.9614,0.9614,0.9614,0.9614,0.9614,0.9614,0.9614,0.9614,0.9614,0.9614,0.9936,1.0587,1.0587,1.0924,1.1622,1.1622,1.1622,1.7277,1.8714,0.0,2.0276,0.0,0.0,0.0,2.3382,0.0,0.0,2.3891,2.3702,2.3004,2.2888,2.2888,2.2888,2.3047,2.3006,2.2367,2.2483,2.2361,2.1739,2.0951,2.0448,2.0448,2.0055,1.9885,2.0088,2.0494,2.0785,2.0804,2.0819,2.0833,2.0918,2.0431,2.0498,2.1285,2.0925,2.0248,1.9305,2.0338,1.9486,1.7076,1.7201,1.7089,1.6791,1.6964,1.6879,1.662,1.6522,1.6522,1.6522,1.6522,1.6194,1.5832,1.6151,1.5976,1.5579,1.5433,1.5389,1.5266,1.4593,1.428,1.414,1.3905,1.3716,1.3621,1.3621,1.3621,1.3621,1.3621,1.3621,1.3621,1.3621,1.3621,1.3621,1.3621,1.3218,1.2909,1.3064,1.2871,1.2686,1.289,1.2832,1.2589,1.203,1.1401,1.0651,0.9718,0.9614,0.9614,0.9614,0.9614,0.9614,0.9614,0.9614,0.9614,0.9614,0.9614,0.9614,0.9614,0.9614,0.9614,0.9614,0.9841,1.0053,1.0243,1.0704,1.1026,1.1224,1.152,1.1622,1.7577,1.8933,0.0,2.0703,2.1814,2.278,2.2937,0.0,2.3912,2.3557,2.3717,2.3702,2.3004,2.2888,2.2888,2.2888,2.3008,2.2996,2.2744,2.276,2.2717,2.2358,2.1659,2.1228,2.1386,2.109,2.1015,2.1449,2.1679,2.1798,2.1863,2.1882,2.2027,2.2352,2.1889,2.1609,2.153,2.1258,2.0573,1.945,2.0519,1.9918,1.7961,1.8426,1.8166,1.731,1.7297,1.7214,1.7115,1.6693,1.6607,1.6778,1.6565,1.6337,1.6107,1.638,1.6337,1.6064,1.5876,1.5788,1.5656,1.4915,1.4558,1.4326,1.3999,1.3752,1.3621,1.3621,1.3621,1.3621,1.3621,1.3476,1.3393,1.3569,1.3621,1.3621,1.3621,1.3266,1.3064,1.3218,1.2967,1.2812,1.2957,1.2774,1.2393,1.1931,1.1032,1.0233,0.9666,0.9614,0.9614,0.9614,0.9614,0.9614,0.9614,0.9614,0.9614,0.9614,0.9614,0.9614,0.9614,0.9614,0.9614,0.9614,0.9811,0.9972,1.0104,1.0624,1.0946,1.1085,1.1414,1.1622,1.8039,1.9321,2.0408,2.1046,2.1753,2.2395,2.2812,2.3383,2.3644,2.3018,2.3397,2.363,2.3004,2.2933,2.2933,2.2888,2.3216,2.3493,2.3651,2.3555,2.3491,2.3693,2.2794,2.2317,2.2697,2.2393,2.254,2.3537,2.3225,2.3046,2.3185,2.3081,2.3038,2.3128,2.3128,2.2686,2.168,2.1156,2.0451,1.9598,1.9627,1.939,1.9011,2.0073,1.9622,1.7946,1.7436,1.741,1.7638,1.6873,1.6773,1.7079,1.671,1.6522,1.6522,1.6522,1.6522,1.6423,1.602,1.5832,1.5744,1.5277,1.4834,1.4466,1.4466,1.4093,1.3658,1.3658,1.3621,1.3621,1.3621,1.33,1.3047,1.3517,1.3589,1.3569,1.361,1.3621,1.3621,1.3621,1.3266,1.3016,1.3016,1.2403,1.1719,1.1108,1.0233,0.9666,0.9614,0.9614,0.9614,0.9614,0.9614,0.9614,0.9614,0.9614,0.9614,0.9614,0.9614,0.9614,0.9614,0.9614,0.9614,0.9614,0.9614,0.976,1.006,1.0411,1.0741,1.1041,1.1453,1.1622,1.7187,1.8215,0.0,2.0811,2.2038,2.2822,2.2867,2.3004,2.3062,2.2917,2.3004,2.3062,2.2917,2.3142,2.3216,2.2933,2.3451,2.3824,2.3638,2.4107,2.45,2.4587,2.4065,2.366,2.3771,2.3456,2.3366,2.3584,2.317,2.292,2.297,2.217,2.1727,2.1724,2.1847,2.1768,2.1555,2.152,2.1147,2.0437,2.0944,2.0631,1.953,1.9371,1.8803,1.7902,1.7391,1.7105,1.6926,1.6869,1.6665,1.6465,1.6892,1.6808,1.6522,1.6522,1.6522,1.6479,1.638,1.6107,1.5788,1.5656,1.5311,1.4971,1.4971,1.4605,1.4233,1.4233,1.3905,1.3621,1.3621,1.3538,1.3486,1.3589,1.3341,1.3129,1.3538,1.3621,1.3621,1.3621,1.3266,1.3016,1.3016,1.2647,1.2076,1.1158,1.0549,1.0087,0.9666,0.9614,0.9614,0.9614,0.9614,0.9614,0.9614,0.9614,0.9614,0.9614,0.9614,0.9614,0.9614,0.9614,0.9614,0.9614,0.9614,0.965,0.9716,1.0302,1.0624,1.0704,1.135,1.1622,1.683,0.0,0.0,2.0527,0.0,2.2578,2.2732,2.2843,2.2815,2.2556,2.2685,2.2888,2.2888,2.3053,2.3172,2.3127,2.3625,2.4051,2.4147,2.4679,2.513,2.5269,2.4644,2.4429,2.4952,2.4099,2.3718,2.4289,2.3581,2.3054,2.2886,2.213,2.1665,2.152,2.156,2.1451,2.1099,2.1192,2.0887,2.0228,2.0572,2.0363,1.969,1.9384,1.9046,1.8673,1.7823,1.7438,1.7434,1.6797,1.6705,1.6956,1.6902,1.6735,1.6522,1.6765,1.668,1.6522,1.6778,1.6552,1.6107,1.5876,1.5611,1.5367,1.4915,1.4605,1.4326,1.4093,1.381,1.3621,1.3621,1.3455,1.3341,1.3569,1.3434,1.332,1.3569,1.3621,1.3621,1.3621,1.3409,1.3266,1.3266,1.2832,1.2098,1.1108,1.0659,1.019,0.9666,0.9614,0.9614,0.9614,0.9614,0.9614,0.9614,0.9614,0.9614,0.9614,0.9614,0.9614,0.9614,0.976,0.9775,0.9614,0.9768,0.9848,0.9848,1.0499,1.0821,1.0836,1.1081,1.1373,1.6229,0.0,1.8184,2.0148,2.1247,2.1951,2.2495,2.2752,2.2714,2.212,2.241,2.27,2.2584,2.2658,2.282,2.3051,2.3583,2.4087,2.4351,2.4875,2.526,2.5431,2.4705,2.4596,2.5691,2.44,2.3878,2.4828,2.3846,2.3063,2.275,2.2222,2.1819,2.1529,2.1491,2.1158,2.0618,2.0565,2.0243,1.969,1.969,1.969,1.969,1.9632,1.9536,1.9367,1.8303,1.7978,1.8069,1.6992,1.7022,1.7692,1.7092,1.6808,1.6765,1.7144,1.7018,1.6693,1.7073,1.685,1.6337,1.602,1.5788,1.5567,1.4869,1.4512,1.4326,1.3858,1.3668,1.3621,1.3621,1.3331,1.3144,1.3527,1.3621,1.3621,1.3621,1.3621,1.3621,1.3621,1.3515,1.3467,1.342,1.2774,1.1931,1.1065,1.0557,1.0138,0.9666,0.9614,0.9614,0.9614,0.9614,0.9614,0.9614,0.9614,0.9614,0.9614,0.951,0.951,0.951,0.9714,0.9757,0.9604,0.9962,1.0185,1.0185,1.0785,1.1077,1.1085,1.0974,1.1185,1.4043,0.0,1.8067,0.0,2.0543,2.1387,2.2395,2.2721,2.2653,2.2135,2.2062,2.1946,2.1365,2.1717,2.2054,2.1773,2.2961,2.3638,2.292,2.3697,2.4409,2.4572,2.4064,2.4007,2.4775,2.4226,2.3901,2.4067,2.3128,2.2491,2.2458,2.1514,2.0978,2.0928,2.057,2.0349,2.0292,1.999,1.9779,1.969,1.969,1.969,1.969,1.969,1.9375,1.8802,1.8519,1.8096,1.7625,1.7848,1.778,1.758,1.8057,1.7988,1.7625,1.772,1.7475,1.7115,1.7199,1.6625,1.5964,1.6293,1.5856,1.5232,1.5534,1.504,1.4384,1.4326,1.3952,1.3621,1.3621,1.3569,1.3538,1.36,1.3621,1.3621,1.3621,1.3621,1.3621,1.3621,1.3314,1.2977,1.2715,1.2067,1.1469,1.1057,1.0454,0.994,0.9614,0.9614,0.9614,0.9614,0.9614,0.9614,0.9614,0.9614,0.9614,0.9614,0.9256,0.9061,0.9061,0.8956,0.9095,0.9508,1.0192,1.0521,1.0521,1.0894,1.1077,1.1085,1.1345,1.1498,1.4031,1.5785,1.7496,0.0,1.9546,2.0102,2.119,2.1546,2.1485,2.0907,2.0874,2.0986,2.1248,2.1505,2.1798,2.1979,2.2918,2.3427,2.2813,2.3539,2.3989,2.3663,2.2894,2.2785,2.3939,2.285,2.2417,2.3161,2.2504,2.1984,2.173,2.1311,2.099,2.0794,2.0395,2.0208,2.0208,1.9889,1.969,1.969,1.969,1.969,1.969,1.969,1.9121,1.8115,1.803,1.78,1.7419,1.6977,1.7072,1.7502,1.7578,1.7495,1.7341,1.7679,1.7557,1.7199,1.7199,1.6765,1.6194,1.6107,1.5844,1.5445,1.513,1.4915,1.4651,1.4129,1.3999,1.3999,1.3668,1.3621,1.3621,1.3621,1.3621,1.3621,1.3621,1.3621,1.3515,1.3314,1.3112,1.288,1.2471,1.2026,1.1569,1.1015,1.0506,0.9991,0.9368,0.9263,0.9159,0.8942,0.8942,0.8942,0.8942,0.8942,0.8942,0.8942,0.8738,0.8652,0.8706,0.8752,0.8965,0.9363,1.0082,1.0564,1.0858,1.1247,1.1409,1.1348,1.1246,1.131,0.0,0.0,1.6469,1.8007,1.8621,1.9193,2.0382,2.0907,2.0898,2.0223,2.0396,2.0768,2.1054,2.1093,2.1287,2.1815,2.2521,2.2873,2.2418,2.3032,2.3322,2.2782,2.1906,2.173,2.2747,2.1524,2.1065,2.2079,2.1741,2.1464,2.1339,2.1402,2.1309,2.1071,2.0697,2.0447,2.0345,1.9925,1.969,1.969,1.969,1.96,1.9435,1.9435,1.8717,1.7458,1.7736,1.7804,1.7625,1.6747,1.6915,1.7658,1.7362,1.7153,1.706,1.755,1.7451,1.7126,1.7188,1.6892,1.6423,1.6107,1.5876,1.5656,1.4949,1.4823,1.4789,1.3988,1.3988,1.4093,1.3716,1.3621,1.3621,1.3621,1.3621,1.3621,1.3621,1.3515,1.3362,1.3064,1.2919,1.2696,1.2323,1.1968,1.1569,1.0964,1.0557,0.9991,0.9113,0.8956,0.8791,0.8362,0.8315,0.8262,0.8262,0.8262,0.8262,0.8262,0.8224,0.8239,0.8273,0.848,0.8741,0.9052,0.9617,1.0214,1.0824,1.1057,1.1178,1.1178,1.0926,1.0996,0.0,1.3678,0.0,1.687,1.8094,1.9192,2.0818,2.1663,2.184,2.0855,2.1452,2.1736,2.0337,2.0076,2.0167,2.045,2.1334,2.1742,2.1015,2.1505,2.1948,2.1948,2.1467,2.1119,2.1118,2.074,2.0524,2.0606,2.0685,2.1052,2.1718,2.1751,2.1768,2.1768,2.1433,2.1087,2.0761,2.0065,1.969,1.969,1.969,1.9361,1.8747,1.8747,1.8011,1.68,1.8034,1.855,1.8515,1.8337,1.8247,1.8264,1.8229,1.778,1.7228,1.7438,1.7253,1.6952,1.7126,1.6892,1.6522,1.6466,1.6151,1.5788,1.5744,1.513,1.4419,1.4373,1.3999,1.3621,1.3621,1.3621,1.3621,1.3621,1.3621,1.3621,1.3621,1.3314,1.3016,1.3016,1.2647,1.2323,1.2206,1.1719,1.1217,1.0854,1.0352,0.9792,0.9113,0.889,0.8613,0.8184,0.7978,0.7925,0.7925,0.7925,0.7925,0.7925,0.7732,0.7655,0.7666,0.7647,0.7887,0.8443,0.8736,0.9233,1.0059,1.0072,1.0078,1.0078,1.0604,1.08,1.1649,0.0,0.0,1.5463,1.6825,1.8007,1.9329,2.021,2.0745,2.0614,2.0734,2.0813,2.0624,2.0742,2.0868,2.0691,2.1327,2.16,2.0905,2.141,2.1695,2.1252,2.0719,2.0528,2.0894,2.0584,2.0342,2.03,2.0504,2.0548,2.0339,2.0378,2.0406,2.0406,2.031,2.0223,2.01,1.9411,1.9271,1.9675,1.9256,1.8927,1.8687,1.8268,1.7548,1.6741,1.7188,1.7364,1.7287,1.6794,1.6787,1.7086,1.7086,1.6746,1.6303,1.6768,1.677,1.656,1.6558,1.6542,1.6436,1.6151,1.592,1.57,1.5085,1.4869,1.4697,1.4093,1.3999,1.4046,1.3705,1.3621,1.3515,1.3266,1.3208,1.3112,1.2667,1.2638,1.2559,1.2255,1.2017,1.1769,1.1318,1.0922,1.0565,1.03,0.9991,0.9577,0.9061,0.8949,0.8784,0.8362,0.8256,0.8096,0.7771,0.767,0.7515,0.73,0.7106,0.7125,0.7252,0.73,0.7516,0.7925,0.8071,0.8619,0.9703,0.9703,0.9703,0.9709,1.0028,1.0161,1.0277,1.1398,0.0,1.4283,1.5648,1.6979,1.8286,1.9357,2.0144,2.0343,2.0739,2.1013,2.0865,2.1314,2.1517,2.0903,2.1173,2.1316,2.0857,2.1221,2.1381,2.1021,2.0607,2.0447,2.0686,2.0439,2.0156,1.99,2.027,2.032,1.9887,1.991,1.9794,1.9476,1.942,1.9435,1.9541,1.8981,1.8927,1.9346,1.8912,1.8463,1.7996,1.7563,1.701,1.6383,1.6383,1.6487,1.6605,1.6114,1.6142,1.6446,1.643,1.6048,1.5616,1.5965,1.6046,1.5966,1.6035,1.6125,1.6228,1.6102,1.5932,1.57,1.504,1.4869,1.4743,1.4046,1.3999,1.4046,1.3705,1.3409,1.3218,1.2919,1.257,1.2227,1.1774,1.195,1.2026,1.1569,1.1318,1.1074,1.0624,1.0316,1.011,0.9955,0.9725,0.9465,0.9061,0.8949,0.8738,0.8156,0.8049,0.7883,0.7616,0.7509,0.73,0.7036,0.6991,0.6951,0.7022,0.7055,0.7269,0.7555,0.7627,0.8047,0.8812,0.8941,0.9011,0.9011,0.9326,0.9582,0.0,0.0,0.0,1.3224,1.4697,1.6239,1.7959,1.9233,2.0132,2.0152,2.1568,2.2352,2.0938,2.1606,2.2009,2.0949,2.0794,2.0794,2.0794,2.0794,2.0925,2.1246,2.1183,2.0878,2.0381,2.0256,1.9952,1.9269,1.9877,2.0323,2.0525,2.0508,2.0078,1.9179,1.8821,1.8795,1.9162,1.8812,1.8657,1.8672,1.8657,1.7951,1.6712,1.6697,1.6338,1.5799,1.5799,1.6129,1.6651,1.6589,1.6513,1.645,1.6386,1.5927,1.5264,1.5139,1.51,1.5136,1.5555,1.568,1.5781,1.6291,1.6151,1.5788,1.5788,1.513,1.4373,1.4373,1.3999,1.3621,1.3563,1.3064,1.256,1.256,1.1783,1.0998,1.0947,1.1217,1.1368,1.1057,1.0608,1.0316,1.0272,1.0007,0.9799,0.9799,0.9681,0.9465,0.9061,0.889,0.8461,0.7628,0.7402,0.7343,0.7289,0.7289,0.7289,0.7289,0.7345,0.7192,0.681,0.7048,0.7212,0.7221,0.7421,0.7521,0.7521,0.7852,0.7987,0.7987,0.8554,0.9005,0.7913,0.0,0.0,0.0,0.0,0.0,1.6164,1.7105,1.7917,1.9368,2.0032,2.0284,2.0206,2.0948,2.127,2.05,2.0613,2.0794,2.0794,2.0794,2.0925,2.1246,2.1087,2.0975,2.1034,2.0909,2.0542,1.9821,1.9557,1.9252,1.8871,1.8513,1.8192,1.8031,1.7472,1.7475,1.81,1.7552,1.7488,1.7951,1.7488,1.707,1.6697,1.6263,1.5905,1.5668,1.5668,1.5713,1.5847,1.5876,1.5847,1.5787,1.5697,1.5383,1.4916,1.4896,1.4816,1.4813,1.5297,1.558,1.574,1.5936,1.592,1.5656,1.4994,1.4605,1.4326,1.3952,1.3716,1.3467,1.3016,1.2511,1.2021,1.1534,1.12,1.0854,1.0403,1.0352,1.0403,1.0462,1.0368,1.0213,0.9955,0.9851,0.974,0.9673,0.9614,0.9465,0.9061,0.8956,0.8738,0.8209,0.7984,0.7818,0.761,0.7396,0.7241,0.7036,0.6822,0.6703,0.68,0.6849,0.7252,0.7897,0.7747,0.7852,0.8231,0.7847,0.7657,0.7657,0.7917,0.8436,0.6537,0.7486,0.8686,0.9908,0.0,0.0,1.4687,1.5696,1.6753,1.85,1.913,1.9447,1.9632,2.0235,2.0535,2.0,2.0258,2.0595,2.0761,2.0794,2.0925,2.1309,2.1198,2.1214,2.1509,2.1371,2.0955,2.0185,1.972,1.9231,1.8659,1.8049,1.7682,1.7606,1.6916,1.6784,1.7279,1.6906,1.6906,1.7279,1.686,1.6501,1.6233,1.5846,1.5639,1.5551,1.5551,1.5551,1.5477,1.5359,1.5359,1.5448,1.5374,1.5133,1.4777,1.4651,1.4438,1.4319,1.4964,1.5143,1.5155,1.5635,1.5522,1.513,1.4558,1.4233,1.3999,1.3668,1.342,1.3064,1.2609,1.1963,1.1316,1.0939,1.0635,1.0336,0.9932,0.9836,0.9888,0.9991,0.9991,0.994,0.9732,0.9732,0.9681,0.9614,0.9465,0.9263,0.9008,0.8791,0.8468,0.8049,0.7877,0.7711,0.7563,0.7396,0.7235,0.7085,0.6815,0.6653,0.6616,0.6663,0.6949,0.7605,0.7536,0.7583,0.7887,0.7698,0.7526,0.7521,0.7591,0.8047,0.4952,0.6347,0.0,0.8531,0.9807,0.0,1.3271,1.4508,1.5688,1.7117,1.8214,1.8892,1.8755,1.9336,1.9682,1.9332,1.9747,2.0281,2.0662,2.0761,2.0925,2.1324,2.1355,2.1479,2.1794,2.1615,2.1171,2.04,2.0058,1.9658,1.9176,1.8448,1.7883,1.7565,1.6835,1.6496,1.6562,1.6576,1.6576,1.6576,1.65,1.6173,1.558,1.5551,1.5507,1.5477,1.5477,1.5477,1.5463,1.5043,1.5074,1.5329,1.5238,1.4994,1.4714,1.4351,1.4013,1.3804,1.4562,1.4518,1.4305,1.5281,1.505,1.4307,1.4316,1.3952,1.3467,1.342,1.2967,1.2472,1.2267,1.1416,1.0618,1.0517,1.0012,0.9614,0.9614,0.9562,0.951,0.951,0.951,0.951,0.9458,0.9458,0.9458,0.9458,0.9159,0.8903,0.885,0.8355,0.7871,0.7461,0.7295,0.7235,0.7235,0.7235,0.7235,0.7235,0.7079,0.6815,0.644,0.6477,0.6644,0.6867,0.7091,0.7146,0.7086,0.7409,0.7538,0.7488,0.7469,0.7787,0.5011,0.5448,0.6176,0.7941,0.8455,0.0,1.1172,1.1628,1.209,1.3887,1.4911,1.5524,1.5633,1.731,1.8545,1.7973,1.928,2.0317,2.0246,2.041,2.0712,2.1118,2.1071,2.1119,2.1479,2.134,2.1134,2.0799,1.97,1.8999,1.8972,1.7673,1.7038,1.735,1.6486,1.5942,1.5728,1.5728,1.5728,1.5728,1.5728,1.564,1.5522,1.5507,1.5477,1.5418,1.5418,1.5403,1.5298,1.4949,1.4904,1.4968,1.4637,1.4461,1.4351,1.3947,1.3782,1.3739,1.4118,1.3989,1.3754,1.4378,1.4226,1.3826,1.3788,1.3314,1.2667,1.2159,1.199,1.1859,1.1124,1.0889,1.0651,0.9969,0.971,0.9614,0.9614,0.9361,0.9106,0.9106,0.9106,0.9001,0.8685,0.8633,0.8633,0.8633,0.858,0.8315,0.7836,0.7676,0.7408,0.6923,0.6707,0.6647,0.681,0.6647,0.6652,0.681,0.6647,0.649,0.6381,0.6477,0.6815,0.744,0.7666,0.7553,0.7086,0.6992,0.7059,0.7278,0.705,0.7486,0.4079,0.4714,0.5426,0.6457,0.7291,0.0,0.0,1.0272,1.1067,1.2797,1.3561,1.4038,1.4409,1.586,1.6969,1.6804,1.8173,1.9315,1.945,2.0197,2.0907,2.1351,2.1133,2.1039,2.1229,2.1182,2.0927,2.0369,1.9339,1.8797,1.8901,1.7354,1.6764,1.7279,1.6403,1.5769,1.5507,1.5507,1.5507,1.5507,1.5477,1.5448,1.5448,1.5403,1.5388,1.5344,1.5163,1.5072,1.4994,1.4465,1.4259,1.431,1.4319,1.4189,1.398,1.3782,1.3467,1.3201,1.363,1.3368,1.2961,1.347,1.3324,1.2943,1.3144,1.3047,1.2716,1.1765,1.1575,1.1493,1.0685,1.0387,1.0138,0.9718,0.9465,0.9309,0.9309,0.9001,0.8639,0.8315,0.8262,0.8262,0.8249,0.8196,0.815,0.815,0.799,0.7723,0.7456,0.7139,0.6761,0.6322,0.6109,0.5946,0.5828,0.5719,0.5723,0.5773,0.5719,0.5778,0.6,0.5819,0.5923,0.6369,0.652,0.6521,0.6363,0.631,0.6524,0.7002,0.6843,0.726,0.2815,0.3782,0.4783,0.4943,0.6192,0.757,0.0,0.0,0.0,1.1753,1.2361,1.2885,1.3465,1.4339,1.5134,1.5562,1.6851,1.8013,1.8577,1.9736,2.0712,2.1299,2.1093,2.0942,2.1023,2.1023,2.0751,2.0036,1.9168,1.8787,1.9065,1.7336,1.6598,1.7207,1.641,1.5802,1.5463,1.558,1.558,1.5463,1.5329,1.5269,1.5269,1.5238,1.5192,1.5192,1.4932,1.4808,1.4732,1.4,1.3669,1.3635,1.3881,1.3815,1.3581,1.3433,1.3057,1.2663,1.3069,1.2686,1.2106,1.2625,1.2436,1.2067,1.2315,1.2549,1.2463,1.1366,1.1124,1.1074,1.0387,0.9932,0.9614,0.9517,0.9159,0.885,0.8844,0.8527,0.8049,0.7568,0.7354,0.7402,0.7765,0.7765,0.7658,0.7658,0.7396,0.7182,0.7128,0.6647,0.6159,0.5773,0.5559,0.5285,0.4956,0.4897,0.4842,0.4842,0.4842,0.5011,0.5399,0.5011,0.4901,0.4959,0.5066,0.523,0.5399,0.5517,0.5914,0.6671,0.6634,0.6983,0.1899,0.2452,0.3092,0.426,0.5095,0.575,0.6366,0.0,0.8114,0.871,0.0,1.0361,1.1223,0.0,0.0,1.3917,1.5538,1.7053,1.8094,1.8478,1.8984,2.0061,2.0404,2.0595,2.0744,2.0744,2.0745,2.0684,1.9405,1.8918,1.9657,1.7372,1.6344,1.7014,1.6484,1.5881,1.5343,1.5866,1.5866,1.5313,1.5011,1.4856,1.4856,1.4871,1.4871,1.4839,1.4839,1.4808,1.4732,1.4,1.3535,1.3216,1.2906,1.3,1.3185,1.2508,1.2425,1.2567,1.2352,1.1889,1.147,1.1955,1.2001,1.1715,1.1036,1.0881,1.0762,1.0012,1.0131,1.0395,0.9821,0.9718,0.9666,0.9159,0.8738,0.8421,0.8243,0.7877,0.7568,0.7348,0.6918,0.6598,0.681,0.6864,0.6864,0.6864,0.681,0.6701,0.6544,0.6105,0.5832,0.5618,0.5117,0.4838,0.4897,0.4783,0.4728,0.4728,0.4728,0.4673,0.4629,0.457,0.4574,0.4574,0.457,0.4629,0.4629,0.4629,0.5166,0.616,0.5992,0.6113,0.1125,0.1732,0.2377,0.2932,0.3846,0.4691,0.5129,0.597,0.6877,0.7629,0.0,0.0,0.0,0.0,0.0,0.0,1.3602,1.4807,1.6062,1.6525,1.7679,2.0109,1.9904,1.979,2.041,2.0151,1.9966,1.9983,1.892,1.8254,1.8282,1.697,1.6234,1.6188,1.5859,1.5734,1.5821,1.5734,1.5734,1.5821,1.5134,1.4808,1.4808,1.462,1.4525,1.4493,1.4241,1.4176,1.4098,1.3353,1.2988,1.2766,1.2115,1.2126,1.2508,1.2138,1.1909,1.1825,1.1627,1.1292,1.0912,1.0995,1.1126,1.1093,1.0368,1.0515,1.0787,0.9865,0.9821,0.9925,0.9413,0.9099,0.8883,0.8567,0.815,0.783,0.7658,0.7128,0.6593,0.648,0.5991,0.5614,0.555,0.5828,0.6164,0.6386,0.5937,0.5605,0.5719,0.5336,0.4901,0.457,0.4346,0.407,0.3849,0.379,0.379,0.379,0.3956,0.3904,0.3466,0.3633,0.363,0.3466,0.3519,0.363,0.3685,0.3907,0.4209,0.4661,0.4934,0.5108,0.0384,0.0931,0.1471,0.1665,0.2587,0.3519,0.3765,0.4646,0.5636,0.6449,0.6952,0.0,0.0,0.0,0.9458,1.086,0.0,1.2413,1.3796,1.44,1.5968,1.9411,1.9379,1.9321,1.998,1.9553,1.9236,1.9188,1.8296,1.7609,1.7349,1.6576,1.6125,1.6083,1.5914,1.5889,1.607,1.5826,1.5676,1.5652,1.4864,1.4497,1.4497,1.4254,1.4124,1.4124,1.3735,1.3535,1.3454,1.2696,1.2342,1.2162,1.1505,1.1431,1.1664,1.1579,1.1431,1.1266,1.1204,1.0981,1.0643,1.0468,1.046,1.0471,1.0075,1.0332,1.0584,0.9666,0.9517,0.9458,0.889,0.8474,0.8096,0.7759,0.7396,0.7031,0.675,0.6213,0.5727,0.5555,0.5226,0.4956,0.4728,0.5062,0.5454,0.5677,0.512,0.4728,0.4948,0.4567,0.4128,0.3683,0.3519,0.3297,0.3021,0.2965,0.291,0.291,0.3128,0.3019,0.2577,0.2742,0.2742,0.2577,0.2685,0.274,0.2852,0.3072,0.3236,0.3239,0.3904,0.4239,-0.0253,-0.0104,0.0,0.0536,0.1226,0.1841,0.2108,0.3122,0.4098,0.4565,0.541,0.6297,0.712,0.7384,0.7875,0.0,0.9588,0.0,0.0,1.2001,1.3468,1.7158,1.8658,1.9398,1.9413,1.9071,1.8786,1.8634,1.7649,1.7228,1.7674,1.6245,1.6005,1.7302,1.7161,1.6637,1.5712,1.6338,1.5887,1.436,1.3927,1.3749,1.3735,1.3702,1.3702,1.3715,1.3353,1.3135,1.2985,1.2223,1.1653,1.1255,1.1217,1.0992,1.0659,1.0659,1.0878,1.1206,1.1215,1.1058,1.0847,1.0646,1.0268,0.9921,1.0277,1.0028,0.9562,0.9159,0.9008,0.8896,0.8296,0.7824,0.7354,0.6804,0.6322,0.5891,0.5289,0.5124,0.5069,0.4952,0.4787,0.4728,0.4725,0.4728,0.4673,0.457,0.4515,0.446,0.4233,0.3901,0.3569,0.3345,0.2852,0.2577,0.2691,0.2577,0.2521,0.2521,0.2352,0.224,0.224,0.224,0.224,0.224,0.224,0.224,0.224,0.2238,0.2238,0.2294,0.3183,0.3627,-0.0806,-0.0466,-0.021,-0.015,0.0305,0.0879,0.1143,0.1704,0.2239,0.275,0.3542,0.4291,0.4971,0.5284,0.5882,0.0,0.0,0.7753,0.0,1.0603,1.2157,1.3924,1.6633,1.8397,1.8592,1.8493,1.8042,1.7202,1.7378,1.7267,1.6611,1.667,1.6774,1.6933,1.66,1.6506,1.6687,1.5845,1.5537,1.5755,1.398,1.3522,1.4053,1.3231,1.2861,1.2814,1.2708,1.2496,1.2151,1.1653,1.133,1.118,1.0802,1.0792,1.0905,1.0566,1.0518,1.0611,1.0438,1.0299,1.0167,1.0108,0.9867,0.9672,0.9843,0.9569,0.9159,0.9061,0.8533,0.7943,0.7777,0.7133,0.6436,0.6154,0.5723,0.5344,0.5011,0.4732,0.4457,0.4349,0.4073,0.3627,0.3014,0.2901,0.3234,0.4181,0.3683,0.3241,0.3461,0.3016,0.2627,0.2571,0.2406,0.2296,0.2352,0.2071,0.1959,0.2183,0.1568,0.1289,0.1457,0.1457,0.1345,0.1008,0.1289,0.1345,0.1008,0.1008,0.1008,0.1008,0.1343,0.19,-0.1499,-0.0995,-0.0559,-0.0831,-0.0498,0.0,0.0347,0.0652,0.0966,0.1458,0.205,0.2551,0.3074,0.3356,0.3928,0.0,0.0,0.0,0.0,0.8931,1.0488,1.1598,1.4661,1.6824,1.7176,1.7056,1.6816,1.6485,1.6733,1.6705,1.6319,1.6614,1.6848,1.6899,1.6471,1.6402,1.6779,1.5753,1.5348,1.5527,1.3803,1.3216,1.3582,1.2625,1.2186,1.2186,1.2041,1.1811,1.1468,1.1067,1.0916,1.084,1.0331,1.0358,1.0704,1.0385,1.0354,1.0383,1.0048,0.9947,1.0006,1.0006,0.9751,0.9413,0.9614,0.9256,0.8745,0.8533,0.7883,0.7187,0.6972,0.6268,0.5559,0.5226,0.4901,0.457,0.4291,0.3846,0.3461,0.3352,0.2963,0.2404,0.1789,0.1623,0.19,0.2896,0.24,0.2014,0.2237,0.2015,0.1793,0.1568,0.1737,0.1737,0.1568,0.1344,0.1231,0.14,0.0897,0.0673,0.0842,0.0842,0.0729,0.0393,0.0673,0.0729,0.0393,0.0393,0.0393,0.0393,0.0393,0.084]}]]